<?xml version='1.0' encoding='UTF-8'?><gpx version="1.1" creator="JPX - https://github.com/jenetics/jpx" xmlns="http://www.topografix.com/GPX/1/1"><trk><trkseg><trkpt lat="40.9146497688059" lon="0.5126922946931639"><ele>30.0</ele><time>2026-04-26T13:37:29.999Z</time></trkpt><trkpt lat="40.914667041685576" lon="0.5128159690487195"><ele>30.0</ele><time>2026-04-26T13:37:34.999Z</time></trkpt><trkpt lat="40.914626034267684" lon="0.5127406037181383"><ele>30.0</ele><time>2026-04-26T13:40:31Z</time></trkpt><trkpt lat="40.914597413289414" lon="0.5126379362434237"><ele>30.0</ele><time>2026-04-26T13:42:21Z</time></trkpt><trkpt lat="40.914526149141125" lon="0.5125484592476888"><ele>30.0</ele><time>2026-04-26T13:42:23Z</time></trkpt><trkpt lat="40.91445106029843" lon="0.5124863159070349"><ele>30.0</ele><time>2026-04-26T13:42:25Z</time></trkpt><trkpt lat="40.91436641100079" lon="0.512426026150414"><ele>30.0</ele><time>2026-04-26T13:42:27Z</time></trkpt><trkpt lat="40.914291998233125" lon="0.5123787979768092"><ele>30.0</ele><time>2026-04-26T13:42:29Z</time></trkpt><trkpt lat="40.91419595299099" lon="0.5123121133398276"><ele>30.0</ele><time>2026-04-26T13:42:31Z</time></trkpt><trkpt lat="40.91409332892392" lon="0.5122381810084593"><ele>30.0</ele><time>2026-04-26T13:42:33Z</time></trkpt><trkpt lat="40.914051628506996" lon="0.5121729836453114"><ele>30.0</ele><time>2026-04-26T13:42:34Z</time></trkpt><trkpt lat="40.91402114486533" lon="0.5120974829153097"><ele>30.0</ele><time>2026-04-26T13:42:35Z</time></trkpt><trkpt lat="40.91399743248826" lon="0.5120020857333385"><ele>27.0</ele><time>2026-04-26T13:42:36Z</time></trkpt><trkpt lat="40.91397936196908" lon="0.5119192759510932"><ele>24.0</ele><time>2026-04-26T13:42:37Z</time></trkpt><trkpt lat="40.91396078012393" lon="0.511827396693545"><ele>21.0</ele><time>2026-04-26T13:42:38Z</time></trkpt><trkpt lat="40.913940750463205" lon="0.5117254254806359"><ele>18.0</ele><time>2026-04-26T13:42:39Z</time></trkpt><trkpt lat="40.91392553067489" lon="0.5116020419710723"><ele>15.0</ele><time>2026-04-26T13:42:40Z</time></trkpt><trkpt lat="40.91391178955046" lon="0.5115042259727662"><ele>12.0</ele><time>2026-04-26T13:42:41Z</time></trkpt><trkpt lat="40.91390281877454" lon="0.5114209921339966"><ele>12.0</ele><time>2026-04-26T13:42:42Z</time></trkpt><trkpt lat="40.91388345018914" lon="0.5113106256272085"><ele>12.0</ele><time>2026-04-26T13:42:44Z</time></trkpt><trkpt lat="40.91385343267435" lon="0.5112163732385376"><ele>12.0</ele><time>2026-04-26T13:42:47Z</time></trkpt><trkpt lat="40.91379887619842" lon="0.5111730475148724"><ele>12.0</ele><time>2026-04-26T13:42:50Z</time></trkpt><trkpt lat="40.91369718530107" lon="0.5112133772024405"><ele>12.0</ele><time>2026-04-26T13:42:52Z</time></trkpt><trkpt lat="40.9136267715293" lon="0.5112541483486243"><ele>12.0</ele><time>2026-04-26T13:42:53Z</time></trkpt><trkpt lat="40.91353449801527" lon="0.5112906396131174"><ele>12.0</ele><time>2026-04-26T13:42:54Z</time></trkpt><trkpt lat="40.91345274820188" lon="0.511328080809252"><ele>12.0</ele><time>2026-04-26T13:42:55Z</time></trkpt><trkpt lat="40.91337210450302" lon="0.5113555914133852"><ele>12.0</ele><time>2026-04-26T13:42:56Z</time></trkpt><trkpt lat="40.91329988116759" lon="0.5113848497805328"><ele>12.0</ele><time>2026-04-26T13:42:57Z</time></trkpt><trkpt lat="40.91323630994913" lon="0.5114095085976025"><ele>12.0</ele><time>2026-04-26T13:42:58Z</time></trkpt><trkpt lat="40.91313323086897" lon="0.5114483842072372"><ele>12.0</ele><time>2026-04-26T13:43:00Z</time></trkpt><trkpt lat="40.913004952514804" lon="0.5115083034402652"><ele>12.0</ele><time>2026-04-26T13:43:02Z</time></trkpt><trkpt lat="40.912882469050864" lon="0.5115608149210754"><ele>12.0</ele><time>2026-04-26T13:43:03Z</time></trkpt><trkpt lat="40.9127585528713" lon="0.5116156380976788"><ele>12.0</ele><time>2026-04-26T13:43:04Z</time></trkpt><trkpt lat="40.912660486966494" lon="0.511653323539296"><ele>12.0</ele><time>2026-04-26T13:43:05Z</time></trkpt><trkpt lat="40.91258715026248" lon="0.5116867146720704"><ele>12.0</ele><time>2026-04-26T13:43:06Z</time></trkpt><trkpt lat="40.912521149638714" lon="0.5117156167913688"><ele>12.0</ele><time>2026-04-26T13:43:07Z</time></trkpt><trkpt lat="40.91245012783672" lon="0.5117518756139"><ele>12.0</ele><time>2026-04-26T13:43:08Z</time></trkpt><trkpt lat="40.91235844851879" lon="0.5118052478920894"><ele>12.0</ele><time>2026-04-26T13:43:09Z</time></trkpt><trkpt lat="40.91225187235207" lon="0.5118632287277842"><ele>12.0</ele><time>2026-04-26T13:43:10Z</time></trkpt><trkpt lat="40.912166333847786" lon="0.5119129621031299"><ele>12.0</ele><time>2026-04-26T13:43:11Z</time></trkpt><trkpt lat="40.91209892780312" lon="0.5119519118092224"><ele>12.0</ele><time>2026-04-26T13:43:12Z</time></trkpt><trkpt lat="40.912037983417605" lon="0.5119840488665001"><ele>12.0</ele><time>2026-04-26T13:43:13Z</time></trkpt><trkpt lat="40.91193348645991" lon="0.5120450585041051"><ele>12.0</ele><time>2026-04-26T13:43:15Z</time></trkpt><trkpt lat="40.911844594431614" lon="0.5121082367641046"><ele>12.0</ele><time>2026-04-26T13:43:17Z</time></trkpt><trkpt lat="40.91181343799131" lon="0.512250351633364"><ele>12.0</ele><time>2026-04-26T13:43:19Z</time></trkpt><trkpt lat="40.911864145283445" lon="0.5123781599699835"><ele>12.399999999999999</ele><time>2026-04-26T13:43:21Z</time></trkpt><trkpt lat="40.91193091323929" lon="0.5125108651937338"><ele>12.799999999999999</ele><time>2026-04-26T13:43:22Z</time></trkpt><trkpt lat="40.911981285409986" lon="0.5126323614015403"><ele>13.2</ele><time>2026-04-26T13:43:23Z</time></trkpt><trkpt lat="40.91201841782405" lon="0.5127511539152073"><ele>13.6</ele><time>2026-04-26T13:43:24Z</time></trkpt><trkpt lat="40.91203899581811" lon="0.5128311866866558"><ele>14.0</ele><time>2026-04-26T13:43:25Z</time></trkpt><trkpt lat="40.912065395037246" lon="0.5129692725947524"><ele>14.833333333333334</ele><time>2026-04-26T13:43:27Z</time></trkpt><trkpt lat="40.912042560731656" lon="0.5130779948180845"><ele>15.666666666666668</ele><time>2026-04-26T13:43:29Z</time></trkpt><trkpt lat="40.91195242663798" lon="0.5131714997102813"><ele>16.5</ele><time>2026-04-26T13:43:31Z</time></trkpt><trkpt lat="40.91190023841705" lon="0.513238727547155"><ele>17.333333333333332</ele><time>2026-04-26T13:43:32Z</time></trkpt><trkpt lat="40.91186036090685" lon="0.513338669961584"><ele>18.166666666666664</ele><time>2026-04-26T13:43:33Z</time></trkpt><trkpt lat="40.91184619773586" lon="0.5134453740137196"><ele>19.0</ele><time>2026-04-26T13:43:34Z</time></trkpt><trkpt lat="40.91182554983527" lon="0.5135693362429046"><ele>19.0</ele><time>2026-04-26T13:43:35Z</time></trkpt><trkpt lat="40.91178672348435" lon="0.5137173829266319"><ele>19.0</ele><time>2026-04-26T13:43:36Z</time></trkpt><trkpt lat="40.91176289667634" lon="0.5138314198900399"><ele>19.0</ele><time>2026-04-26T13:43:37Z</time></trkpt><trkpt lat="40.911744845047785" lon="0.5139382187696571"><ele>19.0</ele><time>2026-04-26T13:43:38Z</time></trkpt><trkpt lat="40.911713693869125" lon="0.5140282976473652"><ele>19.0</ele><time>2026-04-26T13:43:39Z</time></trkpt><trkpt lat="40.911699285530446" lon="0.5141260846405746"><ele>19.0</ele><time>2026-04-26T13:43:40Z</time></trkpt><trkpt lat="40.91170749842176" lon="0.5142160428200413"><ele>19.833333333333332</ele><time>2026-04-26T13:43:41Z</time></trkpt><trkpt lat="40.91172461468365" lon="0.5143072375620826"><ele>20.666666666666664</ele><time>2026-04-26T13:43:42Z</time></trkpt><trkpt lat="40.911774522483356" lon="0.5144538773017716"><ele>21.5</ele><time>2026-04-26T13:43:44Z</time></trkpt><trkpt lat="40.911824320960875" lon="0.5145458203290411"><ele>22.333333333333332</ele><time>2026-04-26T13:43:45Z</time></trkpt><trkpt lat="40.91185226975902" lon="0.514629586086866"><ele>23.166666666666668</ele><time>2026-04-26T13:43:46Z</time></trkpt><trkpt lat="40.911877976285595" lon="0.5147318689160448"><ele>24.0</ele><time>2026-04-26T13:43:47Z</time></trkpt><trkpt lat="40.911950888147494" lon="0.514849488064892"><ele>24.0</ele><time>2026-04-26T13:43:49Z</time></trkpt><trkpt lat="40.91200950322703" lon="0.514889705332926"><ele>24.0</ele><time>2026-04-26T13:43:50Z</time></trkpt><trkpt lat="40.9121305495902" lon="0.5148792390789313"><ele>24.0</ele><time>2026-04-26T13:43:52Z</time></trkpt><trkpt lat="40.91224499254524" lon="0.5148751084040833"><ele>24.0</ele><time>2026-04-26T13:43:53Z</time></trkpt><trkpt lat="40.91234356206595" lon="0.5148739624723366"><ele>24.0</ele><time>2026-04-26T13:43:54Z</time></trkpt><trkpt lat="40.91241287386571" lon="0.5148930062867351"><ele>24.0</ele><time>2026-04-26T13:43:55Z</time></trkpt><trkpt lat="40.91247719429831" lon="0.5149309624209114"><ele>24.0</ele><time>2026-04-26T13:43:56Z</time></trkpt><trkpt lat="40.91253338065009" lon="0.5149853702500455"><ele>24.0</ele><time>2026-04-26T13:43:57Z</time></trkpt><trkpt lat="40.91258176626233" lon="0.5150854599488012"><ele>24.0</ele><time>2026-04-26T13:43:59Z</time></trkpt><trkpt lat="40.912407224256306" lon="0.5149478830059091"><ele>24.0</ele><time>2026-04-26T13:46:45Z</time></trkpt><trkpt lat="40.91234368244461" lon="0.5149159178526143"><ele>24.0</ele><time>2026-04-26T13:46:46Z</time></trkpt><trkpt lat="40.912212172839844" lon="0.5149014120730205"><ele>24.0</ele><time>2026-04-26T13:46:48Z</time></trkpt><trkpt lat="40.91212176961552" lon="0.514912123237977"><ele>24.0</ele><time>2026-04-26T13:46:49Z</time></trkpt><trkpt lat="40.9120443838773" lon="0.5149126637970822"><ele>24.0</ele><time>2026-04-26T13:46:50Z</time></trkpt><trkpt lat="40.91196200368159" lon="0.5148929084105381"><ele>24.0</ele><time>2026-04-26T13:46:52Z</time></trkpt><trkpt lat="40.91188350348794" lon="0.5149508669361226"><ele>24.0</ele><time>2026-04-26T13:46:55Z</time></trkpt><trkpt lat="40.911906031542784" lon="0.5150909915383175"><ele>24.0</ele><time>2026-04-26T13:46:57Z</time></trkpt><trkpt lat="40.911937276902066" lon="0.5152017352231937"><ele>24.0</ele><time>2026-04-26T13:46:58Z</time></trkpt><trkpt lat="40.91195211041495" lon="0.5153126307209773"><ele>24.0</ele><time>2026-04-26T13:46:59Z</time></trkpt><trkpt lat="40.91198856782139" lon="0.5154048120841951"><ele>24.0</ele><time>2026-04-26T13:47:00Z</time></trkpt><trkpt lat="40.91203749283094" lon="0.5155001465993924"><ele>24.0</ele><time>2026-04-26T13:47:01Z</time></trkpt><trkpt lat="40.912082325519" lon="0.5155962942412134"><ele>24.2</ele><time>2026-04-26T13:47:02Z</time></trkpt><trkpt lat="40.91212425616738" lon="0.5156782040693252"><ele>24.4</ele><time>2026-04-26T13:47:03Z</time></trkpt><trkpt lat="40.91217841977055" lon="0.5158275233246246"><ele>24.6</ele><time>2026-04-26T13:47:05Z</time></trkpt><trkpt lat="40.91221608410642" lon="0.5158946040690571"><ele>24.8</ele><time>2026-04-26T13:47:06Z</time></trkpt><trkpt lat="40.91230203372181" lon="0.516009274809821"><ele>25.0</ele><time>2026-04-26T13:47:08Z</time></trkpt><trkpt lat="40.91235997903696" lon="0.5160863300395648"><ele>25.0</ele><time>2026-04-26T13:47:09Z</time></trkpt><trkpt lat="40.912424507073496" lon="0.5161888450887961"><ele>25.0</ele><time>2026-04-26T13:47:10Z</time></trkpt><trkpt lat="40.912468107718986" lon="0.5162796431974267"><ele>25.0</ele><time>2026-04-26T13:47:11Z</time></trkpt><trkpt lat="40.91251359568809" lon="0.5163779071941749"><ele>25.0</ele><time>2026-04-26T13:47:12Z</time></trkpt><trkpt lat="40.9125749815284" lon="0.5164987668404293"><ele>25.0</ele><time>2026-04-26T13:47:13Z</time></trkpt><trkpt lat="40.912629037557764" lon="0.5166313542905345"><ele>26.6</ele><time>2026-04-26T13:47:14Z</time></trkpt><trkpt lat="40.91267152216134" lon="0.5167311799242733"><ele>28.2</ele><time>2026-04-26T13:47:15Z</time></trkpt><trkpt lat="40.91270294090917" lon="0.5168110418542124"><ele>29.799999999999997</ele><time>2026-04-26T13:47:16Z</time></trkpt><trkpt lat="40.912756798048456" lon="0.5169572980063195"><ele>31.4</ele><time>2026-04-26T13:47:18Z</time></trkpt><trkpt lat="40.91279566781543" lon="0.5170597066735876"><ele>33.0</ele><time>2026-04-26T13:47:19Z</time></trkpt><trkpt lat="40.91285044107677" lon="0.5171713505250664"><ele>33.0</ele><time>2026-04-26T13:47:20Z</time></trkpt><trkpt lat="40.912903122716244" lon="0.5172753552252025"><ele>33.0</ele><time>2026-04-26T13:47:21Z</time></trkpt><trkpt lat="40.91295181161107" lon="0.5173450668742628"><ele>33.0</ele><time>2026-04-26T13:47:22Z</time></trkpt><trkpt lat="40.91299562592646" lon="0.5174449304439755"><ele>33.0</ele><time>2026-04-26T13:47:23Z</time></trkpt><trkpt lat="40.91304971896059" lon="0.5175526674082425"><ele>33.0</ele><time>2026-04-26T13:47:24Z</time></trkpt><trkpt lat="40.91309829794279" lon="0.5176520368747143"><ele>33.0</ele><time>2026-04-26T13:47:25Z</time></trkpt><trkpt lat="40.91316210286829" lon="0.5177777484542904"><ele>33.0</ele><time>2026-04-26T13:47:26Z</time></trkpt><trkpt lat="40.91321631119988" lon="0.517871994328817"><ele>33.0</ele><time>2026-04-26T13:47:27Z</time></trkpt><trkpt lat="40.913266062479224" lon="0.5179542408397554"><ele>33.0</ele><time>2026-04-26T13:47:28Z</time></trkpt><trkpt lat="40.9133119580042" lon="0.5180338061048297"><ele>33.0</ele><time>2026-04-26T13:47:29Z</time></trkpt><trkpt lat="40.91335819586324" lon="0.5181929522956239"><ele>33.0</ele><time>2026-04-26T13:47:31Z</time></trkpt><trkpt lat="40.913378749395605" lon="0.5182719035088273"><ele>33.0</ele><time>2026-04-26T13:47:32Z</time></trkpt><trkpt lat="40.91338939270943" lon="0.5183847775123179"><ele>34.166666666666664</ele><time>2026-04-26T13:47:33Z</time></trkpt><trkpt lat="40.913410898454515" lon="0.5184845333505481"><ele>35.333333333333336</ele><time>2026-04-26T13:47:34Z</time></trkpt><trkpt lat="40.91344573569767" lon="0.5185862221329558"><ele>36.5</ele><time>2026-04-26T13:47:35Z</time></trkpt><trkpt lat="40.91347269299303" lon="0.5187035511336692"><ele>37.66666666666667</ele><time>2026-04-26T13:47:36Z</time></trkpt><trkpt lat="40.91350810141512" lon="0.5188330059603667"><ele>38.833333333333336</ele><time>2026-04-26T13:47:37Z</time></trkpt><trkpt lat="40.91353809830984" lon="0.5189387900598014"><ele>40.0</ele><time>2026-04-26T13:47:38Z</time></trkpt><trkpt lat="40.913570016068235" lon="0.5190163829240179"><ele>40.0</ele><time>2026-04-26T13:47:39Z</time></trkpt><trkpt lat="40.91361979152373" lon="0.519086222202729"><ele>40.0</ele><time>2026-04-26T13:47:40Z</time></trkpt><trkpt lat="40.91368959544089" lon="0.5191454933182043"><ele>40.0</ele><time>2026-04-26T13:47:41Z</time></trkpt><trkpt lat="40.913744637043166" lon="0.5192045821534991"><ele>40.0</ele><time>2026-04-26T13:47:42Z</time></trkpt><trkpt lat="40.913796842382524" lon="0.5192541474176502"><ele>40.0</ele><time>2026-04-26T13:47:43Z</time></trkpt><trkpt lat="40.91385693151786" lon="0.5193413078425942"><ele>40.0</ele><time>2026-04-26T13:47:44Z</time></trkpt><trkpt lat="40.91392905271826" lon="0.5194535725686968"><ele>40.4</ele><time>2026-04-26T13:47:45Z</time></trkpt><trkpt lat="40.913990327578254" lon="0.5195687988785385"><ele>40.8</ele><time>2026-04-26T13:47:46Z</time></trkpt><trkpt lat="40.9140523233749" lon="0.519700214434716"><ele>41.2</ele><time>2026-04-26T13:47:47Z</time></trkpt><trkpt lat="40.91409884696044" lon="0.5198067440186226"><ele>41.6</ele><time>2026-04-26T13:47:48Z</time></trkpt><trkpt lat="40.914148280477164" lon="0.5198936509784414"><ele>42.0</ele><time>2026-04-26T13:47:49Z</time></trkpt><trkpt lat="40.914196408200446" lon="0.5199550369644215"><ele>43.5</ele><time>2026-04-26T13:47:50Z</time></trkpt><trkpt lat="40.91428567900596" lon="0.5200631181287357"><ele>45.0</ele><time>2026-04-26T13:47:52Z</time></trkpt><trkpt lat="40.91434734724642" lon="0.5202219928009448"><ele>46.5</ele><time>2026-04-26T13:47:54Z</time></trkpt><trkpt lat="40.914370831615756" lon="0.5203248224453667"><ele>48.0</ele><time>2026-04-26T13:47:55Z</time></trkpt><trkpt lat="40.914431337677435" lon="0.5204506284291374"><ele>48.0</ele><time>2026-04-26T13:47:57Z</time></trkpt><trkpt lat="40.91450364910014" lon="0.5205303501816786"><ele>48.0</ele><time>2026-04-26T13:47:58Z</time></trkpt><trkpt lat="40.91456768035607" lon="0.5205984647503019"><ele>48.0</ele><time>2026-04-26T13:47:59Z</time></trkpt><trkpt lat="40.914690573137655" lon="0.5207294125277724"><ele>48.0</ele><time>2026-04-26T13:48:01Z</time></trkpt><trkpt lat="40.91474197106567" lon="0.5208085324679833"><ele>48.0</ele><time>2026-04-26T13:48:02Z</time></trkpt><trkpt lat="40.91478427741166" lon="0.5208846419347012"><ele>48.0</ele><time>2026-04-26T13:48:03Z</time></trkpt><trkpt lat="40.91482157771113" lon="0.5209673449198349"><ele>48.0</ele><time>2026-04-26T13:48:04Z</time></trkpt><trkpt lat="40.91492474982288" lon="0.5210500874084086"><ele>48.0</ele><time>2026-04-26T13:48:06Z</time></trkpt><trkpt lat="40.9149794057941" lon="0.5211035705539563"><ele>48.0</ele><time>2026-04-26T13:48:07Z</time></trkpt><trkpt lat="40.91501803028262" lon="0.5212902815346904"><ele>48.0</ele><time>2026-04-26T13:48:09Z</time></trkpt><trkpt lat="40.91504281649319" lon="0.521405967987465"><ele>47.599999999999994</ele><time>2026-04-26T13:48:10Z</time></trkpt><trkpt lat="40.91503962842807" lon="0.5215751794015502"><ele>47.199999999999996</ele><time>2026-04-26T13:48:11Z</time></trkpt><trkpt lat="40.91504888350537" lon="0.5216845402461773"><ele>46.8</ele><time>2026-04-26T13:48:12Z</time></trkpt><trkpt lat="40.91505920707042" lon="0.5217869360045152"><ele>46.4</ele><time>2026-04-26T13:48:13Z</time></trkpt><trkpt lat="40.91504381557222" lon="0.5218811410033958"><ele>46.0</ele><time>2026-04-26T13:48:14Z</time></trkpt><trkpt lat="40.91502291249637" lon="0.5220391285859515"><ele>47.0</ele><time>2026-04-26T13:48:16Z</time></trkpt><trkpt lat="40.91504916298167" lon="0.522130651244033"><ele>48.0</ele><time>2026-04-26T13:48:17Z</time></trkpt><trkpt lat="40.91505479901272" lon="0.5222397936609189"><ele>49.0</ele><time>2026-04-26T13:48:18Z</time></trkpt><trkpt lat="40.91506286305142" lon="0.5223449727240137"><ele>50.0</ele><time>2026-04-26T13:48:19Z</time></trkpt><trkpt lat="40.91504847955135" lon="0.5224612762700634"><ele>50.99999999999999</ele><time>2026-04-26T13:48:20Z</time></trkpt><trkpt lat="40.91501565556696" lon="0.5225545315854151"><ele>52.0</ele><time>2026-04-26T13:48:21Z</time></trkpt><trkpt lat="40.91499406633731" lon="0.5226585133894732"><ele>51.99999999999999</ele><time>2026-04-26T13:48:21.999Z</time></trkpt><trkpt lat="40.914962009477634" lon="0.5228098865529667"><ele>52.0</ele><time>2026-04-26T13:48:22.999Z</time></trkpt><trkpt lat="40.914926574217816" lon="0.5229319819127802"><ele>52.0</ele><time>2026-04-26T13:48:23.999Z</time></trkpt><trkpt lat="40.914906735511494" lon="0.523026472607353"><ele>52.0</ele><time>2026-04-26T13:48:24.999Z</time></trkpt><trkpt lat="40.91488510804621" lon="0.5231110589564462"><ele>51.99999999999999</ele><time>2026-04-26T13:48:25.999Z</time></trkpt><trkpt lat="40.9149181236734" lon="0.5232162694830839"><ele>52.0</ele><time>2026-04-26T13:48:26.999Z</time></trkpt><trkpt lat="40.91494953736616" lon="0.5233362568631956"><ele>51.83333333333333</ele><time>2026-04-26T13:48:27.999Z</time></trkpt><trkpt lat="40.91497270490968" lon="0.5234536599625873"><ele>51.666666666666664</ele><time>2026-04-26T13:48:28.999Z</time></trkpt><trkpt lat="40.9149942833235" lon="0.5235500968124301"><ele>51.5</ele><time>2026-04-26T13:48:29.999Z</time></trkpt><trkpt lat="40.915005119188166" lon="0.5236528448130391"><ele>51.33333333333333</ele><time>2026-04-26T13:48:30.999Z</time></trkpt><trkpt lat="40.91500606287283" lon="0.5237399489283102"><ele>51.166666666666664</ele><time>2026-04-26T13:48:31.999Z</time></trkpt><trkpt lat="40.91496580186709" lon="0.523830936339436"><ele>51.0</ele><time>2026-04-26T13:48:34Z</time></trkpt><trkpt lat="40.91491592256207" lon="0.5239027345509998"><ele>51.333333333333336</ele><time>2026-04-26T13:48:36Z</time></trkpt><trkpt lat="40.91485564088635" lon="0.5239362105503022"><ele>51.66666666666667</ele><time>2026-04-26T13:48:37Z</time></trkpt><trkpt lat="40.914753820153884" lon="0.5240196297084629"><ele>52.0</ele><time>2026-04-26T13:48:39Z</time></trkpt><trkpt lat="40.91470571182154" lon="0.5240928210138545"><ele>52.333333333333336</ele><time>2026-04-26T13:48:41Z</time></trkpt><trkpt lat="40.91466278839188" lon="0.5240217866180764"><ele>52.66666666666667</ele><time>2026-04-26T13:48:43Z</time></trkpt><trkpt lat="40.91469821416372" lon="0.5238736325606431"><ele>53.0</ele><time>2026-04-26T13:48:45Z</time></trkpt><trkpt lat="40.9147566341036" lon="0.5237925911841205"><ele>53.0</ele><time>2026-04-26T13:48:47Z</time></trkpt><trkpt lat="40.91470565059446" lon="0.5237315103703634"><ele>53.0</ele><time>2026-04-26T13:48:50Z</time></trkpt><trkpt lat="40.91464588996185" lon="0.5238427029683295"><ele>53.0</ele><time>2026-04-26T13:48:52Z</time></trkpt><trkpt lat="40.91456510668091" lon="0.5239499989561245"><ele>53.0</ele><time>2026-04-26T13:48:54Z</time></trkpt><trkpt lat="40.91450135299616" lon="0.5240119968827388"><ele>53.0</ele><time>2026-04-26T13:48:55Z</time></trkpt><trkpt lat="40.91442745571051" lon="0.5241373078538742"><ele>53.0</ele><time>2026-04-26T13:48:57Z</time></trkpt><trkpt lat="40.9144108766562" lon="0.5242193608989728"><ele>53.0</ele><time>2026-04-26T13:48:58Z</time></trkpt><trkpt lat="40.91439021133892" lon="0.5243174188626937"><ele>53.0</ele><time>2026-04-26T13:48:59Z</time></trkpt><trkpt lat="40.9143770314473" lon="0.5244075616968963"><ele>53.0</ele><time>2026-04-26T13:49:00Z</time></trkpt><trkpt lat="40.91437753754532" lon="0.5245157083973522"><ele>53.0</ele><time>2026-04-26T13:49:01Z</time></trkpt><trkpt lat="40.91436465622425" lon="0.5246075094584969"><ele>53.0</ele><time>2026-04-26T13:49:02Z</time></trkpt><trkpt lat="40.91435556153806" lon="0.5246985446038717"><ele>53.0</ele><time>2026-04-26T13:49:03Z</time></trkpt><trkpt lat="40.91435345719694" lon="0.5248121266792138"><ele>53.66666666666667</ele><time>2026-04-26T13:49:04Z</time></trkpt><trkpt lat="40.91434064549799" lon="0.5249493771447818"><ele>54.333333333333336</ele><time>2026-04-26T13:49:05Z</time></trkpt><trkpt lat="40.91433594384778" lon="0.5250574734329619"><ele>55.0</ele><time>2026-04-26T13:49:06Z</time></trkpt><trkpt lat="40.914328809245724" lon="0.5251489835465847"><ele>55.66666666666667</ele><time>2026-04-26T13:49:07Z</time></trkpt><trkpt lat="40.914340937505436" lon="0.525313258236478"><ele>56.333333333333336</ele><time>2026-04-26T13:49:09Z</time></trkpt><trkpt lat="40.914333420836705" lon="0.5254031610090629"><ele>57.0</ele><time>2026-04-26T13:49:10Z</time></trkpt><trkpt lat="40.91431387307988" lon="0.5255324091583327"><ele>57.75</ele><time>2026-04-26T13:49:12Z</time></trkpt><trkpt lat="40.91428475347832" lon="0.5257041493131441"><ele>58.5</ele><time>2026-04-26T13:49:14Z</time></trkpt><trkpt lat="40.91427196256547" lon="0.5258020047071718"><ele>59.25</ele><time>2026-04-26T13:49:15Z</time></trkpt><trkpt lat="40.91428024852675" lon="0.5260241159889191"><ele>60.0</ele><time>2026-04-26T13:49:17Z</time></trkpt><trkpt lat="40.91426644953442" lon="0.526162732286395"><ele>62.0</ele><time>2026-04-26T13:49:18Z</time></trkpt><trkpt lat="40.914266971769216" lon="0.5262656955723383"><ele>64.0</ele><time>2026-04-26T13:49:19Z</time></trkpt><trkpt lat="40.914250878471385" lon="0.526367345510033"><ele>66.0</ele><time>2026-04-26T13:49:20Z</time></trkpt><trkpt lat="40.914228264200226" lon="0.5264571498206919"><ele>68.0</ele><time>2026-04-26T13:49:21Z</time></trkpt><trkpt lat="40.91418210954538" lon="0.5266097880693973"><ele>70.0</ele><time>2026-04-26T13:49:23Z</time></trkpt><trkpt lat="40.91414702967713" lon="0.5266892569287772"><ele>72.0</ele><time>2026-04-26T13:49:24Z</time></trkpt><trkpt lat="40.914123433539395" lon="0.5267688496731346"><ele>73.83333333333333</ele><time>2026-04-26T13:49:25Z</time></trkpt><trkpt lat="40.91412130800143" lon="0.5268990198773486"><ele>75.66666666666667</ele><time>2026-04-26T13:49:27Z</time></trkpt><trkpt lat="40.91411956927809" lon="0.5269971578978427"><ele>77.5</ele><time>2026-04-26T13:49:29Z</time></trkpt><trkpt lat="40.91408666783108" lon="0.5271114447515592"><ele>79.33333333333334</ele><time>2026-04-26T13:49:32Z</time></trkpt><trkpt lat="40.91412571100681" lon="0.5272007800736142"><ele>81.16666666666667</ele><time>2026-04-26T13:49:34Z</time></trkpt><trkpt lat="40.914178111731275" lon="0.5272961696237715"><ele>83.0</ele><time>2026-04-26T13:49:36Z</time></trkpt><trkpt lat="40.91418886613708" lon="0.5274398819119588"><ele>83.33333333333334</ele><time>2026-04-26T13:49:38Z</time></trkpt><trkpt lat="40.91417966690245" lon="0.5275656575522834"><ele>83.66666666666667</ele><time>2026-04-26T13:49:39Z</time></trkpt><trkpt lat="40.91417154164064" lon="0.527667498036269"><ele>84.0</ele><time>2026-04-26T13:49:40Z</time></trkpt><trkpt lat="40.91417487222072" lon="0.527775421415156"><ele>84.33333333333333</ele><time>2026-04-26T13:49:41Z</time></trkpt><trkpt lat="40.91417616109033" lon="0.5278823557457117"><ele>84.66666666666666</ele><time>2026-04-26T13:49:42Z</time></trkpt><trkpt lat="40.91416085493244" lon="0.5279804404990317"><ele>85.0</ele><time>2026-04-26T13:49:43Z</time></trkpt><trkpt lat="40.91414531764099" lon="0.5280881716928244"><ele>86.33333333333333</ele><time>2026-04-26T13:49:44Z</time></trkpt><trkpt lat="40.91411483571143" lon="0.5281798083241606"><ele>87.66666666666666</ele><time>2026-04-26T13:49:45Z</time></trkpt><trkpt lat="40.91410362518059" lon="0.5283147141482001"><ele>89.0</ele><time>2026-04-26T13:49:47Z</time></trkpt><trkpt lat="40.91408116148746" lon="0.5284128036754961"><ele>90.33333333333333</ele><time>2026-04-26T13:49:49Z</time></trkpt><trkpt lat="40.9140528351576" lon="0.528488873322153"><ele>91.66666666666667</ele><time>2026-04-26T13:49:51Z</time></trkpt><trkpt lat="40.914039799977935" lon="0.528648620709931"><ele>93.0</ele><time>2026-04-26T13:49:56Z</time></trkpt><trkpt lat="40.91401323699271" lon="0.5288355851597917"><ele>94.5</ele><time>2026-04-26T13:49:58Z</time></trkpt><trkpt lat="40.91397739025305" lon="0.528929018009191"><ele>96.0</ele><time>2026-04-26T13:49:59Z</time></trkpt><trkpt lat="40.91396887874424" lon="0.5290231901363531"><ele>97.5</ele><time>2026-04-26T13:50:00Z</time></trkpt><trkpt lat="40.91395450146273" lon="0.5291563493446269"><ele>99.0</ele><time>2026-04-26T13:50:02Z</time></trkpt><trkpt lat="40.91393981207184" lon="0.5292454404953559"><ele>100.5</ele><time>2026-04-26T13:50:06Z</time></trkpt><trkpt lat="40.9139232676922" lon="0.5293448810183313"><ele>102.0</ele><time>2026-04-26T13:50:07Z</time></trkpt><trkpt lat="40.91388901557847" lon="0.5294472754174778"><ele>102.0</ele><time>2026-04-26T13:50:10Z</time></trkpt><trkpt lat="40.91397454021514" lon="0.5295061203447425"><ele>102.0</ele><time>2026-04-26T13:50:14Z</time></trkpt><trkpt lat="40.91398971110308" lon="0.5295951904145096"><ele>102.0</ele><time>2026-04-26T13:50:14.999Z</time></trkpt><trkpt lat="40.91397707060653" lon="0.5297165521163544"><ele>102.0</ele><time>2026-04-26T13:50:16.999Z</time></trkpt><trkpt lat="40.91394568234504" lon="0.5298104085046215"><ele>102.0</ele><time>2026-04-26T13:50:18.999Z</time></trkpt><trkpt lat="40.91388750368942" lon="0.5298821390036081"><ele>102.0</ele><time>2026-04-26T13:50:21.999Z</time></trkpt><trkpt lat="40.91382878130968" lon="0.5298503648137192"><ele>102.0</ele><time>2026-04-26T13:50:23.999Z</time></trkpt><trkpt lat="40.91378803127574" lon="0.5297406805842141"><ele>102.0</ele><time>2026-04-26T13:50:26.999Z</time></trkpt><trkpt lat="40.913734128629834" lon="0.5296624703193012"><ele>102.0</ele><time>2026-04-26T13:50:28.999Z</time></trkpt><trkpt lat="40.91369351314251" lon="0.5295859208567861"><ele>102.0</ele><time>2026-04-26T13:50:30.999Z</time></trkpt><trkpt lat="40.913660434765355" lon="0.5294626696012368"><ele>102.0</ele><time>2026-04-26T13:50:33.999Z</time></trkpt><trkpt lat="40.913645275624944" lon="0.5293723445412243"><ele>102.0</ele><time>2026-04-26T13:50:35.999Z</time></trkpt><trkpt lat="40.91361011179256" lon="0.529291098575089"><ele>102.0</ele><time>2026-04-26T13:50:41Z</time></trkpt><trkpt lat="40.91361892727132" lon="0.529394734384516"><ele>102.0</ele><time>2026-04-26T13:50:53Z</time></trkpt><trkpt lat="40.913630205696734" lon="0.5295058983521173"><ele>102.0</ele><time>2026-04-26T13:50:55Z</time></trkpt><trkpt lat="40.913606512597084" lon="0.5296250930040461"><ele>102.0</ele><time>2026-04-26T13:50:59Z</time></trkpt><trkpt lat="40.91351413817952" lon="0.5295827080536372"><ele>102.0</ele><time>2026-04-26T13:51:01Z</time></trkpt><trkpt lat="40.91346731305691" lon="0.5294822529181674"><ele>102.0</ele><time>2026-04-26T13:51:03Z</time></trkpt><trkpt lat="40.91345809843595" lon="0.5293704609538782"><ele>102.0</ele><time>2026-04-26T13:51:06Z</time></trkpt><trkpt lat="40.913431801138216" lon="0.5292720194103965"><ele>102.0</ele><time>2026-04-26T13:51:09Z</time></trkpt><trkpt lat="40.91341146498399" lon="0.5291734323747928"><ele>102.0</ele><time>2026-04-26T13:51:11Z</time></trkpt><trkpt lat="40.91338984323878" lon="0.5290629607299717"><ele>102.0</ele><time>2026-04-26T13:51:15Z</time></trkpt><trkpt lat="40.91339093427547" lon="0.5289709713866441"><ele>102.0</ele><time>2026-04-26T13:51:17Z</time></trkpt><trkpt lat="40.91337723223069" lon="0.5288479974421798"><ele>102.0</ele><time>2026-04-26T13:51:19Z</time></trkpt><trkpt lat="40.91338854136809" lon="0.528750175783872"><ele>103.33333333333333</ele><time>2026-04-26T13:51:22Z</time></trkpt><trkpt lat="40.91339311490909" lon="0.5286625343290781"><ele>104.66666666666666</ele><time>2026-04-26T13:51:24Z</time></trkpt><trkpt lat="40.91336703573937" lon="0.5285782431241861"><ele>106.0</ele><time>2026-04-26T13:51:27Z</time></trkpt><trkpt lat="40.91332665262548" lon="0.5284773336645747"><ele>107.33333333333333</ele><time>2026-04-26T13:51:30Z</time></trkpt><trkpt lat="40.91330502078045" lon="0.528340583401693"><ele>108.66666666666666</ele><time>2026-04-26T13:51:33Z</time></trkpt><trkpt lat="40.913286065604446" lon="0.5282500446140465"><ele>110.0</ele><time>2026-04-26T13:51:35Z</time></trkpt><trkpt lat="40.91323959090539" lon="0.5281606136357081"><ele>109.99999999999999</ele><time>2026-04-26T13:51:37Z</time></trkpt><trkpt lat="40.9131874953573" lon="0.5280762650454203"><ele>110.0</ele><time>2026-04-26T13:51:39Z</time></trkpt><trkpt lat="40.91316773545097" lon="0.5279855345901358"><ele>110.0</ele><time>2026-04-26T13:51:41Z</time></trkpt><trkpt lat="40.913154346665664" lon="0.5278853875050556"><ele>110.0</ele><time>2026-04-26T13:51:43Z</time></trkpt><trkpt lat="40.913150708766175" lon="0.5277876688250714"><ele>109.99999999999999</ele><time>2026-04-26T13:51:45Z</time></trkpt><trkpt lat="40.91317933837872" lon="0.5276688883488033"><ele>110.0</ele><time>2026-04-26T13:51:47Z</time></trkpt><trkpt lat="40.913200552527734" lon="0.5275609078653133"><ele>109.2</ele><time>2026-04-26T13:51:48Z</time></trkpt><trkpt lat="40.91322324385473" lon="0.5274263552108671"><ele>108.4</ele><time>2026-04-26T13:51:50Z</time></trkpt><trkpt lat="40.91322131886934" lon="0.5272613195520308"><ele>107.6</ele><time>2026-04-26T13:51:52Z</time></trkpt><trkpt lat="40.91321728304863" lon="0.527159401446207"><ele>106.8</ele><time>2026-04-26T13:51:54Z</time></trkpt><trkpt lat="40.91321227843848" lon="0.5270544909170242"><ele>106.0</ele><time>2026-04-26T13:51:56Z</time></trkpt><trkpt lat="40.9132169970318" lon="0.5269507244856109"><ele>105.83333333333334</ele><time>2026-04-26T13:51:58Z</time></trkpt><trkpt lat="40.91321818278838" lon="0.5268265502950543"><ele>105.66666666666667</ele><time>2026-04-26T13:52:00Z</time></trkpt><trkpt lat="40.913240193903775" lon="0.5267199893093399"><ele>105.5</ele><time>2026-04-26T13:52:02Z</time></trkpt><trkpt lat="40.913265161097655" lon="0.5266104097850568"><ele>105.33333333333334</ele><time>2026-04-26T13:52:05Z</time></trkpt><trkpt lat="40.91330208209153" lon="0.5265395858585419"><ele>105.16666666666667</ele><time>2026-04-26T13:52:07Z</time></trkpt><trkpt lat="40.91334564647648" lon="0.5264686502928084"><ele>105.0</ele><time>2026-04-26T13:52:09Z</time></trkpt><trkpt lat="40.91339285436303" lon="0.5263591731007132"><ele>106.0</ele><time>2026-04-26T13:52:11Z</time></trkpt><trkpt lat="40.913412989652194" lon="0.5262518432523307"><ele>107.0</ele><time>2026-04-26T13:52:13Z</time></trkpt><trkpt lat="40.913369352240544" lon="0.5261223030084055"><ele>108.0</ele><time>2026-04-26T13:52:16Z</time></trkpt><trkpt lat="40.91328927232075" lon="0.526100844168656"><ele>109.0</ele><time>2026-04-26T13:52:20Z</time></trkpt><trkpt lat="40.913238021049835" lon="0.5260352438769923"><ele>110.0</ele><time>2026-04-26T13:52:24Z</time></trkpt><trkpt lat="40.91320217827236" lon="0.5259622861203196"><ele>111.0</ele><time>2026-04-26T13:52:26Z</time></trkpt><trkpt lat="40.91310986526584" lon="0.5258977721592936"><ele>111.0</ele><time>2026-04-26T13:52:28Z</time></trkpt><trkpt lat="40.91305031550607" lon="0.5258324422286214"><ele>111.0</ele><time>2026-04-26T13:52:30Z</time></trkpt><trkpt lat="40.913003455982334" lon="0.525761645092078"><ele>111.0</ele><time>2026-04-26T13:52:32Z</time></trkpt><trkpt lat="40.91296588247583" lon="0.5256807358365115"><ele>111.0</ele><time>2026-04-26T13:52:34.999Z</time></trkpt><trkpt lat="40.91293087975944" lon="0.5255533505118477"><ele>111.0</ele><time>2026-04-26T13:52:37.999Z</time></trkpt><trkpt lat="40.91289761380511" lon="0.5254555185983307"><ele>111.0</ele><time>2026-04-26T13:52:39.999Z</time></trkpt><trkpt lat="40.912848142119095" lon="0.525389697726955"><ele>111.0</ele><time>2026-04-26T13:52:41.999Z</time></trkpt><trkpt lat="40.912781659469694" lon="0.5253660849076374"><ele>111.0</ele><time>2026-04-26T13:52:43.999Z</time></trkpt><trkpt lat="40.91271593068354" lon="0.525318084336416"><ele>111.0</ele><time>2026-04-26T13:52:46Z</time></trkpt><trkpt lat="40.912673450170594" lon="0.5252495353353146"><ele>111.0</ele><time>2026-04-26T13:52:48Z</time></trkpt><trkpt lat="40.912598496842165" lon="0.5251389663994892"><ele>111.0</ele><time>2026-04-26T13:52:50Z</time></trkpt><trkpt lat="40.91252738005545" lon="0.5250217550312107"><ele>111.0</ele><time>2026-04-26T13:52:52Z</time></trkpt><trkpt lat="40.9124785465212" lon="0.5249415055541372"><ele>111.33333333333333</ele><time>2026-04-26T13:52:53Z</time></trkpt><trkpt lat="40.912433204196" lon="0.5248612323850871"><ele>111.66666666666666</ele><time>2026-04-26T13:52:54Z</time></trkpt><trkpt lat="40.91236848113082" lon="0.5247591667179405"><ele>112.0</ele><time>2026-04-26T13:52:56Z</time></trkpt><trkpt lat="40.912299558596175" lon="0.5246980058778168"><ele>112.33333333333333</ele><time>2026-04-26T13:52:58Z</time></trkpt><trkpt lat="40.91220264452774" lon="0.5246377233268701"><ele>112.66666666666666</ele><time>2026-04-26T13:53:00Z</time></trkpt><trkpt lat="40.912127479841914" lon="0.5246021575250779"><ele>113.0</ele><time>2026-04-26T13:53:01Z</time></trkpt><trkpt lat="40.91204918654315" lon="0.5245735005536453"><ele>112.4</ele><time>2026-04-26T13:53:02Z</time></trkpt><trkpt lat="40.911959934708925" lon="0.524553244193772"><ele>111.80000000000001</ele><time>2026-04-26T13:53:03Z</time></trkpt><trkpt lat="40.9118767216386" lon="0.5245261007621066"><ele>111.2</ele><time>2026-04-26T13:53:04Z</time></trkpt><trkpt lat="40.91177038571196" lon="0.5244986441874637"><ele>110.6</ele><time>2026-04-26T13:53:05Z</time></trkpt><trkpt lat="40.911665848609985" lon="0.524458973142846"><ele>110.0</ele><time>2026-04-26T13:53:06Z</time></trkpt><trkpt lat="40.91157675505896" lon="0.5244318899063605"><ele>110.0</ele><time>2026-04-26T13:53:07Z</time></trkpt><trkpt lat="40.91151134418471" lon="0.5243808952123222"><ele>110.0</ele><time>2026-04-26T13:53:08Z</time></trkpt><trkpt lat="40.91138614069466" lon="0.5243607858322914"><ele>110.0</ele><time>2026-04-26T13:53:10Z</time></trkpt><trkpt lat="40.911289292720625" lon="0.5243798938784596"><ele>110.0</ele><time>2026-04-26T13:53:12Z</time></trkpt><trkpt lat="40.91119363705053" lon="0.5243804282588901"><ele>110.0</ele><time>2026-04-26T13:53:15Z</time></trkpt><trkpt lat="40.9111137355778" lon="0.5243167870309755"><ele>109.99999999999999</ele><time>2026-04-26T13:53:17Z</time></trkpt><trkpt lat="40.91107625110142" lon="0.5241962497252722"><ele>110.0</ele><time>2026-04-26T13:53:19Z</time></trkpt><trkpt lat="40.91101367616855" lon="0.5240789019375743"><ele>110.0</ele><time>2026-04-26T13:53:21Z</time></trkpt><trkpt lat="40.910976324561325" lon="0.5240111883636455"><ele>110.0</ele><time>2026-04-26T13:53:22Z</time></trkpt><trkpt lat="40.91094585027651" lon="0.5239366839541817"><ele>109.99999999999999</ele><time>2026-04-26T13:53:23Z</time></trkpt><trkpt lat="40.91091364891243" lon="0.5238521405189733"><ele>110.0</ele><time>2026-04-26T13:53:24Z</time></trkpt><trkpt lat="40.91083761530415" lon="0.5237272395027807"><ele>109.4</ele><time>2026-04-26T13:53:26Z</time></trkpt><trkpt lat="40.91074254773477" lon="0.5236506864567522"><ele>108.8</ele><time>2026-04-26T13:53:28Z</time></trkpt><trkpt lat="40.91065546491985" lon="0.523561603117874"><ele>108.19999999999999</ele><time>2026-04-26T13:53:30Z</time></trkpt><trkpt lat="40.910621055521986" lon="0.5234873574436013"><ele>107.6</ele><time>2026-04-26T13:53:31Z</time></trkpt><trkpt lat="40.910520557311116" lon="0.523439920273617"><ele>107.0</ele><time>2026-04-26T13:53:33Z</time></trkpt><trkpt lat="40.910455549701396" lon="0.5234307523932319"><ele>107.0</ele><time>2026-04-26T13:53:34Z</time></trkpt><trkpt lat="40.91034800682128" lon="0.5234161764433758"><ele>106.99999999999999</ele><time>2026-04-26T13:53:36Z</time></trkpt><trkpt lat="40.91024582407116" lon="0.5234255377409436"><ele>106.99999999999999</ele><time>2026-04-26T13:53:38Z</time></trkpt><trkpt lat="40.91015676888507" lon="0.5234252495733762"><ele>107.0</ele><time>2026-04-26T13:53:42Z</time></trkpt><trkpt lat="40.91008982105412" lon="0.5233262861274929"><ele>107.0</ele><time>2026-04-26T13:53:45Z</time></trkpt><trkpt lat="40.910086675675565" lon="0.5232147138493628"><ele>106.66666666666666</ele><time>2026-04-26T13:53:46Z</time></trkpt><trkpt lat="40.910073385082285" lon="0.5230850960736998"><ele>106.33333333333333</ele><time>2026-04-26T13:53:47Z</time></trkpt><trkpt lat="40.910061596217254" lon="0.5229636618978338"><ele>106.0</ele><time>2026-04-26T13:53:48Z</time></trkpt><trkpt lat="40.91004959340475" lon="0.5228622682739255"><ele>105.66666666666666</ele><time>2026-04-26T13:53:49Z</time></trkpt><trkpt lat="40.91003053394764" lon="0.5227630139305475"><ele>105.33333333333333</ele><time>2026-04-26T13:53:50Z</time></trkpt><trkpt lat="40.91001607831966" lon="0.5226396930689824"><ele>105.0</ele><time>2026-04-26T13:53:51Z</time></trkpt><trkpt lat="40.91002163003524" lon="0.5225231622385238"><ele>104.5</ele><time>2026-04-26T13:53:52Z</time></trkpt><trkpt lat="40.910042401458725" lon="0.5224011290782158"><ele>104.0</ele><time>2026-04-26T13:53:53Z</time></trkpt><trkpt lat="40.91006878655104" lon="0.5222975433154687"><ele>103.5</ele><time>2026-04-26T13:53:54Z</time></trkpt><trkpt lat="40.91007991811643" lon="0.5222126535315252"><ele>103.0</ele><time>2026-04-26T13:53:55Z</time></trkpt><trkpt lat="40.91008060561863" lon="0.5221187417206178"><ele>102.5</ele><time>2026-04-26T13:53:56Z</time></trkpt><trkpt lat="40.910070705876876" lon="0.522033432781328"><ele>102.0</ele><time>2026-04-26T13:53:57Z</time></trkpt><trkpt lat="40.91010981944059" lon="0.521889290327747"><ele>101.33333333333333</ele><time>2026-04-26T13:53:59Z</time></trkpt><trkpt lat="40.910119539013635" lon="0.521760098255133"><ele>100.66666666666666</ele><time>2026-04-26T13:54:01Z</time></trkpt><trkpt lat="40.910059140965764" lon="0.5216392528917297"><ele>100.0</ele><time>2026-04-26T13:54:03Z</time></trkpt><trkpt lat="40.910008148688085" lon="0.5215595744084743"><ele>99.33333333333333</ele><time>2026-04-26T13:54:04Z</time></trkpt><trkpt lat="40.9099608644614" lon="0.5214992388549775"><ele>98.66666666666666</ele><time>2026-04-26T13:54:05Z</time></trkpt><trkpt lat="40.90993541020117" lon="0.5214058302909592"><ele>98.0</ele><time>2026-04-26T13:54:06Z</time></trkpt><trkpt lat="40.909918423641116" lon="0.5212699993907676"><ele>97.16666666666666</ele><time>2026-04-26T13:54:07Z</time></trkpt><trkpt lat="40.90990987968403" lon="0.5211475763194007"><ele>96.33333333333333</ele><time>2026-04-26T13:54:08Z</time></trkpt><trkpt lat="40.90991160809131" lon="0.5210357875807365"><ele>95.5</ele><time>2026-04-26T13:54:09Z</time></trkpt><trkpt lat="40.909906680472226" lon="0.5209258800945347"><ele>94.66666666666666</ele><time>2026-04-26T13:54:10Z</time></trkpt><trkpt lat="40.90989528637841" lon="0.5208107454217393"><ele>93.83333333333333</ele><time>2026-04-26T13:54:11Z</time></trkpt><trkpt lat="40.90987604294432" lon="0.5206993714162163"><ele>93.0</ele><time>2026-04-26T13:54:12Z</time></trkpt><trkpt lat="40.909850828178925" lon="0.5206042545337858"><ele>93.0</ele><time>2026-04-26T13:54:13Z</time></trkpt><trkpt lat="40.90981473964322" lon="0.5204854940109969"><ele>93.0</ele><time>2026-04-26T13:54:14Z</time></trkpt><trkpt lat="40.90977468168396" lon="0.5203685956649501"><ele>93.0</ele><time>2026-04-26T13:54:15Z</time></trkpt><trkpt lat="40.90973565989147" lon="0.5202639717353633"><ele>93.0</ele><time>2026-04-26T13:54:16Z</time></trkpt><trkpt lat="40.90970207298486" lon="0.5201598551617975"><ele>93.0</ele><time>2026-04-26T13:54:17Z</time></trkpt><trkpt lat="40.90966614011277" lon="0.5200444803561209"><ele>92.5</ele><time>2026-04-26T13:54:18Z</time></trkpt><trkpt lat="40.90963414359198" lon="0.5199316131258228"><ele>92.0</ele><time>2026-04-26T13:54:19Z</time></trkpt><trkpt lat="40.909608346724355" lon="0.5198407483006514"><ele>91.5</ele><time>2026-04-26T13:54:20Z</time></trkpt><trkpt lat="40.90958347663182" lon="0.5197533476508998"><ele>91.0</ele><time>2026-04-26T13:54:21Z</time></trkpt><trkpt lat="40.90955972133679" lon="0.5196544509614612"><ele>90.5</ele><time>2026-04-26T13:54:22Z</time></trkpt><trkpt lat="40.90953307449" lon="0.5195137089699157"><ele>90.0</ele><time>2026-04-26T13:54:23Z</time></trkpt><trkpt lat="40.90948952440095" lon="0.5193554816985713"><ele>89.2</ele><time>2026-04-26T13:54:24Z</time></trkpt><trkpt lat="40.90944390265283" lon="0.5192161562480976"><ele>88.4</ele><time>2026-04-26T13:54:25Z</time></trkpt><trkpt lat="40.90940314428521" lon="0.5190964753024622"><ele>87.6</ele><time>2026-04-26T13:54:26Z</time></trkpt><trkpt lat="40.909371435446225" lon="0.5189867968879891"><ele>86.8</ele><time>2026-04-26T13:54:27Z</time></trkpt><trkpt lat="40.90934582251008" lon="0.518892730190936"><ele>86.0</ele><time>2026-04-26T13:54:28Z</time></trkpt><trkpt lat="40.90934345924162" lon="0.518751703111229"><ele>85.19999999999999</ele><time>2026-04-26T13:54:30Z</time></trkpt><trkpt lat="40.90937030844518" lon="0.5186079133422293"><ele>84.39999999999999</ele><time>2026-04-26T13:54:31.999Z</time></trkpt><trkpt lat="40.90937753053713" lon="0.518447479653916"><ele>83.6</ele><time>2026-04-26T13:54:33.999Z</time></trkpt><trkpt lat="40.909373886092865" lon="0.518332213064472"><ele>82.8</ele><time>2026-04-26T13:54:34.999Z</time></trkpt><trkpt lat="40.90936369315141" lon="0.5181937983646637"><ele>82.0</ele><time>2026-04-26T13:54:35.999Z</time></trkpt><trkpt lat="40.90933538232717" lon="0.518039101349981"><ele>82.0</ele><time>2026-04-26T13:54:36.999Z</time></trkpt><trkpt lat="40.90930650407608" lon="0.5179102254966255"><ele>82.0</ele><time>2026-04-26T13:54:37.999Z</time></trkpt><trkpt lat="40.90928618002885" lon="0.5178108344887806"><ele>82.0</ele><time>2026-04-26T13:54:38.999Z</time></trkpt><trkpt lat="40.9092766524813" lon="0.5177177845983366"><ele>82.0</ele><time>2026-04-26T13:54:39.999Z</time></trkpt><trkpt lat="40.90926975067002" lon="0.5175909580207063"><ele>82.0</ele><time>2026-04-26T13:54:41.999Z</time></trkpt><trkpt lat="40.90924004801632" lon="0.5174912984560914"><ele>82.0</ele><time>2026-04-26T13:54:43.999Z</time></trkpt><trkpt lat="40.909153913308025" lon="0.5174879124924711"><ele>81.39999999999999</ele><time>2026-04-26T13:54:45.999Z</time></trkpt><trkpt lat="40.90908558491893" lon="0.5175881066338422"><ele>80.8</ele><time>2026-04-26T13:54:47.999Z</time></trkpt><trkpt lat="40.90906047715164" lon="0.5177525394098127"><ele>80.2</ele><time>2026-04-26T13:54:49.999Z</time></trkpt><trkpt lat="40.90905334265305" lon="0.5178744572799405"><ele>79.6</ele><time>2026-04-26T13:54:50.999Z</time></trkpt><trkpt lat="40.909052458424874" lon="0.5180226624740314"><ele>79.0</ele><time>2026-04-26T13:54:52Z</time></trkpt><trkpt lat="40.90906699145122" lon="0.5181631305896232"><ele>79.0</ele><time>2026-04-26T13:54:53Z</time></trkpt><trkpt lat="40.909068989571146" lon="0.5182872079331676"><ele>79.0</ele><time>2026-04-26T13:54:54Z</time></trkpt><trkpt lat="40.90905199917507" lon="0.518397460946365"><ele>79.0</ele><time>2026-04-26T13:54:55Z</time></trkpt><trkpt lat="40.90901864593123" lon="0.5184976910245905"><ele>79.0</ele><time>2026-04-26T13:54:56Z</time></trkpt><trkpt lat="40.90899190999625" lon="0.518581832111172"><ele>79.0</ele><time>2026-04-26T13:54:57Z</time></trkpt><trkpt lat="40.90896676692312" lon="0.5186754082779342"><ele>79.0</ele><time>2026-04-26T13:54:58Z</time></trkpt><trkpt lat="40.9089376737354" lon="0.5187711677131113"><ele>79.0</ele><time>2026-04-26T13:54:59Z</time></trkpt><trkpt lat="40.90890592167685" lon="0.5188720739316461"><ele>79.0</ele><time>2026-04-26T13:55:00Z</time></trkpt><trkpt lat="40.90888774878787" lon="0.5189671553643981"><ele>79.0</ele><time>2026-04-26T13:55:01Z</time></trkpt><trkpt lat="40.908876844220885" lon="0.5190510267547205"><ele>79.0</ele><time>2026-04-26T13:55:02Z</time></trkpt><trkpt lat="40.90884649060766" lon="0.5191906644451274"><ele>79.0</ele><time>2026-04-26T13:55:04Z</time></trkpt><trkpt lat="40.90881634579037" lon="0.5192854475643619"><ele>79.0</ele><time>2026-04-26T13:55:06Z</time></trkpt><trkpt lat="40.90872569717294" lon="0.5193742673658989"><ele>79.0</ele><time>2026-04-26T13:55:08Z</time></trkpt><trkpt lat="40.9086601734492" lon="0.5194871513914929"><ele>79.0</ele><time>2026-04-26T13:55:10Z</time></trkpt><trkpt lat="40.908618331691635" lon="0.5196577888339375"><ele>79.0</ele><time>2026-04-26T13:55:12Z</time></trkpt><trkpt lat="40.90861429314805" lon="0.5198017261956613"><ele>79.0</ele><time>2026-04-26T13:55:13Z</time></trkpt><trkpt lat="40.90861152574732" lon="0.5199263267354244"><ele>79.0</ele><time>2026-04-26T13:55:14Z</time></trkpt><trkpt lat="40.908600774488285" lon="0.5200306303672553"><ele>79.0</ele><time>2026-04-26T13:55:15Z</time></trkpt><trkpt lat="40.908586896717544" lon="0.520125845686136"><ele>79.0</ele><time>2026-04-26T13:55:16Z</time></trkpt><trkpt lat="40.90858571210373" lon="0.5202097221573936"><ele>79.0</ele><time>2026-04-26T13:55:17Z</time></trkpt><trkpt lat="40.90865335620604" lon="0.5203520995735763"><ele>79.0</ele><time>2026-04-26T13:55:19Z</time></trkpt><trkpt lat="40.90869843589911" lon="0.5204137140381658"><ele>79.0</ele><time>2026-04-26T13:55:20Z</time></trkpt><trkpt lat="40.908740005895666" lon="0.5204863331084916"><ele>79.0</ele><time>2026-04-26T13:55:21Z</time></trkpt><trkpt lat="40.908790041162526" lon="0.5206090921647106"><ele>79.0</ele><time>2026-04-26T13:55:23Z</time></trkpt><trkpt lat="40.90877717756618" lon="0.5207594637268379"><ele>79.0</ele><time>2026-04-26T13:55:25Z</time></trkpt><trkpt lat="40.90873215366426" lon="0.5208845644119487"><ele>79.0</ele><time>2026-04-26T13:55:27Z</time></trkpt><trkpt lat="40.908680265819534" lon="0.5209344329247464"><ele>79.0</ele><time>2026-04-26T13:55:28Z</time></trkpt><trkpt lat="40.908590438817804" lon="0.5209903944770569"><ele>79.0</ele><time>2026-04-26T13:55:29Z</time></trkpt><trkpt lat="40.908511504218325" lon="0.5210343781235892"><ele>79.0</ele><time>2026-04-26T13:55:30Z</time></trkpt><trkpt lat="40.90845009065952" lon="0.5210772353362259"><ele>79.0</ele><time>2026-04-26T13:55:31Z</time></trkpt><trkpt lat="40.908404249947836" lon="0.5211360339705416"><ele>79.0</ele><time>2026-04-26T13:55:32Z</time></trkpt><trkpt lat="40.90836856722765" lon="0.5212700845897104"><ele>79.0</ele><time>2026-04-26T13:55:34Z</time></trkpt><trkpt lat="40.90836445923388" lon="0.5214014354634013"><ele>79.0</ele><time>2026-04-26T13:55:36Z</time></trkpt><trkpt lat="40.90842447845805" lon="0.521508054443034"><ele>79.0</ele><time>2026-04-26T13:55:38Z</time></trkpt><trkpt lat="40.90843532896309" lon="0.5216238867818438"><ele>77.8</ele><time>2026-04-26T13:55:40Z</time></trkpt><trkpt lat="40.90838238734301" lon="0.5217325335699297"><ele>76.60000000000001</ele><time>2026-04-26T13:55:42Z</time></trkpt><trkpt lat="40.90831939207532" lon="0.5217700085500997"><ele>75.4</ele><time>2026-04-26T13:55:43Z</time></trkpt><trkpt lat="40.90820734250524" lon="0.5217442990417054"><ele>74.2</ele><time>2026-04-26T13:55:45Z</time></trkpt><trkpt lat="40.90811880393483" lon="0.521692239173238"><ele>73.0</ele><time>2026-04-26T13:55:47Z</time></trkpt><trkpt lat="40.9080091801419" lon="0.5217382076697683"><ele>73.0</ele><time>2026-04-26T13:55:49Z</time></trkpt><trkpt lat="40.90796290341963" lon="0.5218213635652359"><ele>73.0</ele><time>2026-04-26T13:55:50Z</time></trkpt><trkpt lat="40.90789534211335" lon="0.521921585771432"><ele>73.0</ele><time>2026-04-26T13:55:51Z</time></trkpt><trkpt lat="40.90783570286362" lon="0.5219825663993714"><ele>73.0</ele><time>2026-04-26T13:55:52Z</time></trkpt><trkpt lat="40.90775939641461" lon="0.5220307847985839"><ele>73.0</ele><time>2026-04-26T13:55:53Z</time></trkpt><trkpt lat="40.90769343338092" lon="0.5220536216553661"><ele>73.0</ele><time>2026-04-26T13:55:54Z</time></trkpt><trkpt lat="40.90762216249781" lon="0.5220769932120967"><ele>74.75</ele><time>2026-04-26T13:55:55Z</time></trkpt><trkpt lat="40.90754820718239" lon="0.5221447342010033"><ele>76.5</ele><time>2026-04-26T13:55:56Z</time></trkpt><trkpt lat="40.90744697508938" lon="0.5222397997556762"><ele>78.25</ele><time>2026-04-26T13:55:57Z</time></trkpt><trkpt lat="40.907335789499804" lon="0.5223566887997635"><ele>80.0</ele><time>2026-04-26T13:55:58Z</time></trkpt><trkpt lat="40.907239172402114" lon="0.522446466986082"><ele>80.0</ele><time>2026-04-26T13:55:59Z</time></trkpt><trkpt lat="40.907148480372754" lon="0.5225127135381659"><ele>80.0</ele><time>2026-04-26T13:56:00Z</time></trkpt><trkpt lat="40.90707998214286" lon="0.5225610523948087"><ele>80.0</ele><time>2026-04-26T13:56:01Z</time></trkpt><trkpt lat="40.90698432088701" lon="0.5226328765346193"><ele>80.0</ele><time>2026-04-26T13:56:03Z</time></trkpt><trkpt lat="40.906925292851035" lon="0.5227027153619456"><ele>80.0</ele><time>2026-04-26T13:56:05Z</time></trkpt><trkpt lat="40.90687585525922" lon="0.5228241292746738"><ele>80.75</ele><time>2026-04-26T13:56:07Z</time></trkpt><trkpt lat="40.906845767825274" lon="0.5229801402664318"><ele>81.5</ele><time>2026-04-26T13:56:09Z</time></trkpt><trkpt lat="40.906815585608385" lon="0.5231353967181229"><ele>82.25</ele><time>2026-04-26T13:56:11Z</time></trkpt><trkpt lat="40.90674370462604" lon="0.5232582759789554"><ele>83.0</ele><time>2026-04-26T13:56:13Z</time></trkpt><trkpt lat="40.90664637437221" lon="0.523341360920825"><ele>82.14285714285714</ele><time>2026-04-26T13:56:15Z</time></trkpt><trkpt lat="40.906608186023426" lon="0.523410071844314"><ele>81.28571428571429</ele><time>2026-04-26T13:56:16Z</time></trkpt><trkpt lat="40.90656824234968" lon="0.5234843601238561"><ele>80.42857142857143</ele><time>2026-04-26T13:56:17Z</time></trkpt><trkpt lat="40.90653533078036" lon="0.5235674412158565"><ele>79.57142857142857</ele><time>2026-04-26T13:56:18Z</time></trkpt><trkpt lat="40.90650467225958" lon="0.523668612050072"><ele>78.71428571428572</ele><time>2026-04-26T13:56:19Z</time></trkpt><trkpt lat="40.90649043197037" lon="0.5237729616346988"><ele>77.85714285714286</ele><time>2026-04-26T13:56:20Z</time></trkpt><trkpt lat="40.906482181418035" lon="0.5238799795410791"><ele>77.0</ele><time>2026-04-26T13:56:21Z</time></trkpt><trkpt lat="40.90646923090351" lon="0.5239765290988884"><ele>77.0</ele><time>2026-04-26T13:56:22Z</time></trkpt><trkpt lat="40.9064553034802" lon="0.5240796130548624"><ele>77.0</ele><time>2026-04-26T13:56:23Z</time></trkpt><trkpt lat="40.906440529189915" lon="0.5241829867202362"><ele>77.0</ele><time>2026-04-26T13:56:24Z</time></trkpt><trkpt lat="40.90642055160983" lon="0.5242867972305413"><ele>77.0</ele><time>2026-04-26T13:56:25Z</time></trkpt><trkpt lat="40.90638319398615" lon="0.5243768910220469"><ele>77.0</ele><time>2026-04-26T13:56:26Z</time></trkpt><trkpt lat="40.90634131293077" lon="0.5244595257442224"><ele>77.0</ele><time>2026-04-26T13:56:27Z</time></trkpt><trkpt lat="40.90629644389706" lon="0.5245385487173708"><ele>78.0</ele><time>2026-04-26T13:56:28Z</time></trkpt><trkpt lat="40.90622873274558" lon="0.5246370962179403"><ele>79.0</ele><time>2026-04-26T13:56:29Z</time></trkpt><trkpt lat="40.906161517268444" lon="0.5247433447876396"><ele>80.0</ele><time>2026-04-26T13:56:30Z</time></trkpt><trkpt lat="40.906097418463446" lon="0.5248349685217224"><ele>81.0</ele><time>2026-04-26T13:56:31Z</time></trkpt><trkpt lat="40.9060311488337" lon="0.5249070860605065"><ele>82.0</ele><time>2026-04-26T13:56:32Z</time></trkpt><trkpt lat="40.90596909129682" lon="0.5249863532701784"><ele>77.5</ele><time>2026-04-26T13:56:33Z</time></trkpt><trkpt lat="40.90590399491682" lon="0.5250635418825678"><ele>73.0</ele><time>2026-04-26T13:56:34Z</time></trkpt><trkpt lat="40.905843432861985" lon="0.5251380216194899"><ele>68.5</ele><time>2026-04-26T13:56:35Z</time></trkpt><trkpt lat="40.905784871668644" lon="0.5252152933882668"><ele>64.0</ele><time>2026-04-26T13:56:36Z</time></trkpt><trkpt lat="40.905721522214826" lon="0.5252892485099333"><ele>59.49999999999999</ele><time>2026-04-26T13:56:37Z</time></trkpt><trkpt lat="40.90566333458804" lon="0.5253507462549374"><ele>55.0</ele><time>2026-04-26T13:56:38Z</time></trkpt><trkpt lat="40.90561321827121" lon="0.5254079425858484"><ele>54.49999999999999</ele><time>2026-04-26T13:56:39Z</time></trkpt><trkpt lat="40.90555164090254" lon="0.5254628902071014"><ele>54.0</ele><time>2026-04-26T13:56:40Z</time></trkpt><trkpt lat="40.90549796679591" lon="0.5255067164930582"><ele>53.5</ele><time>2026-04-26T13:56:41Z</time></trkpt><trkpt lat="40.90541543761327" lon="0.5255189896892994"><ele>53.0</ele><time>2026-04-26T13:56:42Z</time></trkpt><trkpt lat="40.90534551982505" lon="0.5255482408907324"><ele>52.49999999999999</ele><time>2026-04-26T13:56:42.999Z</time></trkpt><trkpt lat="40.90527414225031" lon="0.5255831585117898"><ele>52.0</ele><time>2026-04-26T13:56:43.999Z</time></trkpt><trkpt lat="40.90517822885137" lon="0.5255952599245135"><ele>51.99999999999999</ele><time>2026-04-26T13:56:44.999Z</time></trkpt><trkpt lat="40.90509139243937" lon="0.5256086468867236"><ele>52.0</ele><time>2026-04-26T13:56:45.999Z</time></trkpt><trkpt lat="40.90499640584905" lon="0.525610858532959"><ele>52.0</ele><time>2026-04-26T13:56:46.999Z</time></trkpt><trkpt lat="40.904923834541144" lon="0.5256085924541117"><ele>52.0</ele><time>2026-04-26T13:56:47.999Z</time></trkpt><trkpt lat="40.90483827353177" lon="0.5256057997393524"><ele>51.99999999999999</ele><time>2026-04-26T13:56:48.999Z</time></trkpt><trkpt lat="40.90476561142032" lon="0.5255915138171682"><ele>52.0</ele><time>2026-04-26T13:56:49.999Z</time></trkpt><trkpt lat="40.90470216501588" lon="0.5255542371002766"><ele>50.49999999999999</ele><time>2026-04-26T13:56:50.999Z</time></trkpt><trkpt lat="40.90461909268938" lon="0.525502083527671"><ele>49.0</ele><time>2026-04-26T13:56:52.999Z</time></trkpt><trkpt lat="40.904519813938016" lon="0.5255140652406094"><ele>47.5</ele><time>2026-04-26T13:56:54.999Z</time></trkpt><trkpt lat="40.90441136782736" lon="0.5255849036802163"><ele>46.0</ele><time>2026-04-26T13:56:56.999Z</time></trkpt><trkpt lat="40.90435140409164" lon="0.5256358187893941"><ele>44.5</ele><time>2026-04-26T13:56:58Z</time></trkpt><trkpt lat="40.90431623647098" lon="0.5257057108502348"><ele>43.0</ele><time>2026-04-26T13:56:59Z</time></trkpt><trkpt lat="40.904279251131264" lon="0.5257932033171469"><ele>40.4</ele><time>2026-04-26T13:57:00Z</time></trkpt><trkpt lat="40.90421709394405" lon="0.5258928150574879"><ele>37.8</ele><time>2026-04-26T13:57:02Z</time></trkpt><trkpt lat="40.904133276432646" lon="0.525922625513368"><ele>35.2</ele><time>2026-04-26T13:57:04Z</time></trkpt><trkpt lat="40.90405882186699" lon="0.5259110068752393"><ele>32.6</ele><time>2026-04-26T13:57:05Z</time></trkpt><trkpt lat="40.90393536432862" lon="0.5258970631286655"><ele>30.0</ele><time>2026-04-26T13:57:07Z</time></trkpt><trkpt lat="40.90382720023637" lon="0.5259007038488879"><ele>30.0</ele><time>2026-04-26T13:57:09Z</time></trkpt><trkpt lat="40.903758495382206" lon="0.5258902965886683"><ele>30.0</ele><time>2026-04-26T13:57:11Z</time></trkpt><trkpt lat="40.90368143581668" lon="0.5258319819466236"><ele>30.0</ele><time>2026-04-26T13:57:13Z</time></trkpt><trkpt lat="40.903628352791785" lon="0.5257622361787364"><ele>30.0</ele><time>2026-04-26T13:57:15Z</time></trkpt><trkpt lat="40.90361459896726" lon="0.5256226037685312"><ele>30.0</ele><time>2026-04-26T13:57:17Z</time></trkpt><trkpt lat="40.90361898047704" lon="0.5255182496502904"><ele>30.0</ele><time>2026-04-26T13:57:18Z</time></trkpt><trkpt lat="40.90364460060654" lon="0.5254046710029275"><ele>29.2</ele><time>2026-04-26T13:57:19Z</time></trkpt><trkpt lat="40.90368673165263" lon="0.5252585599001591"><ele>28.4</ele><time>2026-04-26T13:57:20Z</time></trkpt><trkpt lat="40.90373787574368" lon="0.5251027691982103"><ele>27.6</ele><time>2026-04-26T13:57:21Z</time></trkpt><trkpt lat="40.9037925122467" lon="0.5249941786442034"><ele>26.8</ele><time>2026-04-26T13:57:22Z</time></trkpt><trkpt lat="40.90385114235887" lon="0.5249288202217919"><ele>26.0</ele><time>2026-04-26T13:57:23Z</time></trkpt><trkpt lat="40.90391034602176" lon="0.5248881529868653"><ele>26.0</ele><time>2026-04-26T13:57:24Z</time></trkpt><trkpt lat="40.90399578288924" lon="0.5248197111535341"><ele>26.0</ele><time>2026-04-26T13:57:26Z</time></trkpt><trkpt lat="40.90403075423025" lon="0.5246950655332219"><ele>26.0</ele><time>2026-04-26T13:57:28Z</time></trkpt><trkpt lat="40.90402307745368" lon="0.5246034261290818"><ele>26.0</ele><time>2026-04-26T13:57:29Z</time></trkpt><trkpt lat="40.90402739332573" lon="0.5244588870116748"><ele>26.0</ele><time>2026-04-26T13:57:30Z</time></trkpt><trkpt lat="40.90404095658465" lon="0.5243423402450286"><ele>25.4</ele><time>2026-04-26T13:57:31Z</time></trkpt><trkpt lat="40.90406498427323" lon="0.5242222366944805"><ele>24.8</ele><time>2026-04-26T13:57:32Z</time></trkpt><trkpt lat="40.90409605799237" lon="0.5240767338358242"><ele>24.2</ele><time>2026-04-26T13:57:33Z</time></trkpt><trkpt lat="40.90411757161101" lon="0.5239580017010945"><ele>23.599999999999998</ele><time>2026-04-26T13:57:34Z</time></trkpt><trkpt lat="40.904140978804655" lon="0.5238387384331364"><ele>23.0</ele><time>2026-04-26T13:57:35Z</time></trkpt><trkpt lat="40.904169408370876" lon="0.5237467394052316"><ele>23.166666666666668</ele><time>2026-04-26T13:57:36Z</time></trkpt><trkpt lat="40.904179843977694" lon="0.5236508621500658"><ele>23.333333333333336</ele><time>2026-04-26T13:57:37Z</time></trkpt><trkpt lat="40.90420283599534" lon="0.5235395123400753"><ele>23.5</ele><time>2026-04-26T13:57:38Z</time></trkpt><trkpt lat="40.90419340549284" lon="0.523450177216142"><ele>23.666666666666668</ele><time>2026-04-26T13:57:40Z</time></trkpt><trkpt lat="40.90414430176247" lon="0.5233814259714251"><ele>23.833333333333332</ele><time>2026-04-26T13:57:43Z</time></trkpt><trkpt lat="40.904052699642044" lon="0.52340058936071"><ele>24.0</ele><time>2026-04-26T13:57:45Z</time></trkpt><trkpt lat="40.90396417803998" lon="0.5234683893650306"><ele>24.0</ele><time>2026-04-26T13:57:46Z</time></trkpt><trkpt lat="40.90385975320706" lon="0.5235476541437917"><ele>24.0</ele><time>2026-04-26T13:57:47Z</time></trkpt><trkpt lat="40.90376448229058" lon="0.52364115495452"><ele>24.0</ele><time>2026-04-26T13:57:48Z</time></trkpt><trkpt lat="40.90365436754934" lon="0.5237371181158869"><ele>24.0</ele><time>2026-04-26T13:57:49Z</time></trkpt><trkpt lat="40.90355351294723" lon="0.5238266435048801"><ele>24.0</ele><time>2026-04-26T13:57:50Z</time></trkpt><trkpt lat="40.90347323085193" lon="0.5239000106813101"><ele>24.0</ele><time>2026-04-26T13:57:51Z</time></trkpt><trkpt lat="40.90338642539166" lon="0.5239557502315821"><ele>24.0</ele><time>2026-04-26T13:57:52Z</time></trkpt><trkpt lat="40.903313253509374" lon="0.5240112058134163"><ele>24.0</ele><time>2026-04-26T13:57:53Z</time></trkpt><trkpt lat="40.903251870350694" lon="0.5240987931089452"><ele>24.0</ele><time>2026-04-26T13:57:54Z</time></trkpt><trkpt lat="40.90319425367252" lon="0.5242193194507252"><ele>24.0</ele><time>2026-04-26T13:57:55Z</time></trkpt><trkpt lat="40.90313463214409" lon="0.5243642348014719"><ele>24.0</ele><time>2026-04-26T13:57:56Z</time></trkpt><trkpt lat="40.90306752345023" lon="0.5245326503336947"><ele>24.0</ele><time>2026-04-26T13:57:57Z</time></trkpt><trkpt lat="40.90299420142519" lon="0.524721878310904"><ele>24.0</ele><time>2026-04-26T13:57:58Z</time></trkpt><trkpt lat="40.90290384421164" lon="0.5249024146440929"><ele>24.5</ele><time>2026-04-26T13:57:59Z</time></trkpt><trkpt lat="40.902815454278326" lon="0.5250805992141229"><ele>25.0</ele><time>2026-04-26T13:58:00Z</time></trkpt><trkpt lat="40.902737630665904" lon="0.5252363720610156"><ele>25.5</ele><time>2026-04-26T13:58:01Z</time></trkpt><trkpt lat="40.90267537960996" lon="0.5253622981668723"><ele>26.0</ele><time>2026-04-26T13:58:02Z</time></trkpt><trkpt lat="40.9026190144342" lon="0.5254704076826373"><ele>25.75</ele><time>2026-04-26T13:58:03Z</time></trkpt><trkpt lat="40.90256963559635" lon="0.5255758181080464"><ele>25.5</ele><time>2026-04-26T13:58:04Z</time></trkpt><trkpt lat="40.90252231448236" lon="0.5257367946149356"><ele>25.25</ele><time>2026-04-26T13:58:05Z</time></trkpt><trkpt lat="40.902474694232936" lon="0.5259190146157493"><ele>25.0</ele><time>2026-04-26T13:58:06Z</time></trkpt><trkpt lat="40.90242557403596" lon="0.5261076267350693"><ele>25.75</ele><time>2026-04-26T13:58:07Z</time></trkpt><trkpt lat="40.902357785701625" lon="0.5263006174619907"><ele>26.5</ele><time>2026-04-26T13:58:08Z</time></trkpt><trkpt lat="40.90229711560557" lon="0.5264863690071139"><ele>27.25</ele><time>2026-04-26T13:58:09Z</time></trkpt><trkpt lat="40.90224865839683" lon="0.5266430190959618"><ele>28.0</ele><time>2026-04-26T13:58:10Z</time></trkpt><trkpt lat="40.902198238790724" lon="0.5267933663356307"><ele>28.0</ele><time>2026-04-26T13:58:11Z</time></trkpt><trkpt lat="40.902153408651195" lon="0.5269319320500212"><ele>27.999999999999996</ele><time>2026-04-26T13:58:12Z</time></trkpt><trkpt lat="40.90213358373112" lon="0.5270572909754577"><ele>27.999999999999996</ele><time>2026-04-26T13:58:13Z</time></trkpt><trkpt lat="40.90210646191255" lon="0.5271815604576479"><ele>28.0</ele><time>2026-04-26T13:58:14Z</time></trkpt><trkpt lat="40.902091581679684" lon="0.5273067177230756"><ele>28.0</ele><time>2026-04-26T13:58:15Z</time></trkpt><trkpt lat="40.902079163766366" lon="0.527433832139292"><ele>30.166666666666668</ele><time>2026-04-26T13:58:16Z</time></trkpt><trkpt lat="40.90205356671479" lon="0.527529603350945"><ele>32.333333333333336</ele><time>2026-04-26T13:58:17Z</time></trkpt><trkpt lat="40.90202383653799" lon="0.527609582799061"><ele>34.5</ele><time>2026-04-26T13:58:18Z</time></trkpt><trkpt lat="40.901982866405056" lon="0.527692260668372"><ele>36.666666666666664</ele><time>2026-04-26T13:58:19Z</time></trkpt><trkpt lat="40.90193091404167" lon="0.5277738181866134"><ele>38.83333333333333</ele><time>2026-04-26T13:58:20Z</time></trkpt><trkpt lat="40.90187678234843" lon="0.5278483498226942"><ele>41.0</ele><time>2026-04-26T13:58:21Z</time></trkpt><trkpt lat="40.90180820636674" lon="0.5279084446613782"><ele>39.199999999999996</ele><time>2026-04-26T13:58:22Z</time></trkpt><trkpt lat="40.901724791255056" lon="0.5280044874164904"><ele>37.4</ele><time>2026-04-26T13:58:23Z</time></trkpt><trkpt lat="40.90164750078928" lon="0.5280930895258308"><ele>35.6</ele><time>2026-04-26T13:58:24Z</time></trkpt><trkpt lat="40.90158492102272" lon="0.5281727723757841"><ele>33.8</ele><time>2026-04-26T13:58:25Z</time></trkpt><trkpt lat="40.90154524804436" lon="0.5282655530412111"><ele>32.0</ele><time>2026-04-26T13:58:26Z</time></trkpt><trkpt lat="40.90149062421949" lon="0.5283696726023118"><ele>32.0</ele><time>2026-04-26T13:58:27Z</time></trkpt><trkpt lat="40.901414891165665" lon="0.5284678177378581"><ele>32.0</ele><time>2026-04-26T13:58:28Z</time></trkpt><trkpt lat="40.90133538041168" lon="0.5285666902933358"><ele>32.0</ele><time>2026-04-26T13:58:29Z</time></trkpt><trkpt lat="40.90125948101159" lon="0.5286498648850193"><ele>32.0</ele><time>2026-04-26T13:58:30Z</time></trkpt><trkpt lat="40.90120453090052" lon="0.5287474578864307"><ele>32.0</ele><time>2026-04-26T13:58:31Z</time></trkpt><trkpt lat="40.9011627903135" lon="0.5288473652360233"><ele>32.2</ele><time>2026-04-26T13:58:32Z</time></trkpt><trkpt lat="40.901113478601886" lon="0.5289335526983853"><ele>32.400000000000006</ele><time>2026-04-26T13:58:33Z</time></trkpt><trkpt lat="40.9010607182677" lon="0.5290051949858374"><ele>32.599999999999994</ele><time>2026-04-26T13:58:34Z</time></trkpt><trkpt lat="40.900985072629894" lon="0.529098711975801"><ele>32.8</ele><time>2026-04-26T13:58:35Z</time></trkpt><trkpt lat="40.90085292806572" lon="0.5291981956797779"><ele>33.0</ele><time>2026-04-26T13:58:36Z</time></trkpt><trkpt lat="40.90076049647591" lon="0.5292930279248571"><ele>33.0</ele><time>2026-04-26T13:58:37Z</time></trkpt><trkpt lat="40.900681392201925" lon="0.5294003235015027"><ele>33.0</ele><time>2026-04-26T13:58:38Z</time></trkpt><trkpt lat="40.900607449718954" lon="0.5295612625536885"><ele>33.0</ele><time>2026-04-26T13:58:39Z</time></trkpt><trkpt lat="40.90052993411109" lon="0.5297205562805191"><ele>33.0</ele><time>2026-04-26T13:58:40Z</time></trkpt><trkpt lat="40.90045152102521" lon="0.5298978976109981"><ele>34.333333333333336</ele><time>2026-04-26T13:58:41Z</time></trkpt><trkpt lat="40.900350323485775" lon="0.5300773534454324"><ele>35.66666666666667</ele><time>2026-04-26T13:58:42Z</time></trkpt><trkpt lat="40.900236122332906" lon="0.5302509949425137"><ele>37.0</ele><time>2026-04-26T13:58:43Z</time></trkpt><trkpt lat="40.900134335979374" lon="0.5304069439848529"><ele>37.0</ele><time>2026-04-26T13:58:44Z</time></trkpt><trkpt lat="40.9000558862447" lon="0.5305556102507754"><ele>37.0</ele><time>2026-04-26T13:58:45Z</time></trkpt><trkpt lat="40.8999760952412" lon="0.5306854639121271"><ele>37.0</ele><time>2026-04-26T13:58:46Z</time></trkpt><trkpt lat="40.89990777696121" lon="0.5307906296340814"><ele>37.0</ele><time>2026-04-26T13:58:47Z</time></trkpt><trkpt lat="40.89985044079367" lon="0.5308936013833256"><ele>37.0</ele><time>2026-04-26T13:58:48Z</time></trkpt><trkpt lat="40.89979637496837" lon="0.5309720086472057"><ele>37.0</ele><time>2026-04-26T13:58:49Z</time></trkpt><trkpt lat="40.89971889570357" lon="0.5310544227754117"><ele>37.0</ele><time>2026-04-26T13:58:50Z</time></trkpt><trkpt lat="40.89962123999358" lon="0.5311668425988569"><ele>37.0</ele><time>2026-04-26T13:58:51Z</time></trkpt><trkpt lat="40.899513333851644" lon="0.5312947696550026"><ele>36.25</ele><time>2026-04-26T13:58:52Z</time></trkpt><trkpt lat="40.899379954531504" lon="0.5314306565270165"><ele>35.5</ele><time>2026-04-26T13:58:53Z</time></trkpt><trkpt lat="40.89926354646485" lon="0.5315388679785881"><ele>34.75</ele><time>2026-04-26T13:58:54Z</time></trkpt><trkpt lat="40.89916185012364" lon="0.5316305399877922"><ele>34.0</ele><time>2026-04-26T13:58:55Z</time></trkpt><trkpt lat="40.89904298248966" lon="0.5317305105099593"><ele>34.0</ele><time>2026-04-26T13:58:56Z</time></trkpt><trkpt lat="40.89888305422735" lon="0.5318479747523911"><ele>34.0</ele><time>2026-04-26T13:58:57Z</time></trkpt><trkpt lat="40.89874403136032" lon="0.5319632210678544"><ele>34.0</ele><time>2026-04-26T13:58:58Z</time></trkpt><trkpt lat="40.89862832883347" lon="0.5320601204775119"><ele>34.8</ele><time>2026-04-26T13:58:59Z</time></trkpt><trkpt lat="40.89853866759881" lon="0.5321315762931156"><ele>35.599999999999994</ele><time>2026-04-26T13:59:00Z</time></trkpt><trkpt lat="40.89844661817429" lon="0.5322010094081195"><ele>36.4</ele><time>2026-04-26T13:59:01Z</time></trkpt><trkpt lat="40.898363058786195" lon="0.5322575127535764"><ele>37.199999999999996</ele><time>2026-04-26T13:59:02Z</time></trkpt><trkpt lat="40.898274766128154" lon="0.5322967510163615"><ele>38.0</ele><time>2026-04-26T13:59:03Z</time></trkpt><trkpt lat="40.89820148267032" lon="0.5323181944339078"><ele>38.0</ele><time>2026-04-26T13:59:04Z</time></trkpt><trkpt lat="40.89809412958171" lon="0.5323517592988964"><ele>38.0</ele><time>2026-04-26T13:59:06Z</time></trkpt><trkpt lat="40.89799291608847" lon="0.5323636664213066"><ele>38.0</ele><time>2026-04-26T13:59:08Z</time></trkpt><trkpt lat="40.89792816867931" lon="0.532348270915843"><ele>38.0</ele><time>2026-04-26T13:59:09Z</time></trkpt><trkpt lat="40.89786308616797" lon="0.5323180484677977"><ele>38.0</ele><time>2026-04-26T13:59:10Z</time></trkpt><trkpt lat="40.89779122492561" lon="0.5322612624881462"><ele>38.0</ele><time>2026-04-26T13:59:11Z</time></trkpt><trkpt lat="40.89772413434021" lon="0.5321868586854712"><ele>38.0</ele><time>2026-04-26T13:59:12Z</time></trkpt><trkpt lat="40.897668975892536" lon="0.5320994600667063"><ele>38.0</ele><time>2026-04-26T13:59:13Z</time></trkpt><trkpt lat="40.897615211768716" lon="0.532021931450977"><ele>38.0</ele><time>2026-04-26T13:59:14Z</time></trkpt><trkpt lat="40.89754675204202" lon="0.5318977017563886"><ele>38.0</ele><time>2026-04-26T13:59:15Z</time></trkpt><trkpt lat="40.89747272541634" lon="0.5317506035639329"><ele>38.0</ele><time>2026-04-26T13:59:16Z</time></trkpt><trkpt lat="40.89741005673198" lon="0.531671788824921"><ele>39.166666666666664</ele><time>2026-04-26T13:59:17Z</time></trkpt><trkpt lat="40.89733534526362" lon="0.5316029331753496"><ele>40.33333333333333</ele><time>2026-04-26T13:59:19Z</time></trkpt><trkpt lat="40.89726491292393" lon="0.531575292695771"><ele>41.5</ele><time>2026-04-26T13:59:21Z</time></trkpt><trkpt lat="40.89718669552503" lon="0.5315422757176512"><ele>42.666666666666664</ele><time>2026-04-26T13:59:22Z</time></trkpt><trkpt lat="40.89707878817364" lon="0.5315085926626621"><ele>43.833333333333336</ele><time>2026-04-26T13:59:23Z</time></trkpt><trkpt lat="40.8969917603584" lon="0.5315053821345486"><ele>45.0</ele><time>2026-04-26T13:59:24Z</time></trkpt><trkpt lat="40.896893218093005" lon="0.5314873937974407"><ele>45.0</ele><time>2026-04-26T13:59:26Z</time></trkpt><trkpt lat="40.89694366269484" lon="0.5315608801057958"><ele>45.0</ele><time>2026-04-26T13:59:40Z</time></trkpt><trkpt lat="40.89701001827423" lon="0.5316407918059867"><ele>45.0</ele><time>2026-04-26T13:59:41Z</time></trkpt><trkpt lat="40.89706327411196" lon="0.5317349457748306"><ele>45.0</ele><time>2026-04-26T13:59:42Z</time></trkpt><trkpt lat="40.89710416979976" lon="0.5318332108818983"><ele>45.0</ele><time>2026-04-26T13:59:43Z</time></trkpt><trkpt lat="40.897139884710725" lon="0.5319024371357715"><ele>45.0</ele><time>2026-04-26T13:59:44Z</time></trkpt><trkpt lat="40.89713198495366" lon="0.5320040542054069"><ele>45.0</ele><time>2026-04-26T13:59:46Z</time></trkpt><trkpt lat="40.89703187493566" lon="0.5319445975235872"><ele>45.0</ele><time>2026-04-26T13:59:49Z</time></trkpt><trkpt lat="40.89691761286118" lon="0.5318344404919789"><ele>45.0</ele><time>2026-04-26T13:59:51Z</time></trkpt><trkpt lat="40.89684566441212" lon="0.5317857567460644"><ele>45.0</ele><time>2026-04-26T13:59:52Z</time></trkpt><trkpt lat="40.89675462896564" lon="0.5316962957401729"><ele>45.0</ele><time>2026-04-26T13:59:54Z</time></trkpt><trkpt lat="40.89664043835488" lon="0.5316656246480146"><ele>47.25</ele><time>2026-04-26T13:59:56Z</time></trkpt><trkpt lat="40.89653006312001" lon="0.5316447201113896"><ele>49.5</ele><time>2026-04-26T13:59:58Z</time></trkpt><trkpt lat="40.896422417628095" lon="0.5316601830405061"><ele>51.75</ele><time>2026-04-26T14:00:00Z</time></trkpt><trkpt lat="40.896296729375564" lon="0.531742069014802"><ele>54.0</ele><time>2026-04-26T14:00:02Z</time></trkpt><trkpt lat="40.89621677481588" lon="0.5318099035195841"><ele>54.0</ele><time>2026-04-26T14:00:03Z</time></trkpt><trkpt lat="40.896161672376564" lon="0.5318621989695047"><ele>54.00000000000001</ele><time>2026-04-26T14:00:04Z</time></trkpt><trkpt lat="40.89607083078516" lon="0.5319779723174394"><ele>54.00000000000001</ele><time>2026-04-26T14:00:06Z</time></trkpt><trkpt lat="40.89601207058174" lon="0.5320670318400289"><ele>54.0</ele><time>2026-04-26T14:00:07Z</time></trkpt><trkpt lat="40.89598247146497" lon="0.5321409748995951"><ele>54.0</ele><time>2026-04-26T14:00:08Z</time></trkpt><trkpt lat="40.895935345368166" lon="0.5323055760573757"><ele>56.2</ele><time>2026-04-26T14:00:10Z</time></trkpt><trkpt lat="40.89592886555048" lon="0.5324048419830397"><ele>58.400000000000006</ele><time>2026-04-26T14:00:11Z</time></trkpt><trkpt lat="40.89585708378082" lon="0.5325743062854319"><ele>60.6</ele><time>2026-04-26T14:00:13Z</time></trkpt><trkpt lat="40.89578533134561" lon="0.5326577021442434"><ele>62.8</ele><time>2026-04-26T14:00:14Z</time></trkpt><trkpt lat="40.89571415139455" lon="0.532737076978827"><ele>65.0</ele><time>2026-04-26T14:00:15Z</time></trkpt><trkpt lat="40.89564589798566" lon="0.5328508114414019"><ele>68.33333333333334</ele><time>2026-04-26T14:00:16Z</time></trkpt><trkpt lat="40.895583177736576" lon="0.532980251425145"><ele>71.66666666666667</ele><time>2026-04-26T14:00:17Z</time></trkpt><trkpt lat="40.895515368679966" lon="0.5330678101380337"><ele>75.0</ele><time>2026-04-26T14:00:18Z</time></trkpt><trkpt lat="40.89544428831961" lon="0.5331286175664641"><ele>78.33333333333333</ele><time>2026-04-26T14:00:19Z</time></trkpt><trkpt lat="40.895371784490315" lon="0.5331762813354817"><ele>81.66666666666666</ele><time>2026-04-26T14:00:20Z</time></trkpt><trkpt lat="40.89531315904976" lon="0.5332184618989053"><ele>85.0</ele><time>2026-04-26T14:00:21Z</time></trkpt><trkpt lat="40.8952483340791" lon="0.5333176315123684"><ele>85.0</ele><time>2026-04-26T14:00:23Z</time></trkpt><trkpt lat="40.89521977109105" lon="0.53344557323065"><ele>85.0</ele><time>2026-04-26T14:00:25Z</time></trkpt><trkpt lat="40.89514235303009" lon="0.5335910950591469"><ele>85.0</ele><time>2026-04-26T14:00:27Z</time></trkpt><trkpt lat="40.895069794497985" lon="0.5336593323626921"><ele>85.0</ele><time>2026-04-26T14:00:28Z</time></trkpt><trkpt lat="40.894961197065136" lon="0.5337295409424444"><ele>85.0</ele><time>2026-04-26T14:00:29Z</time></trkpt><trkpt lat="40.89490078264016" lon="0.5337828155949021"><ele>84.5</ele><time>2026-04-26T14:00:30Z</time></trkpt><trkpt lat="40.8948436504683" lon="0.5338405414709582"><ele>84.0</ele><time>2026-04-26T14:00:31Z</time></trkpt><trkpt lat="40.89477857564896" lon="0.5339364511585932"><ele>83.5</ele><time>2026-04-26T14:00:33Z</time></trkpt><trkpt lat="40.89477683361674" lon="0.5340634277027163"><ele>83.0</ele><time>2026-04-26T14:00:35Z</time></trkpt><trkpt lat="40.89478405902862" lon="0.5341540592210325"><ele>82.5</ele><time>2026-04-26T14:00:36Z</time></trkpt><trkpt lat="40.894793509964245" lon="0.534287139248421"><ele>82.0</ele><time>2026-04-26T14:00:37Z</time></trkpt><trkpt lat="40.894791759097906" lon="0.5344223312831909"><ele>84.83333333333333</ele><time>2026-04-26T14:00:38Z</time></trkpt><trkpt lat="40.89479111499064" lon="0.5345562547820985"><ele>87.66666666666666</ele><time>2026-04-26T14:00:39Z</time></trkpt><trkpt lat="40.894785215322905" lon="0.5346525398645372"><ele>90.5</ele><time>2026-04-26T14:00:40Z</time></trkpt><trkpt lat="40.89478914959911" lon="0.534772507752484"><ele>93.33333333333333</ele><time>2026-04-26T14:00:42Z</time></trkpt><trkpt lat="40.8947853000334" lon="0.5349051981011408"><ele>96.16666666666667</ele><time>2026-04-26T14:00:45Z</time></trkpt><trkpt lat="40.894779421074176" lon="0.5350101993052693"><ele>99.0</ele><time>2026-04-26T14:00:47Z</time></trkpt><trkpt lat="40.894778714893874" lon="0.5351057411282331"><ele>99.0</ele><time>2026-04-26T14:00:50Z</time></trkpt><trkpt lat="40.894764715993354" lon="0.535192255181685"><ele>99.0</ele><time>2026-04-26T14:00:53Z</time></trkpt><trkpt lat="40.89474847278078" lon="0.5352844633110974"><ele>99.0</ele><time>2026-04-26T14:00:56Z</time></trkpt><trkpt lat="40.894693923783315" lon="0.5353845302174197"><ele>99.0</ele><time>2026-04-26T14:00:59Z</time></trkpt><trkpt lat="40.89464493384478" lon="0.5354559763487289"><ele>99.0</ele><time>2026-04-26T14:01:01Z</time></trkpt><trkpt lat="40.89459817415095" lon="0.535546576737392"><ele>99.0</ele><time>2026-04-26T14:01:03Z</time></trkpt><trkpt lat="40.89455343663285" lon="0.5356221260441125"><ele>101.83333333333333</ele><time>2026-04-26T14:01:05Z</time></trkpt><trkpt lat="40.894511709248484" lon="0.53569428675807"><ele>104.66666666666666</ele><time>2026-04-26T14:01:07Z</time></trkpt><trkpt lat="40.89446161452175" lon="0.5357790116001464"><ele>107.5</ele><time>2026-04-26T14:01:09Z</time></trkpt><trkpt lat="40.89440609161485" lon="0.5358293191616947"><ele>110.33333333333333</ele><time>2026-04-26T14:01:11Z</time></trkpt><trkpt lat="40.89435979951963" lon="0.5359426627292292"><ele>113.16666666666666</ele><time>2026-04-26T14:01:13Z</time></trkpt><trkpt lat="40.894307942006776" lon="0.5359937754353222"><ele>116.0</ele><time>2026-04-26T14:01:15Z</time></trkpt><trkpt lat="40.89423131111072" lon="0.5360759717575874"><ele>115.42857142857144</ele><time>2026-04-26T14:01:18Z</time></trkpt><trkpt lat="40.89416903379608" lon="0.5361093637266878"><ele>114.85714285714286</ele><time>2026-04-26T14:01:20Z</time></trkpt><trkpt lat="40.89408083859713" lon="0.5361532562376129"><ele>114.28571428571429</ele><time>2026-04-26T14:01:23Z</time></trkpt><trkpt lat="40.89401501402628" lon="0.5361920603903704"><ele>113.71428571428572</ele><time>2026-04-26T14:01:26Z</time></trkpt><trkpt lat="40.89395532246469" lon="0.536229584094625"><ele>113.14285714285714</ele><time>2026-04-26T14:01:29Z</time></trkpt><trkpt lat="40.89390413099085" lon="0.5362853130919032"><ele>112.57142857142857</ele><time>2026-04-26T14:01:32Z</time></trkpt><trkpt lat="40.893826004401696" lon="0.5362883167816878"><ele>112.0</ele><time>2026-04-26T14:01:35Z</time></trkpt><trkpt lat="40.89374518235457" lon="0.5362755033155738"><ele>112.00000000000001</ele><time>2026-04-26T14:01:38Z</time></trkpt><trkpt lat="40.8936627667517" lon="0.5362621430849394"><ele>112.0</ele><time>2026-04-26T14:01:42Z</time></trkpt><trkpt lat="40.893593695553974" lon="0.5362197741296779"><ele>112.0</ele><time>2026-04-26T14:01:46Z</time></trkpt><trkpt lat="40.893503931598644" lon="0.5361882388028708"><ele>112.0</ele><time>2026-04-26T14:01:50Z</time></trkpt><trkpt lat="40.89343922405464" lon="0.5361498552705013"><ele>112.00000000000001</ele><time>2026-04-26T14:01:53Z</time></trkpt><trkpt lat="40.89337442008522" lon="0.5361192186129616"><ele>112.0</ele><time>2026-04-26T14:01:56Z</time></trkpt><trkpt lat="40.89328563504926" lon="0.5360903399915486"><ele>109.50000000000001</ele><time>2026-04-26T14:02:00Z</time></trkpt><trkpt lat="40.893186165954184" lon="0.5361269581675172"><ele>107.0</ele><time>2026-04-26T14:02:04Z</time></trkpt><trkpt lat="40.89310253782697" lon="0.5361336475033496"><ele>104.5</ele><time>2026-04-26T14:02:06Z</time></trkpt><trkpt lat="40.89304044400249" lon="0.536119889919668"><ele>102.0</ele><time>2026-04-26T14:02:07Z</time></trkpt><trkpt lat="40.892965449433305" lon="0.5361241166163109"><ele>99.50000000000001</ele><time>2026-04-26T14:02:08Z</time></trkpt><trkpt lat="40.89287475678432" lon="0.5361837920571682"><ele>97.0</ele><time>2026-04-26T14:02:10Z</time></trkpt><trkpt lat="40.89282566966094" lon="0.536250394847986"><ele>97.00000000000001</ele><time>2026-04-26T14:02:13Z</time></trkpt><trkpt lat="40.89279267056098" lon="0.5363412336231803"><ele>97.0</ele><time>2026-04-26T14:02:15Z</time></trkpt><trkpt lat="40.89278257680232" lon="0.5364420816225232"><ele>97.0</ele><time>2026-04-26T14:02:17Z</time></trkpt><trkpt lat="40.8927588807635" lon="0.5365440789821384"><ele>97.0</ele><time>2026-04-26T14:02:19Z</time></trkpt><trkpt lat="40.89275751076591" lon="0.5366637574445026"><ele>97.00000000000001</ele><time>2026-04-26T14:02:22Z</time></trkpt><trkpt lat="40.89279057684251" lon="0.5367720198666999"><ele>97.0</ele><time>2026-04-26T14:02:25Z</time></trkpt><trkpt lat="40.89280860830358" lon="0.5368558295470877"><ele>97.00000000000001</ele><time>2026-04-26T14:02:26Z</time></trkpt><trkpt lat="40.89284939414438" lon="0.5369909009164752"><ele>97.0</ele><time>2026-04-26T14:02:28Z</time></trkpt><trkpt lat="40.89288820612306" lon="0.537100392834137"><ele>97.0</ele><time>2026-04-26T14:02:30Z</time></trkpt><trkpt lat="40.89292094675944" lon="0.5371827963856676"><ele>97.0</ele><time>2026-04-26T14:02:32Z</time></trkpt><trkpt lat="40.89290384885264" lon="0.537263406482384"><ele>97.00000000000001</ele><time>2026-04-26T14:02:34Z</time></trkpt><trkpt lat="40.89294956509529" lon="0.537382804367683"><ele>97.0</ele><time>2026-04-26T14:02:55Z</time></trkpt><trkpt lat="40.89288304809106" lon="0.5374119341468927"><ele>100.33333333333334</ele><time>2026-04-26T14:03:01Z</time></trkpt><trkpt lat="40.89282724626424" lon="0.5374844262779226"><ele>103.66666666666667</ele><time>2026-04-26T14:03:05Z</time></trkpt><trkpt lat="40.89279646575029" lon="0.5375591367432712"><ele>107.0</ele><time>2026-04-26T14:03:12Z</time></trkpt><trkpt lat="40.892723470389484" lon="0.5377237951097911"><ele>110.33333333333334</ele><time>2026-04-26T14:05:37Z</time></trkpt><trkpt lat="40.892716831870686" lon="0.5378165938917647"><ele>113.66666666666667</ele><time>2026-04-26T14:05:45Z</time></trkpt><trkpt lat="40.8926546574466" lon="0.5378553320295381"><ele>117.0</ele><time>2026-04-26T14:05:56Z</time></trkpt><trkpt lat="40.89263345550444" lon="0.5379621476210397"><ele>117.0</ele><time>2026-04-26T14:06:31Z</time></trkpt><trkpt lat="40.89264224304883" lon="0.5380451946418212"><ele>117.00000000000001</ele><time>2026-04-26T14:07:34Z</time></trkpt><trkpt lat="40.89268869598968" lon="0.538108404460302"><ele>117.0</ele><time>2026-04-26T14:07:40Z</time></trkpt><trkpt lat="40.8926782065348" lon="0.5381971496993695"><ele>117.0</ele><time>2026-04-26T14:09:46Z</time></trkpt><trkpt lat="40.89264915013445" lon="0.5381013013902055"><ele>117.00000000000001</ele><time>2026-04-26T14:11:52Z</time></trkpt><trkpt lat="40.89264117096256" lon="0.5380183290836541"><ele>117.0</ele><time>2026-04-26T14:12:03Z</time></trkpt><trkpt lat="40.89264871594277" lon="0.5379342771721655"><ele>117.0</ele><time>2026-04-26T14:12:09Z</time></trkpt><trkpt lat="40.89269861493614" lon="0.5378611732954365"><ele>117.0</ele><time>2026-04-26T14:12:12Z</time></trkpt><trkpt lat="40.89271265894239" lon="0.5377703838522745"><ele>117.0</ele><time>2026-04-26T14:12:23Z</time></trkpt><trkpt lat="40.892723212633854" lon="0.5376788254670426"><ele>117.0</ele><time>2026-04-26T14:12:29Z</time></trkpt><trkpt lat="40.89272027385643" lon="0.5375913846302153"><ele>117.0</ele><time>2026-04-26T14:12:39Z</time></trkpt><trkpt lat="40.89276100374885" lon="0.5375015768203248"><ele>117.0</ele><time>2026-04-26T14:12:43Z</time></trkpt><trkpt lat="40.89281311858124" lon="0.5374237220352848"><ele>117.0</ele><time>2026-04-26T14:12:45Z</time></trkpt><trkpt lat="40.892884881709406" lon="0.5373597269295782"><ele>117.0</ele><time>2026-04-26T14:12:47Z</time></trkpt><trkpt lat="40.89285056682852" lon="0.5372718985743546"><ele>117.00000000000001</ele><time>2026-04-26T14:12:54Z</time></trkpt><trkpt lat="40.89283893570878" lon="0.5371825066237259"><ele>117.0</ele><time>2026-04-26T14:12:57Z</time></trkpt><trkpt lat="40.89279193728586" lon="0.5370955106724571"><ele>117.0</ele><time>2026-04-26T14:13:02Z</time></trkpt><trkpt lat="40.892762753468354" lon="0.5370179393190674"><ele>117.00000000000001</ele><time>2026-04-26T14:13:04Z</time></trkpt><trkpt lat="40.89275498461676" lon="0.5369203268837497"><ele>117.0</ele><time>2026-04-26T14:13:06Z</time></trkpt><trkpt lat="40.892709341339675" lon="0.5368258111918138"><ele>117.0</ele><time>2026-04-26T14:13:09Z</time></trkpt><trkpt lat="40.89271078468682" lon="0.5367171205219685"><ele>113.66666666666667</ele><time>2026-04-26T14:13:11Z</time></trkpt><trkpt lat="40.89273585609965" lon="0.5366237072059911"><ele>110.33333333333334</ele><time>2026-04-26T14:13:13Z</time></trkpt><trkpt lat="40.89272375957938" lon="0.5365051190405241"><ele>107.0</ele><time>2026-04-26T14:13:17Z</time></trkpt><trkpt lat="40.892725533453195" lon="0.5363978152584067"><ele>103.66666666666667</ele><time>2026-04-26T14:13:21Z</time></trkpt><trkpt lat="40.89275106284442" lon="0.5363136636464704"><ele>100.33333333333334</ele><time>2026-04-26T14:13:27Z</time></trkpt><trkpt lat="40.89277693279032" lon="0.5362022276643352"><ele>97.0</ele><time>2026-04-26T14:13:30Z</time></trkpt><trkpt lat="40.89282100384673" lon="0.5361395181504454"><ele>93.8</ele><time>2026-04-26T14:13:32Z</time></trkpt><trkpt lat="40.892910827080094" lon="0.5360776347473063"><ele>90.6</ele><time>2026-04-26T14:13:35Z</time></trkpt><trkpt lat="40.89300504599066" lon="0.5360501277548179"><ele>87.39999999999999</ele><time>2026-04-26T14:13:37Z</time></trkpt><trkpt lat="40.893087094480855" lon="0.5360076645097553"><ele>84.19999999999999</ele><time>2026-04-26T14:13:41Z</time></trkpt><trkpt lat="40.893162571102174" lon="0.5359985851754304"><ele>81.0</ele><time>2026-04-26T14:13:44Z</time></trkpt><trkpt lat="40.893270525930674" lon="0.5360242939477812"><ele>81.0</ele><time>2026-04-26T14:13:47Z</time></trkpt><trkpt lat="40.89335731925303" lon="0.5360867856031092"><ele>81.0</ele><time>2026-04-26T14:13:49Z</time></trkpt><trkpt lat="40.893435869767764" lon="0.5361203515735736"><ele>81.0</ele><time>2026-04-26T14:13:51Z</time></trkpt><trkpt lat="40.89349947001072" lon="0.5361356764750834"><ele>81.0</ele><time>2026-04-26T14:13:53Z</time></trkpt><trkpt lat="40.8935684454975" lon="0.536171765515625"><ele>81.0</ele><time>2026-04-26T14:13:56Z</time></trkpt><trkpt lat="40.89362990726383" lon="0.5362099198844198"><ele>81.0</ele><time>2026-04-26T14:13:59Z</time></trkpt><trkpt lat="40.89370789076096" lon="0.5362433578115343"><ele>81.0</ele><time>2026-04-26T14:14:02Z</time></trkpt><trkpt lat="40.893774558859896" lon="0.5362241097734567"><ele>81.0</ele><time>2026-04-26T14:14:05Z</time></trkpt><trkpt lat="40.89386321327919" lon="0.5361828747153125"><ele>81.0</ele><time>2026-04-26T14:14:09Z</time></trkpt><trkpt lat="40.89393939566678" lon="0.5361380993621213"><ele>81.0</ele><time>2026-04-26T14:14:11Z</time></trkpt><trkpt lat="40.89403546569069" lon="0.5361052119150657"><ele>81.0</ele><time>2026-04-26T14:14:13Z</time></trkpt><trkpt lat="40.89411853898597" lon="0.5360633132678219"><ele>81.0</ele><time>2026-04-26T14:14:15Z</time></trkpt><trkpt lat="40.894226457227646" lon="0.5359945836722654"><ele>86.0</ele><time>2026-04-26T14:14:17Z</time></trkpt><trkpt lat="40.894324884555076" lon="0.5359343417027468"><ele>91.0</ele><time>2026-04-26T14:14:19Z</time></trkpt><trkpt lat="40.8943901080592" lon="0.5358791083700287"><ele>96.0</ele><time>2026-04-26T14:14:21Z</time></trkpt><trkpt lat="40.89441662334272" lon="0.5358016186845628"><ele>101.0</ele><time>2026-04-26T14:14:23Z</time></trkpt><trkpt lat="40.8944494991868" lon="0.5357294008505983"><ele>106.0</ele><time>2026-04-26T14:14:25Z</time></trkpt><trkpt lat="40.89448951155136" lon="0.535662208260178"><ele>111.00000000000001</ele><time>2026-04-26T14:14:27Z</time></trkpt><trkpt lat="40.894529006857105" lon="0.5355950878270599"><ele>116.00000000000001</ele><time>2026-04-26T14:14:31Z</time></trkpt><trkpt lat="40.89458878471339" lon="0.5354942624291693"><ele>116.0</ele><time>2026-04-26T14:14:33Z</time></trkpt><trkpt lat="40.8946449850598" lon="0.5353897968599023"><ele>116.0</ele><time>2026-04-26T14:14:35Z</time></trkpt><trkpt lat="40.89465481998684" lon="0.5353021190840462"><ele>116.0</ele><time>2026-04-26T14:14:37Z</time></trkpt><trkpt lat="40.89468119888902" lon="0.5351874025756819"><ele>116.0</ele><time>2026-04-26T14:14:39Z</time></trkpt><trkpt lat="40.89472160216675" lon="0.5351102504747892"><ele>116.0</ele><time>2026-04-26T14:14:44Z</time></trkpt><trkpt lat="40.894757530951544" lon="0.5348795384180097"><ele>113.16666666666666</ele><time>2026-04-26T14:15:03Z</time></trkpt><trkpt lat="40.8947554240179" lon="0.5347697745642804"><ele>110.33333333333333</ele><time>2026-04-26T14:15:04Z</time></trkpt><trkpt lat="40.89475729968975" lon="0.5346794114596135"><ele>107.5</ele><time>2026-04-26T14:15:05Z</time></trkpt><trkpt lat="40.89476104404494" lon="0.5345777465966307"><ele>104.66666666666666</ele><time>2026-04-26T14:15:06Z</time></trkpt><trkpt lat="40.89476528648946" lon="0.5344760725939791"><ele>101.83333333333333</ele><time>2026-04-26T14:15:07Z</time></trkpt><trkpt lat="40.89476650274862" lon="0.5343856162336831"><ele>99.0</ele><time>2026-04-26T14:15:08Z</time></trkpt><trkpt lat="40.89475618518532" lon="0.5342449635415117"><ele>96.16666666666667</ele><time>2026-04-26T14:15:10Z</time></trkpt><trkpt lat="40.894751050596355" lon="0.5340969341158364"><ele>93.33333333333333</ele><time>2026-04-26T14:15:12Z</time></trkpt><trkpt lat="40.89476908049444" lon="0.533966015192417"><ele>90.5</ele><time>2026-04-26T14:15:14Z</time></trkpt><trkpt lat="40.894807129872184" lon="0.5338947657562606"><ele>87.66666666666666</ele><time>2026-04-26T14:15:15Z</time></trkpt><trkpt lat="40.89486062597869" lon="0.5338368126628239"><ele>84.83333333333333</ele><time>2026-04-26T14:15:16Z</time></trkpt><trkpt lat="40.89491202059176" lon="0.5337797470310622"><ele>82.0</ele><time>2026-04-26T14:15:17Z</time></trkpt><trkpt lat="40.89498090448539" lon="0.5337313987654388"><ele>82.42857142857142</ele><time>2026-04-26T14:15:18Z</time></trkpt><trkpt lat="40.89505206962254" lon="0.5336891678428742"><ele>82.85714285714286</ele><time>2026-04-26T14:15:19Z</time></trkpt><trkpt lat="40.895121298804725" lon="0.533643799132199"><ele>83.28571428571428</ele><time>2026-04-26T14:15:20Z</time></trkpt><trkpt lat="40.89517626671714" lon="0.5335827323761407"><ele>83.71428571428571</ele><time>2026-04-26T14:15:21Z</time></trkpt><trkpt lat="40.89521455548488" lon="0.5335079338850672"><ele>84.14285714285714</ele><time>2026-04-26T14:15:22Z</time></trkpt><trkpt lat="40.89523157709389" lon="0.5334202148330848"><ele>84.57142857142857</ele><time>2026-04-26T14:15:23Z</time></trkpt><trkpt lat="40.89525052249195" lon="0.5333324299457999"><ele>85.0</ele><time>2026-04-26T14:15:24Z</time></trkpt><trkpt lat="40.895289659296765" lon="0.5332574960652439"><ele>85.0</ele><time>2026-04-26T14:15:25Z</time></trkpt><trkpt lat="40.8953497747746" lon="0.5332132161741836"><ele>85.0</ele><time>2026-04-26T14:15:26Z</time></trkpt><trkpt lat="40.89541026010262" lon="0.5331683426388981"><ele>85.0</ele><time>2026-04-26T14:15:27Z</time></trkpt><trkpt lat="40.89547216878284" lon="0.5331194458921954"><ele>85.0</ele><time>2026-04-26T14:15:28Z</time></trkpt><trkpt lat="40.895533195978324" lon="0.5330583997254434"><ele>85.0</ele><time>2026-04-26T14:15:29Z</time></trkpt><trkpt lat="40.89558887248774" lon="0.5329904103965136"><ele>85.0</ele><time>2026-04-26T14:15:30Z</time></trkpt><trkpt lat="40.895634994113934" lon="0.5329096050674983"><ele>85.0</ele><time>2026-04-26T14:15:31Z</time></trkpt><trkpt lat="40.895671784758825" lon="0.5328210309338263"><ele>82.6</ele><time>2026-04-26T14:15:32Z</time></trkpt><trkpt lat="40.8957073388193" lon="0.5327507441868364"><ele>80.2</ele><time>2026-04-26T14:15:33Z</time></trkpt><trkpt lat="40.89575111823958" lon="0.5326849280594552"><ele>77.8</ele><time>2026-04-26T14:15:34Z</time></trkpt><trkpt lat="40.895842874014136" lon="0.5325797938587602"><ele>75.4</ele><time>2026-04-26T14:15:36Z</time></trkpt><trkpt lat="40.89591719408761" lon="0.532470698700132"><ele>73.0</ele><time>2026-04-26T14:15:38Z</time></trkpt><trkpt lat="40.89593829871257" lon="0.5323124147725045"><ele>73.0</ele><time>2026-04-26T14:15:40Z</time></trkpt><trkpt lat="40.89597345465042" lon="0.532152019768828"><ele>73.0</ele><time>2026-04-26T14:15:42Z</time></trkpt><trkpt lat="40.89601740041382" lon="0.5320906199983912"><ele>73.0</ele><time>2026-04-26T14:15:43Z</time></trkpt><trkpt lat="40.89607056675194" lon="0.5320211438958503"><ele>73.0</ele><time>2026-04-26T14:15:44Z</time></trkpt><trkpt lat="40.89612751992335" lon="0.5319416872336493"><ele>73.0</ele><time>2026-04-26T14:15:45Z</time></trkpt><trkpt lat="40.89619697630729" lon="0.5318567443687919"><ele>73.0</ele><time>2026-04-26T14:15:46Z</time></trkpt><trkpt lat="40.89626617736867" lon="0.5317778059217166"><ele>69.83333333333333</ele><time>2026-04-26T14:15:47Z</time></trkpt><trkpt lat="40.89635288010649" lon="0.5317107909716794"><ele>66.66666666666666</ele><time>2026-04-26T14:15:48Z</time></trkpt><trkpt lat="40.89642611844429" lon="0.5316779673678032"><ele>63.5</ele><time>2026-04-26T14:15:49Z</time></trkpt><trkpt lat="40.896507033867096" lon="0.5316720591388987"><ele>60.33333333333333</ele><time>2026-04-26T14:15:50Z</time></trkpt><trkpt lat="40.89658229736127" lon="0.5316752002324138"><ele>57.166666666666664</ele><time>2026-04-26T14:15:51Z</time></trkpt><trkpt lat="40.896656870991684" lon="0.531692751307961"><ele>54.0</ele><time>2026-04-26T14:15:52Z</time></trkpt><trkpt lat="40.896731547075944" lon="0.5317142187638915"><ele>53.42857142857143</ele><time>2026-04-26T14:15:53Z</time></trkpt><trkpt lat="40.896793756847345" lon="0.5317596470731581"><ele>52.857142857142854</ele><time>2026-04-26T14:15:54Z</time></trkpt><trkpt lat="40.89684030219672" lon="0.5318178769396262"><ele>52.28571428571429</ele><time>2026-04-26T14:15:55Z</time></trkpt><trkpt lat="40.89689892147227" lon="0.5318734844954615"><ele>51.714285714285715</ele><time>2026-04-26T14:15:56Z</time></trkpt><trkpt lat="40.89695951478994" lon="0.5319124267263557"><ele>51.142857142857146</ele><time>2026-04-26T14:15:57Z</time></trkpt><trkpt lat="40.8970098964439" lon="0.5319790672476502"><ele>50.57142857142858</ele><time>2026-04-26T14:15:58Z</time></trkpt><trkpt lat="40.89704342092966" lon="0.5320633185933833"><ele>50.0</ele><time>2026-04-26T14:16:00Z</time></trkpt><trkpt lat="40.89710923432583" lon="0.5320372227545832"><ele>49.16666666666667</ele><time>2026-04-26T14:16:03Z</time></trkpt><trkpt lat="40.89708782022226" lon="0.5319537428576797"><ele>48.333333333333336</ele><time>2026-04-26T14:16:05Z</time></trkpt><trkpt lat="40.89705216967095" lon="0.5318808012042504"><ele>47.5</ele><time>2026-04-26T14:16:06Z</time></trkpt><trkpt lat="40.897005365278936" lon="0.5317895857371593"><ele>46.66666666666667</ele><time>2026-04-26T14:16:07Z</time></trkpt><trkpt lat="40.89696915166401" lon="0.5316955871986865"><ele>45.833333333333336</ele><time>2026-04-26T14:16:08Z</time></trkpt><trkpt lat="40.8969036084309" lon="0.531592694306787"><ele>45.0</ele><time>2026-04-26T14:16:10Z</time></trkpt><trkpt lat="40.89685396041392" lon="0.5315234191468473"><ele>45.0</ele><time>2026-04-26T14:16:13Z</time></trkpt><trkpt lat="40.89702825894356" lon="0.5314909524805661"><ele>45.0</ele><time>2026-04-26T14:16:17Z</time></trkpt><trkpt lat="40.89709342571778" lon="0.5315043709860271"><ele>45.0</ele><time>2026-04-26T14:16:18Z</time></trkpt><trkpt lat="40.897162946038506" lon="0.5315165339109524"><ele>45.0</ele><time>2026-04-26T14:16:19Z</time></trkpt><trkpt lat="40.89723399296726" lon="0.5315206495900922"><ele>45.0</ele><time>2026-04-26T14:16:20Z</time></trkpt><trkpt lat="40.897295275759774" lon="0.5315419137160144"><ele>45.0</ele><time>2026-04-26T14:16:21Z</time></trkpt><trkpt lat="40.897357216269796" lon="0.5315890382487888"><ele>45.0</ele><time>2026-04-26T14:16:22Z</time></trkpt><trkpt lat="40.89741357889052" lon="0.5316474393157867"><ele>45.0</ele><time>2026-04-26T14:16:23Z</time></trkpt><trkpt lat="40.89750214088249" lon="0.5317673878922863"><ele>45.0</ele><time>2026-04-26T14:16:25Z</time></trkpt><trkpt lat="40.89755520140202" lon="0.531871570141727"><ele>45.0</ele><time>2026-04-26T14:16:26Z</time></trkpt><trkpt lat="40.897632930793385" lon="0.5320097775540557"><ele>45.0</ele><time>2026-04-26T14:16:27Z</time></trkpt><trkpt lat="40.89772000636341" lon="0.5321544452044318"><ele>43.833333333333336</ele><time>2026-04-26T14:16:28Z</time></trkpt><trkpt lat="40.897786332459994" lon="0.532245064430318"><ele>42.666666666666664</ele><time>2026-04-26T14:16:29Z</time></trkpt><trkpt lat="40.897859417348364" lon="0.5323072916985585"><ele>41.5</ele><time>2026-04-26T14:16:30Z</time></trkpt><trkpt lat="40.89793682417646" lon="0.532350097959028"><ele>40.33333333333333</ele><time>2026-04-26T14:16:31Z</time></trkpt><trkpt lat="40.898005597472945" lon="0.5323587684443463"><ele>39.166666666666664</ele><time>2026-04-26T14:16:32Z</time></trkpt><trkpt lat="40.89809211563974" lon="0.5323518372231304"><ele>38.0</ele><time>2026-04-26T14:16:33Z</time></trkpt><trkpt lat="40.898177888182694" lon="0.5323297139111975"><ele>38.0</ele><time>2026-04-26T14:16:34Z</time></trkpt><trkpt lat="40.898263937175024" lon="0.53229280758269"><ele>38.0</ele><time>2026-04-26T14:16:35Z</time></trkpt><trkpt lat="40.89835610764147" lon="0.532258899461754"><ele>38.0</ele><time>2026-04-26T14:16:36Z</time></trkpt><trkpt lat="40.89843946707154" lon="0.5322247604966454"><ele>38.0</ele><time>2026-04-26T14:16:37Z</time></trkpt><trkpt lat="40.89851788578691" lon="0.5321779919478956"><ele>38.0</ele><time>2026-04-26T14:16:38Z</time></trkpt><trkpt lat="40.8985904739512" lon="0.5321110685877994"><ele>38.0</ele><time>2026-04-26T14:16:39Z</time></trkpt><trkpt lat="40.89866588179705" lon="0.5320275583638119"><ele>37.0</ele><time>2026-04-26T14:16:40Z</time></trkpt><trkpt lat="40.89876426250509" lon="0.5319241127371875"><ele>36.0</ele><time>2026-04-26T14:16:41Z</time></trkpt><trkpt lat="40.89888639422773" lon="0.5318139357929487"><ele>35.0</ele><time>2026-04-26T14:16:42Z</time></trkpt><trkpt lat="40.89900568934613" lon="0.5317175225610674"><ele>34.0</ele><time>2026-04-26T14:16:43Z</time></trkpt><trkpt lat="40.89913587636878" lon="0.5316145346959205"><ele>35.0</ele><time>2026-04-26T14:16:44Z</time></trkpt><trkpt lat="40.89928581966699" lon="0.531480227658286"><ele>36.0</ele><time>2026-04-26T14:16:45Z</time></trkpt><trkpt lat="40.899453633573316" lon="0.5313275187769019"><ele>37.0</ele><time>2026-04-26T14:16:46Z</time></trkpt><trkpt lat="40.8996132117167" lon="0.5311690989381822"><ele>37.0</ele><time>2026-04-26T14:16:47Z</time></trkpt><trkpt lat="40.899731197084876" lon="0.5310525597757109"><ele>37.0</ele><time>2026-04-26T14:16:48Z</time></trkpt><trkpt lat="40.89982139117589" lon="0.5309456704779139"><ele>37.0</ele><time>2026-04-26T14:16:49Z</time></trkpt><trkpt lat="40.8999027210375" lon="0.5308360422127102"><ele>37.0</ele><time>2026-04-26T14:16:50Z</time></trkpt><trkpt lat="40.89996673997344" lon="0.5307252767119712"><ele>37.0</ele><time>2026-04-26T14:16:51Z</time></trkpt><trkpt lat="40.90002178171055" lon="0.5306070697760076"><ele>37.0</ele><time>2026-04-26T14:16:52Z</time></trkpt><trkpt lat="40.90009207357889" lon="0.5304759727734912"><ele>37.0</ele><time>2026-04-26T14:16:53Z</time></trkpt><trkpt lat="40.90017102520212" lon="0.5303328792462857"><ele>37.0</ele><time>2026-04-26T14:16:54Z</time></trkpt><trkpt lat="40.90026811836595" lon="0.5301715862759159"><ele>37.0</ele><time>2026-04-26T14:16:55Z</time></trkpt><trkpt lat="40.90037137303348" lon="0.5300181387915515"><ele>37.0</ele><time>2026-04-26T14:16:56Z</time></trkpt><trkpt lat="40.9004516998527" lon="0.529882915982823"><ele>37.0</ele><time>2026-04-26T14:16:57Z</time></trkpt><trkpt lat="40.90052432867171" lon="0.5297483662595232"><ele>37.0</ele><time>2026-04-26T14:16:58Z</time></trkpt><trkpt lat="40.900580918243705" lon="0.5296267123887664"><ele>36.2</ele><time>2026-04-26T14:16:59Z</time></trkpt><trkpt lat="40.900641166935166" lon="0.5295106284361599"><ele>35.400000000000006</ele><time>2026-04-26T14:17:00Z</time></trkpt><trkpt lat="40.90069858647371" lon="0.5294008169036764"><ele>34.599999999999994</ele><time>2026-04-26T14:17:01Z</time></trkpt><trkpt lat="40.900759957107184" lon="0.5292984413362694"><ele>33.8</ele><time>2026-04-26T14:17:02Z</time></trkpt><trkpt lat="40.90083440810591" lon="0.5292091013823234"><ele>33.0</ele><time>2026-04-26T14:17:03Z</time></trkpt><trkpt lat="40.9009130976319" lon="0.5291308659882737"><ele>32.833333333333336</ele><time>2026-04-26T14:17:04Z</time></trkpt><trkpt lat="40.900993721897116" lon="0.5290688818847237"><ele>32.666666666666664</ele><time>2026-04-26T14:17:05Z</time></trkpt><trkpt lat="40.901061490213415" lon="0.5290073358634516"><ele>32.5</ele><time>2026-04-26T14:17:06Z</time></trkpt><trkpt lat="40.90113399902744" lon="0.528922100846607"><ele>32.33333333333333</ele><time>2026-04-26T14:17:07Z</time></trkpt><trkpt lat="40.90118731092508" lon="0.5288237953618806"><ele>32.166666666666664</ele><time>2026-04-26T14:17:08Z</time></trkpt><trkpt lat="40.90122647520141" lon="0.5287273357705876"><ele>32.0</ele><time>2026-04-26T14:17:09Z</time></trkpt><trkpt lat="40.90127808114837" lon="0.5286259823402996"><ele>31.999999999999996</ele><time>2026-04-26T14:17:10Z</time></trkpt><trkpt lat="40.90133753489452" lon="0.5285389225330348"><ele>32.0</ele><time>2026-04-26T14:17:11Z</time></trkpt><trkpt lat="40.90140037587227" lon="0.5284691369800012"><ele>32.0</ele><time>2026-04-26T14:17:12Z</time></trkpt><trkpt lat="40.90146098623385" lon="0.5284151802448996"><ele>32.0</ele><time>2026-04-26T14:17:13Z</time></trkpt><trkpt lat="40.90151317388199" lon="0.5283449771807377"><ele>31.999999999999996</ele><time>2026-04-26T14:17:14Z</time></trkpt><trkpt lat="40.90155800447092" lon="0.5282575529519108"><ele>32.0</ele><time>2026-04-26T14:17:15Z</time></trkpt><trkpt lat="40.9015944722455" lon="0.5281827381734702"><ele>32.0</ele><time>2026-04-26T14:17:16Z</time></trkpt><trkpt lat="40.901640210681464" lon="0.5281096650234658"><ele>31.999999999999996</ele><time>2026-04-26T14:17:17Z</time></trkpt><trkpt lat="40.9016933220641" lon="0.528051219351604"><ele>32.0</ele><time>2026-04-26T14:17:18Z</time></trkpt><trkpt lat="40.90175307587336" lon="0.52800498664431"><ele>32.0</ele><time>2026-04-26T14:17:19Z</time></trkpt><trkpt lat="40.90180827044473" lon="0.5279538065070938"><ele>31.999999999999996</ele><time>2026-04-26T14:17:20Z</time></trkpt><trkpt lat="40.901868773525344" lon="0.5279055821437071"><ele>32.0</ele><time>2026-04-26T14:17:21Z</time></trkpt><trkpt lat="40.90192972638675" lon="0.5278444666160825"><ele>32.0</ele><time>2026-04-26T14:17:22Z</time></trkpt><trkpt lat="40.90198197931144" lon="0.5277562523986066"><ele>31.200000000000003</ele><time>2026-04-26T14:17:23Z</time></trkpt><trkpt lat="40.90202513808078" lon="0.5276614124470894"><ele>30.400000000000002</ele><time>2026-04-26T14:17:24Z</time></trkpt><trkpt lat="40.902066202886395" lon="0.5275432169046305"><ele>29.599999999999998</ele><time>2026-04-26T14:17:25Z</time></trkpt><trkpt lat="40.90209754076997" lon="0.5274035487646118"><ele>28.799999999999997</ele><time>2026-04-26T14:17:26Z</time></trkpt><trkpt lat="40.90212245468027" lon="0.5272368189713459"><ele>28.0</ele><time>2026-04-26T14:17:27Z</time></trkpt><trkpt lat="40.902146828135756" lon="0.5270233584215818"><ele>28.0</ele><time>2026-04-26T14:17:28Z</time></trkpt><trkpt lat="40.9021858015345" lon="0.526798434423158"><ele>28.0</ele><time>2026-04-26T14:17:29Z</time></trkpt><trkpt lat="40.90223776371816" lon="0.5266025147031421"><ele>28.0</ele><time>2026-04-26T14:17:30Z</time></trkpt><trkpt lat="40.902316062983935" lon="0.5263833555370363"><ele>27.25</ele><time>2026-04-26T14:17:31Z</time></trkpt><trkpt lat="40.902380945679006" lon="0.5261814072542303"><ele>26.5</ele><time>2026-04-26T14:17:32Z</time></trkpt><trkpt lat="40.90243709129261" lon="0.5260094294991156"><ele>25.75</ele><time>2026-04-26T14:17:33Z</time></trkpt><trkpt lat="40.902490610143815" lon="0.5258504679477323"><ele>25.0</ele><time>2026-04-26T14:17:34Z</time></trkpt><trkpt lat="40.9025406145079" lon="0.5257093163402599"><ele>25.0</ele><time>2026-04-26T14:17:35Z</time></trkpt><trkpt lat="40.90257850196388" lon="0.5255751022892081"><ele>25.0</ele><time>2026-04-26T14:17:36Z</time></trkpt><trkpt lat="40.90261517890342" lon="0.525462054525886"><ele>25.0</ele><time>2026-04-26T14:17:37Z</time></trkpt><trkpt lat="40.90266668570157" lon="0.5253548945535294"><ele>25.0</ele><time>2026-04-26T14:17:38Z</time></trkpt><trkpt lat="40.90270959122389" lon="0.5252599608209577"><ele>25.0</ele><time>2026-04-26T14:17:39Z</time></trkpt><trkpt lat="40.902761321080526" lon="0.5251547215611513"><ele>25.25</ele><time>2026-04-26T14:17:40Z</time></trkpt><trkpt lat="40.902814306953836" lon="0.5250396119394173"><ele>25.5</ele><time>2026-04-26T14:17:41Z</time></trkpt><trkpt lat="40.90288868309261" lon="0.5248831988745452"><ele>25.75</ele><time>2026-04-26T14:17:42Z</time></trkpt><trkpt lat="40.90296921826178" lon="0.5247152256417609"><ele>26.0</ele><time>2026-04-26T14:17:43Z</time></trkpt><trkpt lat="40.903033258261374" lon="0.5245762458053886"><ele>25.666666666666664</ele><time>2026-04-26T14:17:44Z</time></trkpt><trkpt lat="40.90309180165716" lon="0.52446057234013"><ele>25.333333333333332</ele><time>2026-04-26T14:17:45Z</time></trkpt><trkpt lat="40.90313989673923" lon="0.5243593483728369"><ele>25.0</ele><time>2026-04-26T14:17:46Z</time></trkpt><trkpt lat="40.90318486606109" lon="0.5242700511962591"><ele>24.666666666666664</ele><time>2026-04-26T14:17:47Z</time></trkpt><trkpt lat="40.90321134203937" lon="0.5241927899241335"><ele>24.333333333333332</ele><time>2026-04-26T14:17:48Z</time></trkpt><trkpt lat="40.9032577847775" lon="0.5241096423118274"><ele>24.0</ele><time>2026-04-26T14:17:49Z</time></trkpt><trkpt lat="40.90329986609036" lon="0.5240450433187036"><ele>24.0</ele><time>2026-04-26T14:17:50Z</time></trkpt><trkpt lat="40.90339863856589" lon="0.5239502297771819"><ele>24.0</ele><time>2026-04-26T14:17:52Z</time></trkpt><trkpt lat="40.90345307970272" lon="0.5239033491539042"><ele>24.0</ele><time>2026-04-26T14:17:53Z</time></trkpt><trkpt lat="40.903570497947584" lon="0.5237923473428409"><ele>24.0</ele><time>2026-04-26T14:17:55Z</time></trkpt><trkpt lat="40.903646527689354" lon="0.5237175608735791"><ele>24.0</ele><time>2026-04-26T14:17:56Z</time></trkpt><trkpt lat="40.90372312186362" lon="0.5236384222101425"><ele>24.0</ele><time>2026-04-26T14:17:57Z</time></trkpt><trkpt lat="40.903814016222434" lon="0.5235398200151339"><ele>24.0</ele><time>2026-04-26T14:17:58Z</time></trkpt><trkpt lat="40.90391366698779" lon="0.5234610821369654"><ele>24.0</ele><time>2026-04-26T14:17:59Z</time></trkpt><trkpt lat="40.90400173073316" lon="0.5234160572427283"><ele>24.0</ele><time>2026-04-26T14:18:00Z</time></trkpt><trkpt lat="40.90408396658975" lon="0.5233790088032824"><ele>24.0</ele><time>2026-04-26T14:18:01Z</time></trkpt><trkpt lat="40.90414961046666" lon="0.5233590635660708"><ele>24.0</ele><time>2026-04-26T14:18:02Z</time></trkpt><trkpt lat="40.90415853379873" lon="0.5235954035898629"><ele>24.0</ele><time>2026-04-26T14:18:57Z</time></trkpt><trkpt lat="40.90414347813952" lon="0.5237170706213573"><ele>24.0</ele><time>2026-04-26T14:18:58Z</time></trkpt><trkpt lat="40.90414429651854" lon="0.5238341375748669"><ele>24.0</ele><time>2026-04-26T14:18:59Z</time></trkpt><trkpt lat="40.90412877091494" lon="0.523934824367155"><ele>24.0</ele><time>2026-04-26T14:19:00Z</time></trkpt><trkpt lat="40.90409131330109" lon="0.5240970622165043"><ele>23.833333333333332</ele><time>2026-04-26T14:19:02Z</time></trkpt><trkpt lat="40.90404976914652" lon="0.5242273476190747"><ele>23.666666666666668</ele><time>2026-04-26T14:19:03Z</time></trkpt><trkpt lat="40.90403636503983" lon="0.5243543969847708"><ele>23.5</ele><time>2026-04-26T14:19:04Z</time></trkpt><trkpt lat="40.90403714790833" lon="0.5244497186302117"><ele>23.333333333333336</ele><time>2026-04-26T14:19:05Z</time></trkpt><trkpt lat="40.90402918336066" lon="0.5245590139826232"><ele>23.166666666666668</ele><time>2026-04-26T14:19:06Z</time></trkpt><trkpt lat="40.904015902544636" lon="0.5246683542686628"><ele>23.0</ele><time>2026-04-26T14:19:07Z</time></trkpt><trkpt lat="40.90398304282807" lon="0.5247645316866938"><ele>23.5</ele><time>2026-04-26T14:19:08Z</time></trkpt><trkpt lat="40.90390629533454" lon="0.5248545419806185"><ele>24.0</ele><time>2026-04-26T14:19:10Z</time></trkpt><trkpt lat="40.90384904897482" lon="0.5249005576769777"><ele>24.5</ele><time>2026-04-26T14:19:11Z</time></trkpt><trkpt lat="40.90379264381543" lon="0.524970196866502"><ele>25.0</ele><time>2026-04-26T14:19:12Z</time></trkpt><trkpt lat="40.9037593711577" lon="0.5250585197690409"><ele>25.499999999999996</ele><time>2026-04-26T14:19:13Z</time></trkpt><trkpt lat="40.90373459097632" lon="0.5251651343125973"><ele>26.0</ele><time>2026-04-26T14:19:14Z</time></trkpt><trkpt lat="40.90370229925137" lon="0.5252824606109466"><ele>26.0</ele><time>2026-04-26T14:19:15Z</time></trkpt><trkpt lat="40.90367891072767" lon="0.5253861778308777"><ele>26.0</ele><time>2026-04-26T14:19:16Z</time></trkpt><trkpt lat="40.90366301034912" lon="0.5254880561408116"><ele>26.0</ele><time>2026-04-26T14:19:17Z</time></trkpt><trkpt lat="40.903655237177446" lon="0.5256415582785277"><ele>26.0</ele><time>2026-04-26T14:19:19Z</time></trkpt><trkpt lat="40.90368450919701" lon="0.5257740596763557"><ele>26.0</ele><time>2026-04-26T14:19:21Z</time></trkpt><trkpt lat="40.90374656403509" lon="0.5258699515978663"><ele>26.8</ele><time>2026-04-26T14:19:23Z</time></trkpt><trkpt lat="40.90380091378754" lon="0.5259586497215604"><ele>27.6</ele><time>2026-04-26T14:19:25Z</time></trkpt><trkpt lat="40.90385549183095" lon="0.5260182801089056"><ele>28.4</ele><time>2026-04-26T14:19:26Z</time></trkpt><trkpt lat="40.90394274129862" lon="0.5260954361266476"><ele>29.2</ele><time>2026-04-26T14:19:27Z</time></trkpt><trkpt lat="40.90404270178907" lon="0.5261849244961221"><ele>30.0</ele><time>2026-04-26T14:19:28Z</time></trkpt><trkpt lat="40.90411056487217" lon="0.5262599038335029"><ele>30.0</ele><time>2026-04-26T14:19:29Z</time></trkpt><trkpt lat="40.90415951430909" lon="0.5263205029451884"><ele>30.0</ele><time>2026-04-26T14:19:30Z</time></trkpt><trkpt lat="40.90419549233205" lon="0.52639091535834"><ele>30.0</ele><time>2026-04-26T14:19:31Z</time></trkpt><trkpt lat="40.90420736483123" lon="0.5265628941876696"><ele>30.0</ele><time>2026-04-26T14:19:33Z</time></trkpt><trkpt lat="40.90420124470978" lon="0.5266831691269379"><ele>30.0</ele><time>2026-04-26T14:19:34Z</time></trkpt><trkpt lat="40.904212176282385" lon="0.5268538650443915"><ele>30.0</ele><time>2026-04-26T14:19:35Z</time></trkpt><trkpt lat="40.90424091209631" lon="0.5270521845801032"><ele>30.0</ele><time>2026-04-26T14:19:36Z</time></trkpt><trkpt lat="40.90426295255366" lon="0.5272391857175083"><ele>30.0</ele><time>2026-04-26T14:19:37Z</time></trkpt><trkpt lat="40.90428216810188" lon="0.5273725799192586"><ele>30.0</ele><time>2026-04-26T14:19:38Z</time></trkpt><trkpt lat="40.904291603231904" lon="0.5274783713451403"><ele>31.5</ele><time>2026-04-26T14:19:39Z</time></trkpt><trkpt lat="40.90429920551713" lon="0.5275727663039936"><ele>33.0</ele><time>2026-04-26T14:19:40Z</time></trkpt><trkpt lat="40.90429560294804" lon="0.5277301837490559"><ele>34.5</ele><time>2026-04-26T14:19:42Z</time></trkpt><trkpt lat="40.90426366973979" lon="0.5278789226602258"><ele>36.0</ele><time>2026-04-26T14:19:44Z</time></trkpt><trkpt lat="40.904248550231834" lon="0.5279606244516074"><ele>37.5</ele><time>2026-04-26T14:19:45Z</time></trkpt><trkpt lat="40.904238712872065" lon="0.5280557036687272"><ele>39.0</ele><time>2026-04-26T14:19:46Z</time></trkpt><trkpt lat="40.90424354327111" lon="0.5281741201458507"><ele>38.833333333333336</ele><time>2026-04-26T14:19:47Z</time></trkpt><trkpt lat="40.904260326173386" lon="0.5282801621032179"><ele>38.666666666666664</ele><time>2026-04-26T14:19:48Z</time></trkpt><trkpt lat="40.90429369966964" lon="0.5283762661147652"><ele>38.5</ele><time>2026-04-26T14:19:49Z</time></trkpt><trkpt lat="40.904323187366934" lon="0.5284688720039387"><ele>38.33333333333333</ele><time>2026-04-26T14:19:50Z</time></trkpt><trkpt lat="40.9043323963911" lon="0.5285595576775907"><ele>38.166666666666664</ele><time>2026-04-26T14:19:51Z</time></trkpt><trkpt lat="40.904333066013436" lon="0.5287064589644459"><ele>38.0</ele><time>2026-04-26T14:19:53Z</time></trkpt><trkpt lat="40.90433491540354" lon="0.528813746576209"><ele>38.0</ele><time>2026-04-26T14:19:55Z</time></trkpt><trkpt lat="40.90436678256357" lon="0.5289200388002053"><ele>38.0</ele><time>2026-04-26T14:19:57Z</time></trkpt><trkpt lat="40.904404446654276" lon="0.5289954219246819"><ele>38.0</ele><time>2026-04-26T14:19:59Z</time></trkpt><trkpt lat="40.9044609402635" lon="0.5290323794601913"><ele>38.0</ele><time>2026-04-26T14:20:00Z</time></trkpt><trkpt lat="40.90460455528755" lon="0.5290546731164977"><ele>38.0</ele><time>2026-04-26T14:20:02Z</time></trkpt><trkpt lat="40.90475451505877" lon="0.5290849810753202"><ele>38.0</ele><time>2026-04-26T14:20:03Z</time></trkpt><trkpt lat="40.904882409610174" lon="0.5291141576826435"><ele>38.0</ele><time>2026-04-26T14:20:04Z</time></trkpt><trkpt lat="40.904996484887356" lon="0.5291471979020248"><ele>38.0</ele><time>2026-04-26T14:20:05Z</time></trkpt><trkpt lat="40.90509385170025" lon="0.5291837192046216"><ele>38.0</ele><time>2026-04-26T14:20:06Z</time></trkpt><trkpt lat="40.905176703303596" lon="0.5292226366841266"><ele>38.0</ele><time>2026-04-26T14:20:07Z</time></trkpt><trkpt lat="40.905264652711246" lon="0.529258047708412"><ele>39.5</ele><time>2026-04-26T14:20:08Z</time></trkpt><trkpt lat="40.905339121243486" lon="0.5292907601930752"><ele>41.0</ele><time>2026-04-26T14:20:09Z</time></trkpt><trkpt lat="40.9054095923198" lon="0.5292887279621065"><ele>42.5</ele><time>2026-04-26T14:20:11Z</time></trkpt><trkpt lat="40.905475929267084" lon="0.5293756652360442"><ele>44.0</ele><time>2026-04-26T14:20:13Z</time></trkpt><trkpt lat="40.905521726620925" lon="0.5294640845853031"><ele>45.5</ele><time>2026-04-26T14:20:14Z</time></trkpt><trkpt lat="40.905558183257476" lon="0.5295590981996222"><ele>47.0</ele><time>2026-04-26T14:20:15Z</time></trkpt><trkpt lat="40.905603516482195" lon="0.5296369276450332"><ele>47.5</ele><time>2026-04-26T14:20:16Z</time></trkpt><trkpt lat="40.9056651959708" lon="0.5297073008503973"><ele>48.0</ele><time>2026-04-26T14:20:17Z</time></trkpt><trkpt lat="40.90573860807011" lon="0.5297691460997878"><ele>48.5</ele><time>2026-04-26T14:20:18Z</time></trkpt><trkpt lat="40.90580116538619" lon="0.5297963193810179"><ele>49.0</ele><time>2026-04-26T14:20:19Z</time></trkpt><trkpt lat="40.90587695591651" lon="0.529834599082363"><ele>49.50000000000001</ele><time>2026-04-26T14:20:20Z</time></trkpt><trkpt lat="40.90595991424856" lon="0.5298800926501971"><ele>50.0</ele><time>2026-04-26T14:20:21Z</time></trkpt><trkpt lat="40.90601995396266" lon="0.5299330891258547"><ele>50.00000000000001</ele><time>2026-04-26T14:20:22Z</time></trkpt><trkpt lat="40.90606730673309" lon="0.5300064622832408"><ele>50.0</ele><time>2026-04-26T14:20:23Z</time></trkpt><trkpt lat="40.90613000967093" lon="0.5301385019793182"><ele>50.0</ele><time>2026-04-26T14:20:25Z</time></trkpt><trkpt lat="40.90618067590668" lon="0.5302256812898799"><ele>50.0</ele><time>2026-04-26T14:20:26Z</time></trkpt><trkpt lat="40.906238608809616" lon="0.5302989932724879"><ele>50.00000000000001</ele><time>2026-04-26T14:20:27Z</time></trkpt><trkpt lat="40.90629123406361" lon="0.5303774322625208"><ele>50.0</ele><time>2026-04-26T14:20:28Z</time></trkpt><trkpt lat="40.906339280969156" lon="0.5304494986768999"><ele>50.00000000000001</ele><time>2026-04-26T14:20:29Z</time></trkpt><trkpt lat="40.90638156331956" lon="0.5305242480539898"><ele>50.0</ele><time>2026-04-26T14:20:30Z</time></trkpt><trkpt lat="40.90636614305234" lon="0.5306129691720807"><ele>50.0</ele><time>2026-04-26T14:20:34Z</time></trkpt><trkpt lat="40.90630926083036" lon="0.5305692791046983"><ele>50.0</ele><time>2026-04-26T14:20:36Z</time></trkpt><trkpt lat="40.90627018399306" lon="0.5304856970492499"><ele>50.0</ele><time>2026-04-26T14:20:37Z</time></trkpt><trkpt lat="40.90621844320979" lon="0.5304042302486448"><ele>50.00000000000001</ele><time>2026-04-26T14:20:38Z</time></trkpt><trkpt lat="40.906163648990955" lon="0.5303388484444371"><ele>50.0</ele><time>2026-04-26T14:20:39Z</time></trkpt><trkpt lat="40.90610417269348" lon="0.530274960773786"><ele>50.0</ele><time>2026-04-26T14:20:40Z</time></trkpt><trkpt lat="40.906053538124446" lon="0.5302175758983722"><ele>50.0</ele><time>2026-04-26T14:20:41Z</time></trkpt><trkpt lat="40.905971945337164" lon="0.5301239542340733"><ele>50.0</ele><time>2026-04-26T14:20:43Z</time></trkpt><trkpt lat="40.90589303210897" lon="0.5300915024240648"><ele>50.0</ele><time>2026-04-26T14:20:45Z</time></trkpt><trkpt lat="40.905813685205615" lon="0.5301406465712767"><ele>50.0</ele><time>2026-04-26T14:20:47Z</time></trkpt><trkpt lat="40.905774252613384" lon="0.5302831081881695"><ele>54.8</ele><time>2026-04-26T14:20:49Z</time></trkpt><trkpt lat="40.905771624475996" lon="0.5303961195132002"><ele>59.6</ele><time>2026-04-26T14:20:50Z</time></trkpt><trkpt lat="40.90576474582342" lon="0.5304981347017337"><ele>64.4</ele><time>2026-04-26T14:20:51Z</time></trkpt><trkpt lat="40.90574359217432" lon="0.5306091778522314"><ele>69.2</ele><time>2026-04-26T14:20:53Z</time></trkpt><trkpt lat="40.90567424386882" lon="0.5306425648239229"><ele>74.0</ele><time>2026-04-26T14:20:55Z</time></trkpt><trkpt lat="40.905563704366536" lon="0.5305326132417855"><ele>74.0</ele><time>2026-04-26T14:20:57Z</time></trkpt><trkpt lat="40.905494290716945" lon="0.5304563404078649"><ele>74.0</ele><time>2026-04-26T14:20:58Z</time></trkpt><trkpt lat="40.905397022473075" lon="0.5303770466767059"><ele>74.0</ele><time>2026-04-26T14:21:00Z</time></trkpt><trkpt lat="40.90530095891734" lon="0.5303969200074906"><ele>74.0</ele><time>2026-04-26T14:21:02Z</time></trkpt><trkpt lat="40.90523916548943" lon="0.5304337615335942"><ele>74.0</ele><time>2026-04-26T14:21:03Z</time></trkpt><trkpt lat="40.90517442461936" lon="0.5304726621907974"><ele>74.0</ele><time>2026-04-26T14:21:04Z</time></trkpt><trkpt lat="40.90510713563974" lon="0.5305013430837496"><ele>74.5</ele><time>2026-04-26T14:21:05Z</time></trkpt><trkpt lat="40.90502833234766" lon="0.5305242696786899"><ele>75.0</ele><time>2026-04-26T14:21:06Z</time></trkpt><trkpt lat="40.9049636866746" lon="0.5305330204339898"><ele>75.5</ele><time>2026-04-26T14:21:07Z</time></trkpt><trkpt lat="40.90489483201013" lon="0.5305492067464591"><ele>76.0</ele><time>2026-04-26T14:21:08Z</time></trkpt><trkpt lat="40.90478904359657" lon="0.5306044236821136"><ele>76.5</ele><time>2026-04-26T14:21:10Z</time></trkpt><trkpt lat="40.90470669463883" lon="0.5306593668363282"><ele>77.0</ele><time>2026-04-26T14:21:12Z</time></trkpt><trkpt lat="40.904686219798045" lon="0.5308191133363827"><ele>77.0</ele><time>2026-04-26T14:21:14Z</time></trkpt><trkpt lat="40.90467400777061" lon="0.5309296099152375"><ele>77.0</ele><time>2026-04-26T14:21:15Z</time></trkpt><trkpt lat="40.90467935989873" lon="0.5310688264523435"><ele>77.0</ele><time>2026-04-26T14:21:16Z</time></trkpt><trkpt lat="40.90468511423139" lon="0.5311973169221772"><ele>77.0</ele><time>2026-04-26T14:21:17Z</time></trkpt><trkpt lat="40.90468578970633" lon="0.5313066847165685"><ele>77.0</ele><time>2026-04-26T14:21:18Z</time></trkpt><trkpt lat="40.904679648204954" lon="0.5313971418982519"><ele>77.0</ele><time>2026-04-26T14:21:19Z</time></trkpt><trkpt lat="40.90460575754181" lon="0.5315309364435912"><ele>78.6</ele><time>2026-04-26T14:21:21Z</time></trkpt><trkpt lat="40.90451596872008" lon="0.5316130069585271"><ele>80.2</ele><time>2026-04-26T14:21:23Z</time></trkpt><trkpt lat="40.90444351515717" lon="0.5316714159338017"><ele>81.8</ele><time>2026-04-26T14:21:24Z</time></trkpt><trkpt lat="40.90433635730628" lon="0.5317067681043152"><ele>83.4</ele><time>2026-04-26T14:21:25Z</time></trkpt><trkpt lat="40.90426969329325" lon="0.5317129956207531"><ele>85.0</ele><time>2026-04-26T14:21:26Z</time></trkpt><trkpt lat="40.90417264369156" lon="0.5317644974411083"><ele>85.0</ele><time>2026-04-26T14:21:28Z</time></trkpt><trkpt lat="40.904071671322775" lon="0.5318037528875977"><ele>85.0</ele><time>2026-04-26T14:21:29Z</time></trkpt><trkpt lat="40.90398782743541" lon="0.5318574361212424"><ele>85.0</ele><time>2026-04-26T14:21:30Z</time></trkpt><trkpt lat="40.903922147008466" lon="0.5318905228053138"><ele>85.0</ele><time>2026-04-26T14:21:31Z</time></trkpt><trkpt lat="40.903862910949265" lon="0.5319339618732613"><ele>85.0</ele><time>2026-04-26T14:21:32Z</time></trkpt><trkpt lat="40.90379302802705" lon="0.5320027453335415"><ele>85.0</ele><time>2026-04-26T14:21:34Z</time></trkpt><trkpt lat="40.90369022819377" lon="0.5320977760160575"><ele>87.2</ele><time>2026-04-26T14:21:36Z</time></trkpt><trkpt lat="40.90361831719478" lon="0.5321927734791989"><ele>89.4</ele><time>2026-04-26T14:21:37Z</time></trkpt><trkpt lat="40.90355645352589" lon="0.5322679760281688"><ele>91.6</ele><time>2026-04-26T14:21:38Z</time></trkpt><trkpt lat="40.90350533421428" lon="0.5323438396784925"><ele>93.8</ele><time>2026-04-26T14:21:39Z</time></trkpt><trkpt lat="40.90342464351953" lon="0.5324657806765932"><ele>96.0</ele><time>2026-04-26T14:21:41Z</time></trkpt><trkpt lat="40.90337467697281" lon="0.5325513502538096"><ele>96.0</ele><time>2026-04-26T14:21:42Z</time></trkpt><trkpt lat="40.90332187635886" lon="0.5326459644991798"><ele>96.0</ele><time>2026-04-26T14:21:43Z</time></trkpt><trkpt lat="40.90329188223677" lon="0.5327457665186586"><ele>96.0</ele><time>2026-04-26T14:21:44Z</time></trkpt><trkpt lat="40.90326015209877" lon="0.5328316943766052"><ele>96.0</ele><time>2026-04-26T14:21:45Z</time></trkpt><trkpt lat="40.903231815673195" lon="0.5329138176146013"><ele>96.0</ele><time>2026-04-26T14:21:46Z</time></trkpt><trkpt lat="40.90319174741219" lon="0.5329995173819891"><ele>96.0</ele><time>2026-04-26T14:21:47Z</time></trkpt><trkpt lat="40.90313344920528" lon="0.5330847530245946"><ele>99.4</ele><time>2026-04-26T14:21:48Z</time></trkpt><trkpt lat="40.903069458791734" lon="0.5331711753044911"><ele>102.8</ele><time>2026-04-26T14:21:49Z</time></trkpt><trkpt lat="40.90300434137041" lon="0.5332728058868168"><ele>106.20000000000002</ele><time>2026-04-26T14:21:50Z</time></trkpt><trkpt lat="40.90295225196919" lon="0.5333621035714488"><ele>109.60000000000001</ele><time>2026-04-26T14:21:51Z</time></trkpt><trkpt lat="40.90289604466911" lon="0.5334293061380045"><ele>113.0</ele><time>2026-04-26T14:21:52Z</time></trkpt><trkpt lat="40.90282196711846" lon="0.5335260429495977"><ele>112.99999999999999</ele><time>2026-04-26T14:21:54Z</time></trkpt><trkpt lat="40.902748349632134" lon="0.5336305748206847"><ele>113.0</ele><time>2026-04-26T14:21:56Z</time></trkpt><trkpt lat="40.90272415056357" lon="0.5337314454216637"><ele>113.0</ele><time>2026-04-26T14:21:58Z</time></trkpt><trkpt lat="40.90265496946381" lon="0.5337698212219628"><ele>113.0</ele><time>2026-04-26T14:22:00Z</time></trkpt><trkpt lat="40.902605598396946" lon="0.5336502125883748"><ele>112.99999999999999</ele><time>2026-04-26T14:22:02Z</time></trkpt><trkpt lat="40.9025957132344" lon="0.5335548328007308"><ele>113.0</ele><time>2026-04-26T14:22:03Z</time></trkpt><trkpt lat="40.902593430727656" lon="0.5334411060402537"><ele>113.0</ele><time>2026-04-26T14:22:04Z</time></trkpt><trkpt lat="40.902581308175684" lon="0.5333036460827153"><ele>113.00000000000001</ele><time>2026-04-26T14:22:05Z</time></trkpt><trkpt lat="40.90258325840127" lon="0.5331806417288467"><ele>113.00000000000001</ele><time>2026-04-26T14:22:06Z</time></trkpt><trkpt lat="40.90257146711583" lon="0.5330485363046452"><ele>113.0</ele><time>2026-04-26T14:22:08Z</time></trkpt><trkpt lat="40.90251819815728" lon="0.5329919058156634"><ele>113.0</ele><time>2026-04-26T14:22:10Z</time></trkpt><trkpt lat="40.90243147788325" lon="0.5330215187803339"><ele>112.60000000000001</ele><time>2026-04-26T14:22:12Z</time></trkpt><trkpt lat="40.90237411372644" lon="0.5330796859373498"><ele>112.20000000000002</ele><time>2026-04-26T14:22:13Z</time></trkpt><trkpt lat="40.90230345541207" lon="0.5331916579591242"><ele>111.8</ele><time>2026-04-26T14:22:14Z</time></trkpt><trkpt lat="40.90222090219416" lon="0.5333232905507487"><ele>111.4</ele><time>2026-04-26T14:22:15Z</time></trkpt><trkpt lat="40.902142590807394" lon="0.5334499779459229"><ele>111.0</ele><time>2026-04-26T14:22:16Z</time></trkpt><trkpt lat="40.90207544246715" lon="0.5335329090614349"><ele>111.0</ele><time>2026-04-26T14:22:17Z</time></trkpt><trkpt lat="40.90201892438083" lon="0.5335871206099676"><ele>111.0</ele><time>2026-04-26T14:22:18Z</time></trkpt><trkpt lat="40.901884076279565" lon="0.5336208685623126"><ele>111.0</ele><time>2026-04-26T14:22:20Z</time></trkpt><trkpt lat="40.90180034656466" lon="0.533631106334341"><ele>111.0</ele><time>2026-04-26T14:22:21Z</time></trkpt><trkpt lat="40.90169803100775" lon="0.5337026451837593"><ele>111.0</ele><time>2026-04-26T14:22:23Z</time></trkpt><trkpt lat="40.90165236108347" lon="0.5337930533381826"><ele>113.33333333333333</ele><time>2026-04-26T14:22:24Z</time></trkpt><trkpt lat="40.90162474002981" lon="0.5338971833279171"><ele>115.66666666666666</ele><time>2026-04-26T14:22:25Z</time></trkpt><trkpt lat="40.9015948455254" lon="0.5339783347284167"><ele>118.0</ele><time>2026-04-26T14:22:26Z</time></trkpt><trkpt lat="40.901558646702426" lon="0.5340535859972483"><ele>120.33333333333333</ele><time>2026-04-26T14:22:27Z</time></trkpt><trkpt lat="40.90152681506166" lon="0.5341311129563212"><ele>122.66666666666666</ele><time>2026-04-26T14:22:28Z</time></trkpt><trkpt lat="40.90148441087548" lon="0.5342664284810584"><ele>125.0</ele><time>2026-04-26T14:22:30Z</time></trkpt><trkpt lat="40.90145718806399" lon="0.5344037455068045"><ele>125.0</ele><time>2026-04-26T14:22:32Z</time></trkpt><trkpt lat="40.90139614504655" lon="0.5344969932700998"><ele>125.0</ele><time>2026-04-26T14:22:34Z</time></trkpt><trkpt lat="40.90139733919511" lon="0.5346331169989357"><ele>125.0</ele><time>2026-04-26T14:22:36Z</time></trkpt><trkpt lat="40.90143523574487" lon="0.534709811044879"><ele>125.0</ele><time>2026-04-26T14:22:37Z</time></trkpt><trkpt lat="40.90149608345287" lon="0.5347983336980976"><ele>125.0</ele><time>2026-04-26T14:22:38Z</time></trkpt><trkpt lat="40.901564215362676" lon="0.5348964286660144"><ele>125.4</ele><time>2026-04-26T14:22:39Z</time></trkpt><trkpt lat="40.90160421003212" lon="0.5350400241493914"><ele>125.8</ele><time>2026-04-26T14:22:41Z</time></trkpt><trkpt lat="40.901564278891755" lon="0.5351620813256884"><ele>126.19999999999999</ele><time>2026-04-26T14:22:43Z</time></trkpt><trkpt lat="40.901523029670884" lon="0.5353125159855611"><ele>126.6</ele><time>2026-04-26T14:22:45Z</time></trkpt><trkpt lat="40.901541653221265" lon="0.5354037059035343"><ele>127.0</ele><time>2026-04-26T14:22:46Z</time></trkpt><trkpt lat="40.901566578247696" lon="0.5355054684692757"><ele>127.50000000000001</ele><time>2026-04-26T14:22:47Z</time></trkpt><trkpt lat="40.90159307937195" lon="0.5355889287446645"><ele>128.0</ele><time>2026-04-26T14:22:48Z</time></trkpt><trkpt lat="40.90161877643417" lon="0.5356680431016384"><ele>128.5</ele><time>2026-04-26T14:22:49Z</time></trkpt><trkpt lat="40.901659142432116" lon="0.5357372520056048"><ele>129.0</ele><time>2026-04-26T14:22:50Z</time></trkpt><trkpt lat="40.90171351144365" lon="0.5357911719974772"><ele>129.5</ele><time>2026-04-26T14:22:51Z</time></trkpt><trkpt lat="40.9017729710322" lon="0.5358330008681557"><ele>130.0</ele><time>2026-04-26T14:22:52Z</time></trkpt><trkpt lat="40.90190377984679" lon="0.5358683469780661"><ele>130.0</ele><time>2026-04-26T14:22:54Z</time></trkpt><trkpt lat="40.90196924483839" lon="0.5358526011445023"><ele>130.0</ele><time>2026-04-26T14:22:55Z</time></trkpt><trkpt lat="40.90203155187839" lon="0.5358344097602512"><ele>130.0</ele><time>2026-04-26T14:22:56Z</time></trkpt><trkpt lat="40.90210438954823" lon="0.5358394567979781"><ele>130.0</ele><time>2026-04-26T14:22:58Z</time></trkpt><trkpt lat="40.902089433507136" lon="0.5359672155316573"><ele>130.0</ele><time>2026-04-26T14:23:01Z</time></trkpt><trkpt lat="40.90205569596171" lon="0.5360458102828801"><ele>130.0</ele><time>2026-04-26T14:23:02Z</time></trkpt><trkpt lat="40.90200539237845" lon="0.5361538603152248"><ele>130.0</ele><time>2026-04-26T14:23:03Z</time></trkpt><trkpt lat="40.9019457392871" lon="0.536307906269781"><ele>130.0</ele><time>2026-04-26T14:23:04Z</time></trkpt><trkpt lat="40.901882648776144" lon="0.5364891711943957"><ele>130.0</ele><time>2026-04-26T14:23:05Z</time></trkpt><trkpt lat="40.90183174256084" lon="0.5366650163550051"><ele>130.0</ele><time>2026-04-26T14:23:06Z</time></trkpt><trkpt lat="40.90179346484787" lon="0.5368073526920389"><ele>130.0</ele><time>2026-04-26T14:23:07Z</time></trkpt><trkpt lat="40.901760400083546" lon="0.5369302610939017"><ele>130.0</ele><time>2026-04-26T14:23:08Z</time></trkpt><trkpt lat="40.901728109020354" lon="0.5370420310445998"><ele>130.0</ele><time>2026-04-26T14:23:09Z</time></trkpt><trkpt lat="40.90168056973523" lon="0.5371556670348938"><ele>130.0</ele><time>2026-04-26T14:23:10Z</time></trkpt><trkpt lat="40.901629325881224" lon="0.5372748413324036"><ele>130.0</ele><time>2026-04-26T14:23:11Z</time></trkpt><trkpt lat="40.90157588335468" lon="0.5373895510934599"><ele>131.0</ele><time>2026-04-26T14:23:12Z</time></trkpt><trkpt lat="40.901517036841824" lon="0.5375237865508472"><ele>132.0</ele><time>2026-04-26T14:23:13Z</time></trkpt><trkpt lat="40.90145054725702" lon="0.5376419244772628"><ele>133.0</ele><time>2026-04-26T14:23:14Z</time></trkpt><trkpt lat="40.90138248407632" lon="0.5377432832697182"><ele>134.0</ele><time>2026-04-26T14:23:15Z</time></trkpt><trkpt lat="40.90129464381423" lon="0.5378302240142593"><ele>135.0</ele><time>2026-04-26T14:23:16Z</time></trkpt><trkpt lat="40.901206910936004" lon="0.5379230974417766"><ele>135.2</ele><time>2026-04-26T14:23:17Z</time></trkpt><trkpt lat="40.90112864542504" lon="0.5380332119456961"><ele>135.4</ele><time>2026-04-26T14:23:18Z</time></trkpt><trkpt lat="40.90107021716781" lon="0.5381252807574679"><ele>135.6</ele><time>2026-04-26T14:23:19Z</time></trkpt><trkpt lat="40.90100921417934" lon="0.5382188148516293"><ele>135.8</ele><time>2026-04-26T14:23:20Z</time></trkpt><trkpt lat="40.900939530149635" lon="0.5383179191904383"><ele>136.0</ele><time>2026-04-26T14:23:21Z</time></trkpt><trkpt lat="40.90085538346181" lon="0.5384609728742987"><ele>136.25</ele><time>2026-04-26T14:23:22Z</time></trkpt><trkpt lat="40.90077453431913" lon="0.5386083968937528"><ele>136.5</ele><time>2026-04-26T14:23:23Z</time></trkpt><trkpt lat="40.900710209948485" lon="0.5387357375090405"><ele>136.75</ele><time>2026-04-26T14:23:24Z</time></trkpt><trkpt lat="40.90065327127079" lon="0.5388480362517498"><ele>137.0</ele><time>2026-04-26T14:23:25Z</time></trkpt><trkpt lat="40.9005825220823" lon="0.5389591890340157"><ele>137.75</ele><time>2026-04-26T14:23:26Z</time></trkpt><trkpt lat="40.90050300999525" lon="0.5390586820426131"><ele>138.5</ele><time>2026-04-26T14:23:27Z</time></trkpt><trkpt lat="40.90042480469769" lon="0.5391693260216027"><ele>139.25</ele><time>2026-04-26T14:23:28Z</time></trkpt><trkpt lat="40.90033780703877" lon="0.5392839119815646"><ele>140.0</ele><time>2026-04-26T14:23:29Z</time></trkpt><trkpt lat="40.90025741201381" lon="0.539379758296812"><ele>140.0</ele><time>2026-04-26T14:23:30Z</time></trkpt><trkpt lat="40.900177281029706" lon="0.5394518969359446"><ele>140.0</ele><time>2026-04-26T14:23:31Z</time></trkpt><trkpt lat="40.90010222255213" lon="0.5395227531783824"><ele>140.0</ele><time>2026-04-26T14:23:32Z</time></trkpt><trkpt lat="40.90004878230129" lon="0.5395949188763359"><ele>140.0</ele><time>2026-04-26T14:23:33Z</time></trkpt><trkpt lat="40.89999009917238" lon="0.5396839385003059"><ele>140.0</ele><time>2026-04-26T14:23:34Z</time></trkpt><trkpt lat="40.89994294853563" lon="0.5397601753243781"><ele>140.0</ele><time>2026-04-26T14:23:35Z</time></trkpt><trkpt lat="40.89990097292484" lon="0.5398469022893335"><ele>139.8</ele><time>2026-04-26T14:23:36Z</time></trkpt><trkpt lat="40.899855265642124" lon="0.5399375901845832"><ele>139.6</ele><time>2026-04-26T14:23:37Z</time></trkpt><trkpt lat="40.899804372898245" lon="0.5400152652987081"><ele>139.4</ele><time>2026-04-26T14:23:38Z</time></trkpt><trkpt lat="40.89973737746158" lon="0.5401006129899497"><ele>139.2</ele><time>2026-04-26T14:23:39Z</time></trkpt><trkpt lat="40.89966859619037" lon="0.5402140083605153"><ele>139.0</ele><time>2026-04-26T14:23:40Z</time></trkpt><trkpt lat="40.8996085516917" lon="0.5403326519256586"><ele>140.5</ele><time>2026-04-26T14:23:41Z</time></trkpt><trkpt lat="40.89958076205813" lon="0.540480573772861"><ele>142.0</ele><time>2026-04-26T14:23:42Z</time></trkpt><trkpt lat="40.89953178422835" lon="0.540682912950067"><ele>143.5</ele><time>2026-04-26T14:23:43Z</time></trkpt><trkpt lat="40.899486904889095" lon="0.5408790446987629"><ele>145.0</ele><time>2026-04-26T14:23:44Z</time></trkpt><trkpt lat="40.899446969678046" lon="0.5410256495514925"><ele>145.0</ele><time>2026-04-26T14:23:45Z</time></trkpt><trkpt lat="40.89941572686205" lon="0.541140415175509"><ele>145.0</ele><time>2026-04-26T14:23:46Z</time></trkpt><trkpt lat="40.89938742867026" lon="0.5412432296737795"><ele>145.0</ele><time>2026-04-26T14:23:47Z</time></trkpt><trkpt lat="40.89934341086469" lon="0.5414103713444102"><ele>145.0</ele><time>2026-04-26T14:23:49Z</time></trkpt><trkpt lat="40.89933375990705" lon="0.5415006307709017"><ele>145.0</ele><time>2026-04-26T14:23:50Z</time></trkpt><trkpt lat="40.8993462157057" lon="0.5415980694698266"><ele>145.75</ele><time>2026-04-26T14:23:51Z</time></trkpt><trkpt lat="40.89936441010392" lon="0.5417140523709272"><ele>146.5</ele><time>2026-04-26T14:23:52Z</time></trkpt><trkpt lat="40.89938861453068" lon="0.5419022008379007"><ele>147.25</ele><time>2026-04-26T14:23:53Z</time></trkpt><trkpt lat="40.8994279799455" lon="0.5421539964815406"><ele>148.0</ele><time>2026-04-26T14:23:54Z</time></trkpt><trkpt lat="40.89946686318346" lon="0.5424235211883423"><ele>149.0</ele><time>2026-04-26T14:23:55Z</time></trkpt><trkpt lat="40.8994939559416" lon="0.5426286251238895"><ele>150.0</ele><time>2026-04-26T14:23:56Z</time></trkpt><trkpt lat="40.89951416180926" lon="0.5427872031396365"><ele>151.0</ele><time>2026-04-26T14:23:57Z</time></trkpt><trkpt lat="40.89952991095216" lon="0.542933023300747"><ele>152.0</ele><time>2026-04-26T14:23:58Z</time></trkpt><trkpt lat="40.89954335455968" lon="0.5430538600555661"><ele>152.83333333333331</ele><time>2026-04-26T14:23:59Z</time></trkpt><trkpt lat="40.89955571292609" lon="0.5431652748473578"><ele>153.66666666666666</ele><time>2026-04-26T14:24:00Z</time></trkpt><trkpt lat="40.89956831748574" lon="0.5432520201108311"><ele>154.5</ele><time>2026-04-26T14:24:01Z</time></trkpt><trkpt lat="40.899582523963545" lon="0.5433372373544987"><ele>155.33333333333334</ele><time>2026-04-26T14:24:02Z</time></trkpt><trkpt lat="40.899623180006195" lon="0.5434858176399915"><ele>156.16666666666669</ele><time>2026-04-26T14:24:04Z</time></trkpt><trkpt lat="40.899666047558675" lon="0.543599729062854"><ele>157.0</ele><time>2026-04-26T14:24:06Z</time></trkpt><trkpt lat="40.89971232733462" lon="0.543689917113452"><ele>155.66666666666669</ele><time>2026-04-26T14:24:08Z</time></trkpt><trkpt lat="40.899809168197514" lon="0.5437651083865768"><ele>154.33333333333334</ele><time>2026-04-26T14:24:10Z</time></trkpt><trkpt lat="40.899876143855465" lon="0.543801955634534"><ele>153.0</ele><time>2026-04-26T14:24:11Z</time></trkpt><trkpt lat="40.89993641914951" lon="0.5438421574658863"><ele>151.66666666666666</ele><time>2026-04-26T14:24:12Z</time></trkpt><trkpt lat="40.9000370506242" lon="0.5439348442191804"><ele>150.33333333333331</ele><time>2026-04-26T14:24:14Z</time></trkpt><trkpt lat="40.900080013792405" lon="0.5439994887061678"><ele>149.0</ele><time>2026-04-26T14:24:15Z</time></trkpt><trkpt lat="40.900112908700066" lon="0.5440720225474868"><ele>148.83333333333331</ele><time>2026-04-26T14:24:16Z</time></trkpt><trkpt lat="40.9001490908736" lon="0.5441406158496375"><ele>148.66666666666666</ele><time>2026-04-26T14:24:17Z</time></trkpt><trkpt lat="40.90022857944386" lon="0.5442121431027676"><ele>148.5</ele><time>2026-04-26T14:24:19Z</time></trkpt><trkpt lat="40.900299123723165" lon="0.5442942622109271"><ele>148.33333333333334</ele><time>2026-04-26T14:24:22Z</time></trkpt><trkpt lat="40.900306355955166" lon="0.5444086434817982"><ele>148.16666666666669</ele><time>2026-04-26T14:24:24Z</time></trkpt><trkpt lat="40.90030005531624" lon="0.5445016645828236"><ele>148.0</ele><time>2026-04-26T14:24:25Z</time></trkpt><trkpt lat="40.90029867302719" lon="0.544629655333485"><ele>147.5</ele><time>2026-04-26T14:24:26Z</time></trkpt><trkpt lat="40.90031995438543" lon="0.5447557666783156"><ele>147.0</ele><time>2026-04-26T14:24:27Z</time></trkpt><trkpt lat="40.90036374504154" lon="0.5448660896888798"><ele>146.5</ele><time>2026-04-26T14:24:28Z</time></trkpt><trkpt lat="40.90041416786943" lon="0.5449450111253843"><ele>146.0</ele><time>2026-04-26T14:24:29Z</time></trkpt><trkpt lat="40.90046015013984" lon="0.5450050085989108"><ele>145.5</ele><time>2026-04-26T14:24:30Z</time></trkpt><trkpt lat="40.900563254937936" lon="0.5450607445133513"><ele>145.0</ele><time>2026-04-26T14:24:32Z</time></trkpt><trkpt lat="40.90066863365783" lon="0.5451043865146732"><ele>145.0</ele><time>2026-04-26T14:24:34Z</time></trkpt><trkpt lat="40.90075299389268" lon="0.5452191864835134"><ele>145.0</ele><time>2026-04-26T14:24:36Z</time></trkpt><trkpt lat="40.90078858487845" lon="0.5453697614701982"><ele>145.0</ele><time>2026-04-26T14:24:38Z</time></trkpt><trkpt lat="40.90080414419246" lon="0.5455826913421846"><ele>145.0</ele><time>2026-04-26T14:24:40Z</time></trkpt><trkpt lat="40.90081498260017" lon="0.5457535227598767"><ele>145.25</ele><time>2026-04-26T14:24:41Z</time></trkpt><trkpt lat="40.90082869931865" lon="0.5459092528704598"><ele>145.5</ele><time>2026-04-26T14:24:42Z</time></trkpt><trkpt lat="40.90084269349843" lon="0.5461013042471384"><ele>145.75</ele><time>2026-04-26T14:24:43Z</time></trkpt><trkpt lat="40.90086892047406" lon="0.5462729145883146"><ele>146.0</ele><time>2026-04-26T14:24:44Z</time></trkpt><trkpt lat="40.900897624901496" lon="0.5464076107268494"><ele>148.0</ele><time>2026-04-26T14:24:45Z</time></trkpt><trkpt lat="40.900921628567616" lon="0.5465278663388236"><ele>150.0</ele><time>2026-04-26T14:24:46Z</time></trkpt><trkpt lat="40.90094171245469" lon="0.5466630033073484"><ele>152.0</ele><time>2026-04-26T14:24:47Z</time></trkpt><trkpt lat="40.90096357384065" lon="0.5468187407997277"><ele>154.0</ele><time>2026-04-26T14:24:48Z</time></trkpt><trkpt lat="40.900994527840275" lon="0.5469638072912151"><ele>156.0</ele><time>2026-04-26T14:24:49Z</time></trkpt><trkpt lat="40.901038543611854" lon="0.5471102536819331"><ele>159.5</ele><time>2026-04-26T14:24:50Z</time></trkpt><trkpt lat="40.90109816383995" lon="0.54726757607892"><ele>163.0</ele><time>2026-04-26T14:24:51Z</time></trkpt><trkpt lat="40.90117402346934" lon="0.5474589642233162"><ele>166.5</ele><time>2026-04-26T14:24:52Z</time></trkpt><trkpt lat="40.90123214199482" lon="0.5476349089259879"><ele>170.0</ele><time>2026-04-26T14:24:53Z</time></trkpt><trkpt lat="40.90126768524627" lon="0.5477589115618938"><ele>170.0</ele><time>2026-04-26T14:24:54Z</time></trkpt><trkpt lat="40.90128937348441" lon="0.5478437145279828"><ele>170.0</ele><time>2026-04-26T14:24:55Z</time></trkpt><trkpt lat="40.90134901073122" lon="0.5479781245281498"><ele>170.0</ele><time>2026-04-26T14:24:57Z</time></trkpt><trkpt lat="40.90139808059168" lon="0.5480482216498843"><ele>170.0</ele><time>2026-04-26T14:24:58Z</time></trkpt><trkpt lat="40.9014534641276" lon="0.5481037429981791"><ele>170.0</ele><time>2026-04-26T14:24:59Z</time></trkpt><trkpt lat="40.901520608235565" lon="0.5481503999958434"><ele>170.0</ele><time>2026-04-26T14:25:00Z</time></trkpt><trkpt lat="40.90158013115764" lon="0.5481951106730356"><ele>171.0</ele><time>2026-04-26T14:25:01Z</time></trkpt><trkpt lat="40.90162750119548" lon="0.5482707719092446"><ele>172.0</ele><time>2026-04-26T14:25:02Z</time></trkpt><trkpt lat="40.9016777872192" lon="0.5483775638037319"><ele>173.0</ele><time>2026-04-26T14:25:03Z</time></trkpt><trkpt lat="40.90170280925111" lon="0.5484783041276057"><ele>174.0</ele><time>2026-04-26T14:25:04Z</time></trkpt><trkpt lat="40.90167841059493" lon="0.5486325739760679"><ele>175.0</ele><time>2026-04-26T14:25:06Z</time></trkpt><trkpt lat="40.901667124385725" lon="0.5487793384702755"><ele>176.0</ele><time>2026-04-26T14:25:08Z</time></trkpt><trkpt lat="40.90169699801738" lon="0.5489289130780346"><ele>177.0</ele><time>2026-04-26T14:25:10Z</time></trkpt><trkpt lat="40.90171121685027" lon="0.54901397343149"><ele>178.0</ele><time>2026-04-26T14:25:11Z</time></trkpt><trkpt lat="40.90172854527508" lon="0.5491126567190572"><ele>179.0</ele><time>2026-04-26T14:25:12Z</time></trkpt><trkpt lat="40.90173819659608" lon="0.5492127094681725"><ele>180.0</ele><time>2026-04-26T14:25:13Z</time></trkpt><trkpt lat="40.901736629481235" lon="0.5493043713729335"><ele>181.0</ele><time>2026-04-26T14:25:14Z</time></trkpt><trkpt lat="40.901685023603406" lon="0.549422493223092"><ele>181.0</ele><time>2026-04-26T14:25:16Z</time></trkpt><trkpt lat="40.90163796866691" lon="0.5494950042434472"><ele>181.0</ele><time>2026-04-26T14:25:18Z</time></trkpt><trkpt lat="40.901624045386995" lon="0.5496478529904258"><ele>181.0</ele><time>2026-04-26T14:25:20Z</time></trkpt><trkpt lat="40.90162196248393" lon="0.5497373691125045"><ele>181.0</ele><time>2026-04-26T14:25:21Z</time></trkpt><trkpt lat="40.90163984065744" lon="0.5498679982285459"><ele>181.0</ele><time>2026-04-26T14:25:23Z</time></trkpt><trkpt lat="40.90166430358339" lon="0.5499461740819173"><ele>181.0</ele><time>2026-04-26T14:25:24Z</time></trkpt><trkpt lat="40.901699168603116" lon="0.550026841653723"><ele>181.16666666666669</ele><time>2026-04-26T14:25:25Z</time></trkpt><trkpt lat="40.90174724888278" lon="0.5501106764825328"><ele>181.33333333333334</ele><time>2026-04-26T14:25:26Z</time></trkpt><trkpt lat="40.90179036198304" lon="0.5501824714448459"><ele>181.5</ele><time>2026-04-26T14:25:27Z</time></trkpt><trkpt lat="40.901869103921165" lon="0.5503022817574246"><ele>181.66666666666666</ele><time>2026-04-26T14:25:29Z</time></trkpt><trkpt lat="40.901913254275414" lon="0.5503775302109042"><ele>181.83333333333331</ele><time>2026-04-26T14:25:30Z</time></trkpt><trkpt lat="40.901953284083866" lon="0.5504598251793598"><ele>182.0</ele><time>2026-04-26T14:25:31Z</time></trkpt><trkpt lat="40.90199139567457" lon="0.5505634127496417"><ele>185.33333333333331</ele><time>2026-04-26T14:25:32Z</time></trkpt><trkpt lat="40.902021617274755" lon="0.5506795633333225"><ele>188.66666666666666</ele><time>2026-04-26T14:25:33Z</time></trkpt><trkpt lat="40.90203517394772" lon="0.5507635235730642"><ele>192.0</ele><time>2026-04-26T14:25:34Z</time></trkpt><trkpt lat="40.902031605565995" lon="0.5508587407340139"><ele>195.33333333333331</ele><time>2026-04-26T14:25:35Z</time></trkpt><trkpt lat="40.902025978429016" lon="0.5509895209234327"><ele>198.66666666666666</ele><time>2026-04-26T14:25:37Z</time></trkpt><trkpt lat="40.90204411371439" lon="0.5510822636883894"><ele>202.0</ele><time>2026-04-26T14:25:39Z</time></trkpt><trkpt lat="40.902114419189914" lon="0.5511833261023998"><ele>200.66666666666666</ele><time>2026-04-26T14:25:41Z</time></trkpt><trkpt lat="40.902179932382836" lon="0.551256614825999"><ele>199.33333333333331</ele><time>2026-04-26T14:25:42Z</time></trkpt><trkpt lat="40.90224821397882" lon="0.5513301908217966"><ele>198.0</ele><time>2026-04-26T14:25:43Z</time></trkpt><trkpt lat="40.902306383859866" lon="0.5513862261037481"><ele>196.66666666666669</ele><time>2026-04-26T14:25:44Z</time></trkpt><trkpt lat="40.902363259501755" lon="0.5514263369222407"><ele>195.33333333333334</ele><time>2026-04-26T14:25:45Z</time></trkpt><trkpt lat="40.90242638624078" lon="0.5514485398796363"><ele>194.0</ele><time>2026-04-26T14:25:46Z</time></trkpt><trkpt lat="40.90250383020947" lon="0.5514693977487655"><ele>197.79999999999998</ele><time>2026-04-26T14:25:47Z</time></trkpt><trkpt lat="40.90258553509338" lon="0.5515114918038885"><ele>201.6</ele><time>2026-04-26T14:25:48Z</time></trkpt><trkpt lat="40.90266218887151" lon="0.5515572794531701"><ele>205.4</ele><time>2026-04-26T14:25:49Z</time></trkpt><trkpt lat="40.90272895064696" lon="0.5516119080042909"><ele>209.2</ele><time>2026-04-26T14:25:50Z</time></trkpt><trkpt lat="40.902775561438254" lon="0.5516778004438994"><ele>213.0</ele><time>2026-04-26T14:25:51Z</time></trkpt><trkpt lat="40.902823845945086" lon="0.5518400645060417"><ele>213.0</ele><time>2026-04-26T14:25:53Z</time></trkpt><trkpt lat="40.90285851780677" lon="0.5519433345890901"><ele>213.0</ele><time>2026-04-26T14:25:54Z</time></trkpt><trkpt lat="40.902899040615246" lon="0.5520543439921209"><ele>213.0</ele><time>2026-04-26T14:25:55Z</time></trkpt><trkpt lat="40.90294476173925" lon="0.5521704768255913"><ele>213.0</ele><time>2026-04-26T14:25:56Z</time></trkpt><trkpt lat="40.90298155010471" lon="0.5522732320637221"><ele>213.0</ele><time>2026-04-26T14:25:57Z</time></trkpt><trkpt lat="40.903004087959545" lon="0.5523556144217594"><ele>213.0</ele><time>2026-04-26T14:25:58Z</time></trkpt><trkpt lat="40.90301613762832" lon="0.5524464330878"><ele>212.83333333333334</ele><time>2026-04-26T14:25:59Z</time></trkpt><trkpt lat="40.903021536920676" lon="0.5525407453820864"><ele>212.66666666666669</ele><time>2026-04-26T14:26:00Z</time></trkpt><trkpt lat="40.90301831068979" lon="0.5526250009619796"><ele>212.5</ele><time>2026-04-26T14:26:01Z</time></trkpt><trkpt lat="40.90301874352876" lon="0.5527775173994501"><ele>212.33333333333334</ele><time>2026-04-26T14:26:03Z</time></trkpt><trkpt lat="40.903067076440806" lon="0.5529206915860684"><ele>212.16666666666669</ele><time>2026-04-26T14:26:05Z</time></trkpt><trkpt lat="40.90310596488183" lon="0.5529928595764568"><ele>212.0</ele><time>2026-04-26T14:26:06Z</time></trkpt><trkpt lat="40.903161199133784" lon="0.5530567277978012"><ele>211.16666666666669</ele><time>2026-04-26T14:26:07Z</time></trkpt><trkpt lat="40.90322447380219" lon="0.5531167071852658"><ele>210.33333333333334</ele><time>2026-04-26T14:26:08Z</time></trkpt><trkpt lat="40.903296063217546" lon="0.5531827107248636"><ele>209.5</ele><time>2026-04-26T14:26:09Z</time></trkpt><trkpt lat="40.90335437973193" lon="0.5532414767549001"><ele>208.66666666666669</ele><time>2026-04-26T14:26:10Z</time></trkpt><trkpt lat="40.903406410663976" lon="0.5533085882753402"><ele>207.83333333333334</ele><time>2026-04-26T14:26:11Z</time></trkpt><trkpt lat="40.90345467419091" lon="0.553452413106304"><ele>207.0</ele><time>2026-04-26T14:26:13Z</time></trkpt><trkpt lat="40.90346163171845" lon="0.5535459005008341"><ele>207.16666666666666</ele><time>2026-04-26T14:26:14Z</time></trkpt><trkpt lat="40.903452366546375" lon="0.5536385879691251"><ele>207.33333333333331</ele><time>2026-04-26T14:26:15Z</time></trkpt><trkpt lat="40.90343327457573" lon="0.5537365066327405"><ele>207.5</ele><time>2026-04-26T14:26:16Z</time></trkpt><trkpt lat="40.903407890492005" lon="0.5538332065767215"><ele>207.66666666666666</ele><time>2026-04-26T14:26:17Z</time></trkpt><trkpt lat="40.90337739397265" lon="0.5539446474882185"><ele>207.83333333333331</ele><time>2026-04-26T14:26:18Z</time></trkpt><trkpt lat="40.90333429851845" lon="0.5540787382753273"><ele>208.0</ele><time>2026-04-26T14:26:19Z</time></trkpt><trkpt lat="40.90329468815242" lon="0.5542274686155843"><ele>207.99999999999997</ele><time>2026-04-26T14:26:20Z</time></trkpt><trkpt lat="40.903265382287245" lon="0.5543646099446237"><ele>208.0</ele><time>2026-04-26T14:26:21Z</time></trkpt><trkpt lat="40.90324077082643" lon="0.5544804657439906"><ele>208.0</ele><time>2026-04-26T14:26:22Z</time></trkpt><trkpt lat="40.90322369747573" lon="0.5545698938439239"><ele>208.0</ele><time>2026-04-26T14:26:23Z</time></trkpt><trkpt lat="40.90320988628477" lon="0.5546673795800897"><ele>207.99999999999997</ele><time>2026-04-26T14:26:24Z</time></trkpt><trkpt lat="40.9031929770828" lon="0.5547714087545387"><ele>208.0</ele><time>2026-04-26T14:26:25Z</time></trkpt><trkpt lat="40.90318282189503" lon="0.5548842321044732"><ele>208.33333333333331</ele><time>2026-04-26T14:26:26Z</time></trkpt><trkpt lat="40.90317642801126" lon="0.55498164777139"><ele>208.66666666666666</ele><time>2026-04-26T14:26:27Z</time></trkpt><trkpt lat="40.90316973021186" lon="0.5550726430024331"><ele>209.0</ele><time>2026-04-26T14:26:28Z</time></trkpt><trkpt lat="40.903169697744225" lon="0.5552311911350621"><ele>209.33333333333331</ele><time>2026-04-26T14:26:30Z</time></trkpt><trkpt lat="40.903179659140605" lon="0.5553155089987125"><ele>209.66666666666666</ele><time>2026-04-26T14:26:31Z</time></trkpt><trkpt lat="40.90320119514889" lon="0.5554005058662564"><ele>210.0</ele><time>2026-04-26T14:26:32Z</time></trkpt><trkpt lat="40.90322938124567" lon="0.5554887528900181"><ele>210.0</ele><time>2026-04-26T14:26:33Z</time></trkpt><trkpt lat="40.90326958827177" lon="0.5555792800200667"><ele>210.0</ele><time>2026-04-26T14:26:34Z</time></trkpt><trkpt lat="40.9033062964588" lon="0.5556596977497354"><ele>210.0</ele><time>2026-04-26T14:26:35Z</time></trkpt><trkpt lat="40.9033774811114" lon="0.5557670452139241"><ele>210.0</ele><time>2026-04-26T14:26:37Z</time></trkpt><trkpt lat="40.903486915226544" lon="0.5558621168927715"><ele>210.0</ele><time>2026-04-26T14:26:39Z</time></trkpt><trkpt lat="40.90355013260648" lon="0.5558916291214897"><ele>210.0</ele><time>2026-04-26T14:26:40Z</time></trkpt><trkpt lat="40.903611654588964" lon="0.5559126087665495"><ele>210.0</ele><time>2026-04-26T14:26:41Z</time></trkpt><trkpt lat="40.903719799272764" lon="0.555951686018376"><ele>210.0</ele><time>2026-04-26T14:26:43Z</time></trkpt><trkpt lat="40.90380408047097" lon="0.5560153686467509"><ele>210.0</ele><time>2026-04-26T14:26:45Z</time></trkpt><trkpt lat="40.90384492182413" lon="0.5561293718579492"><ele>210.0</ele><time>2026-04-26T14:26:47Z</time></trkpt><trkpt lat="40.903851544160034" lon="0.5562196896845532"><ele>210.0</ele><time>2026-04-26T14:26:48Z</time></trkpt><trkpt lat="40.903855018782664" lon="0.5563265872633867"><ele>210.66666666666666</ele><time>2026-04-26T14:26:49Z</time></trkpt><trkpt lat="40.90385604591105" lon="0.5564427466382978"><ele>211.33333333333331</ele><time>2026-04-26T14:26:50Z</time></trkpt><trkpt lat="40.903851416486155" lon="0.5565440579370795"><ele>212.0</ele><time>2026-04-26T14:26:51Z</time></trkpt><trkpt lat="40.903852639200295" lon="0.5566296824606831"><ele>212.66666666666666</ele><time>2026-04-26T14:26:52Z</time></trkpt><trkpt lat="40.90387165760334" lon="0.5567824105835605"><ele>213.33333333333331</ele><time>2026-04-26T14:26:54Z</time></trkpt><trkpt lat="40.90388903307543" lon="0.5568719663384353"><ele>214.0</ele><time>2026-04-26T14:26:55Z</time></trkpt><trkpt lat="40.90391356801701" lon="0.5569561913628663"><ele>215.79999999999998</ele><time>2026-04-26T14:26:56Z</time></trkpt><trkpt lat="40.90393198738699" lon="0.5570375584433481"><ele>217.59999999999997</ele><time>2026-04-26T14:26:57Z</time></trkpt><trkpt lat="40.9039481628612" lon="0.5571920171760146"><ele>219.4</ele><time>2026-04-26T14:26:59Z</time></trkpt><trkpt lat="40.90391295486752" lon="0.5573335188938418"><ele>221.2</ele><time>2026-04-26T14:27:01Z</time></trkpt><trkpt lat="40.90385517726549" lon="0.557407704347874"><ele>223.0</ele><time>2026-04-26T14:27:02Z</time></trkpt><trkpt lat="40.903782323157344" lon="0.5575208730406637"><ele>222.99999999999997</ele><time>2026-04-26T14:27:03Z</time></trkpt><trkpt lat="40.903726190134755" lon="0.5576203019783064"><ele>223.0</ele><time>2026-04-26T14:27:04Z</time></trkpt><trkpt lat="40.903683730106806" lon="0.5576831480686114"><ele>223.0</ele><time>2026-04-26T14:27:05Z</time></trkpt><trkpt lat="40.903642630321585" lon="0.5577650412680242"><ele>223.0</ele><time>2026-04-26T14:27:08Z</time></trkpt><trkpt lat="40.90359904336427" lon="0.5579249794267856"><ele>222.99999999999997</ele><time>2026-04-26T14:27:10Z</time></trkpt><trkpt lat="40.90358126888531" lon="0.5580053522012116"><ele>223.0</ele><time>2026-04-26T14:27:11Z</time></trkpt><trkpt lat="40.90354656110609" lon="0.5581351396147309"><ele>223.33333333333331</ele><time>2026-04-26T14:27:13Z</time></trkpt><trkpt lat="40.90352082014023" lon="0.5582709730026971"><ele>223.66666666666666</ele><time>2026-04-26T14:27:15Z</time></trkpt><trkpt lat="40.90353591142517" lon="0.5583890440229915"><ele>224.0</ele><time>2026-04-26T14:27:17Z</time></trkpt><trkpt lat="40.9035427082255" lon="0.5584940237777437"><ele>224.33333333333331</ele><time>2026-04-26T14:27:20Z</time></trkpt><trkpt lat="40.90354785461629" lon="0.5585779830700679"><ele>224.66666666666666</ele><time>2026-04-26T14:27:26Z</time></trkpt><trkpt lat="40.903559646440485" lon="0.5586601125344518"><ele>225.0</ele><time>2026-04-26T14:38:13Z</time></trkpt><trkpt lat="40.903525687119036" lon="0.558751348096101"><ele>223.33333333333334</ele><time>2026-04-26T14:38:16Z</time></trkpt><trkpt lat="40.903476526114275" lon="0.5588134519967598"><ele>221.66666666666669</ele><time>2026-04-26T14:38:19Z</time></trkpt><trkpt lat="40.903406803422996" lon="0.5589031992845933"><ele>220.0</ele><time>2026-04-26T14:38:23Z</time></trkpt><trkpt lat="40.90334767370016" lon="0.5589581644958372"><ele>218.33333333333334</ele><time>2026-04-26T14:38:26.999Z</time></trkpt><trkpt lat="40.90333052493391" lon="0.5590756806323772"><ele>216.66666666666669</ele><time>2026-04-26T14:38:30.999Z</time></trkpt><trkpt lat="40.903289874457926" lon="0.5591587436983233"><ele>215.0</ele><time>2026-04-26T14:38:32.999Z</time></trkpt><trkpt lat="40.90323883344226" lon="0.5592390365834257"><ele>215.00000000000003</ele><time>2026-04-26T14:38:35.999Z</time></trkpt><trkpt lat="40.90317803923776" lon="0.5593227826768526"><ele>215.0</ele><time>2026-04-26T14:38:37.999Z</time></trkpt><trkpt lat="40.90310377035797" lon="0.559367793374585"><ele>215.0</ele><time>2026-04-26T14:38:40.999Z</time></trkpt><trkpt lat="40.90320978364126" lon="0.5593955594109837"><ele>215.0</ele><time>2026-04-26T14:39:05Z</time></trkpt><trkpt lat="40.90329258350334" lon="0.5593871998547956"><ele>215.00000000000003</ele><time>2026-04-26T14:39:12Z</time></trkpt><trkpt lat="40.903343657281354" lon="0.5593180278339192"><ele>215.0</ele><time>2026-04-26T14:39:17Z</time></trkpt><trkpt lat="40.90355320557568" lon="0.5592251372412399"><ele>215.0</ele><time>2026-04-26T14:39:34Z</time></trkpt><trkpt lat="40.90361929254416" lon="0.5592689071407156"><ele>215.0</ele><time>2026-04-26T14:39:40Z</time></trkpt><trkpt lat="40.90369655486408" lon="0.5592821566710388"><ele>215.0</ele><time>2026-04-26T14:39:44Z</time></trkpt><trkpt lat="40.90376411183743" lon="0.5593201454654977"><ele>215.0</ele><time>2026-04-26T14:39:47Z</time></trkpt><trkpt lat="40.90385075739402" lon="0.5593070432799085"><ele>215.0</ele><time>2026-04-26T14:39:52Z</time></trkpt><trkpt lat="40.90391739697071" lon="0.5592772011912144"><ele>215.0</ele><time>2026-04-26T14:39:56Z</time></trkpt><trkpt lat="40.90398303825295" lon="0.5592844239591463"><ele>215.0</ele><time>2026-04-26T14:39:58Z</time></trkpt><trkpt lat="40.90402332457503" lon="0.5593736703289388"><ele>215.00000000000003</ele><time>2026-04-26T14:40:06Z</time></trkpt><trkpt lat="40.90407171870063" lon="0.5594715900842866"><ele>215.0</ele><time>2026-04-26T14:40:10Z</time></trkpt><trkpt lat="40.9041186893233" lon="0.5595411951263461"><ele>215.0</ele><time>2026-04-26T14:40:15Z</time></trkpt><trkpt lat="40.90417298567284" lon="0.5596069047473994"><ele>215.0</ele><time>2026-04-26T14:40:18Z</time></trkpt><trkpt lat="40.904221208487556" lon="0.559699208901174"><ele>215.00000000000003</ele><time>2026-04-26T14:40:41.999Z</time></trkpt><trkpt lat="40.90426318025673" lon="0.5597705834261406"><ele>215.0</ele><time>2026-04-26T14:40:44.999Z</time></trkpt><trkpt lat="40.90433049944505" lon="0.5598125320227525"><ele>215.50000000000003</ele><time>2026-04-26T14:40:47.999Z</time></trkpt><trkpt lat="40.90438184332849" lon="0.5598725068074608"><ele>216.0</ele><time>2026-04-26T14:40:50.999Z</time></trkpt><trkpt lat="40.90444108489806" lon="0.5599428546200563"><ele>216.5</ele><time>2026-04-26T14:40:56.999Z</time></trkpt><trkpt lat="40.9043638914725" lon="0.5599964545539136"><ele>217.0</ele><time>2026-04-26T14:41:02.999Z</time></trkpt><trkpt lat="40.904293864662066" lon="0.5599934152569469"><ele>217.50000000000003</ele><time>2026-04-26T14:41:05Z</time></trkpt><trkpt lat="40.90419447298244" lon="0.5599268186455667"><ele>218.0</ele><time>2026-04-26T14:41:09Z</time></trkpt><trkpt lat="40.9041251014041" lon="0.5599537800831219"><ele>215.50000000000003</ele><time>2026-04-26T14:41:14Z</time></trkpt><trkpt lat="40.90403146590385" lon="0.5600109052175309"><ele>213.0</ele><time>2026-04-26T14:41:17Z</time></trkpt><trkpt lat="40.903950216148864" lon="0.5600651032162928"><ele>210.5</ele><time>2026-04-26T14:41:21Z</time></trkpt><trkpt lat="40.90387364711778" lon="0.5601195011900123"><ele>208.0</ele><time>2026-04-26T14:41:23Z</time></trkpt><trkpt lat="40.903793772303416" lon="0.5601391877519797"><ele>205.50000000000003</ele><time>2026-04-26T14:41:24Z</time></trkpt><trkpt lat="40.90372643937125" lon="0.5601745917183896"><ele>203.0</ele><time>2026-04-26T14:41:26Z</time></trkpt><trkpt lat="40.90366975121916" lon="0.5602140451993197"><ele>203.00000000000003</ele><time>2026-04-26T14:41:28Z</time></trkpt><trkpt lat="40.903595907960074" lon="0.5602589682228342"><ele>203.0</ele><time>2026-04-26T14:41:30Z</time></trkpt><trkpt lat="40.90352569993162" lon="0.5603070834892011"><ele>203.0</ele><time>2026-04-26T14:41:32Z</time></trkpt><trkpt lat="40.90348384651377" lon="0.560393947086429"><ele>203.0</ele><time>2026-04-26T14:41:33Z</time></trkpt><trkpt lat="40.9034467708812" lon="0.560463493680974"><ele>203.00000000000003</ele><time>2026-04-26T14:41:35Z</time></trkpt><trkpt lat="40.903409762070794" lon="0.5605634176855082"><ele>203.0</ele><time>2026-04-26T14:41:37Z</time></trkpt><trkpt lat="40.90339353618055" lon="0.5606532762500629"><ele>201.66666666666669</ele><time>2026-04-26T14:41:39Z</time></trkpt><trkpt lat="40.903296444352186" lon="0.5607033373943978"><ele>200.33333333333334</ele><time>2026-04-26T14:41:42Z</time></trkpt><trkpt lat="40.903221453946095" lon="0.5607521639285368"><ele>199.0</ele><time>2026-04-26T14:41:45Z</time></trkpt><trkpt lat="40.90316333265136" lon="0.5608153766579602"><ele>197.66666666666669</ele><time>2026-04-26T14:41:47Z</time></trkpt><trkpt lat="40.90310510873153" lon="0.5608747011016224"><ele>196.33333333333334</ele><time>2026-04-26T14:41:49Z</time></trkpt><trkpt lat="40.90306793653011" lon="0.5609689966371137"><ele>195.0</ele><time>2026-04-26T14:41:51Z</time></trkpt><trkpt lat="40.90307258729337" lon="0.5611111467757443"><ele>195.0</ele><time>2026-04-26T14:41:53Z</time></trkpt><trkpt lat="40.90308008537853" lon="0.5611958009948452"><ele>195.0</ele><time>2026-04-26T14:41:57Z</time></trkpt><trkpt lat="40.903102700757174" lon="0.5612900980520811"><ele>195.0</ele><time>2026-04-26T14:42:00Z</time></trkpt><trkpt lat="40.9030672778277" lon="0.5612193687114244"><ele>195.0</ele><time>2026-04-26T14:42:28.999Z</time></trkpt><trkpt lat="40.903074101339804" lon="0.5611269881779845"><ele>195.0</ele><time>2026-04-26T14:42:31.999Z</time></trkpt><trkpt lat="40.90309419879799" lon="0.5610417423491323"><ele>195.0</ele><time>2026-04-26T14:42:34.999Z</time></trkpt><trkpt lat="40.90312590174541" lon="0.5609293954733254"><ele>195.0</ele><time>2026-04-26T14:42:37.999Z</time></trkpt><trkpt lat="40.90317054082511" lon="0.5608608881153845"><ele>195.0</ele><time>2026-04-26T14:42:39.999Z</time></trkpt><trkpt lat="40.903224995510435" lon="0.5608112675778317"><ele>195.0</ele><time>2026-04-26T14:42:41.999Z</time></trkpt><trkpt lat="40.90331334783878" lon="0.560758585151949"><ele>195.0</ele><time>2026-04-26T14:42:44.999Z</time></trkpt><trkpt lat="40.90337157796184" lon="0.5607126489489952"><ele>195.0</ele><time>2026-04-26T14:42:48.999Z</time></trkpt><trkpt lat="40.903432863350126" lon="0.5606712573201811"><ele>195.0</ele><time>2026-04-26T14:42:51.999Z</time></trkpt><trkpt lat="40.903428269295" lon="0.5605769078291868"><ele>195.0</ele><time>2026-04-26T14:42:56.999Z</time></trkpt><trkpt lat="40.90348085505263" lon="0.5604682615456626"><ele>196.33333333333334</ele><time>2026-04-26T14:43:00.999Z</time></trkpt><trkpt lat="40.9035543881689" lon="0.5603768394400328"><ele>197.66666666666669</ele><time>2026-04-26T14:43:02.999Z</time></trkpt><trkpt lat="40.90365369997586" lon="0.5603018937992834"><ele>199.0</ele><time>2026-04-26T14:43:04.999Z</time></trkpt><trkpt lat="40.90373351855697" lon="0.5602709809561689"><ele>200.33333333333334</ele><time>2026-04-26T14:43:06.999Z</time></trkpt><trkpt lat="40.90380861219528" lon="0.5602417404114312"><ele>201.66666666666669</ele><time>2026-04-26T14:43:09Z</time></trkpt><trkpt lat="40.903867240532705" lon="0.5601910609038611"><ele>203.0</ele><time>2026-04-26T14:43:11Z</time></trkpt><trkpt lat="40.903944172966725" lon="0.5601347107532919"><ele>203.0</ele><time>2026-04-26T14:43:13Z</time></trkpt><trkpt lat="40.904007789260206" lon="0.5600578500298524"><ele>203.0</ele><time>2026-04-26T14:43:16Z</time></trkpt><trkpt lat="40.90420355443737" lon="0.5600507698302434"><ele>203.0</ele><time>2026-04-26T14:43:24Z</time></trkpt><trkpt lat="40.90439190588999" lon="0.5600361380514675"><ele>203.00000000000003</ele><time>2026-04-26T14:43:34Z</time></trkpt><trkpt lat="40.90437630610447" lon="0.5599482659604598"><ele>203.0</ele><time>2026-04-26T14:43:37Z</time></trkpt><trkpt lat="40.90434970105329" lon="0.5598563366473079"><ele>203.0</ele><time>2026-04-26T14:43:40Z</time></trkpt><trkpt lat="40.90431845071672" lon="0.559765914836704"><ele>203.0</ele><time>2026-04-26T14:43:42Z</time></trkpt><trkpt lat="40.904206006038564" lon="0.5597096757711457"><ele>203.00000000000003</ele><time>2026-04-26T14:43:48Z</time></trkpt><trkpt lat="40.90416127126857" lon="0.5596189212014225"><ele>203.0</ele><time>2026-04-26T14:43:52Z</time></trkpt><trkpt lat="40.904132443027486" lon="0.5595226324951038"><ele>204.71428571428572</ele><time>2026-04-26T14:43:56Z</time></trkpt><trkpt lat="40.90409147259269" lon="0.5594496178253889"><ele>206.42857142857144</ele><time>2026-04-26T14:44:00Z</time></trkpt><trkpt lat="40.90406787890464" lon="0.5593526603124513"><ele>208.14285714285714</ele><time>2026-04-26T14:44:03Z</time></trkpt><trkpt lat="40.903998369809734" lon="0.5593154996781977"><ele>209.85714285714286</ele><time>2026-04-26T14:44:07Z</time></trkpt><trkpt lat="40.90392668753783" lon="0.5593081772736379"><ele>211.57142857142858</ele><time>2026-04-26T14:44:09Z</time></trkpt><trkpt lat="40.90385697441948" lon="0.5593119893258546"><ele>213.28571428571428</ele><time>2026-04-26T14:44:11Z</time></trkpt><trkpt lat="40.90378648146183" lon="0.5593224867942972"><ele>215.0</ele><time>2026-04-26T14:44:15Z</time></trkpt><trkpt lat="40.903708009776345" lon="0.5592783507058185"><ele>215.0</ele><time>2026-04-26T14:44:20Z</time></trkpt><trkpt lat="40.90361809790206" lon="0.5591970273703848"><ele>215.0</ele><time>2026-04-26T14:44:22.999Z</time></trkpt><trkpt lat="40.90355038887074" lon="0.5591567317275271"><ele>215.0</ele><time>2026-04-26T14:44:29.999Z</time></trkpt><trkpt lat="40.903467418305546" lon="0.5591711494295998"><ele>215.0</ele><time>2026-04-26T14:44:34.999Z</time></trkpt><trkpt lat="40.9034057831007" lon="0.5592684660253697"><ele>215.0</ele><time>2026-04-26T14:44:39.999Z</time></trkpt><trkpt lat="40.903324441808515" lon="0.5593100673008596"><ele>213.0</ele><time>2026-04-26T14:44:43.999Z</time></trkpt><trkpt lat="40.90327679479931" lon="0.5593660939254446"><ele>211.0</ele><time>2026-04-26T14:44:47.999Z</time></trkpt><trkpt lat="40.903216648955535" lon="0.5594070866914912"><ele>209.0</ele><time>2026-04-26T14:44:49.999Z</time></trkpt><trkpt lat="40.903008598485634" lon="0.5593737038761721"><ele>207.0</ele><time>2026-04-26T14:45:00.999Z</time></trkpt><trkpt lat="40.9031441565462" lon="0.5593527473590661"><ele>207.0</ele><time>2026-04-26T14:45:10.999Z</time></trkpt><trkpt lat="40.90321891243995" lon="0.5593139688793766"><ele>207.0</ele><time>2026-04-26T14:45:12.999Z</time></trkpt><trkpt lat="40.903257482272636" lon="0.5592288462612868"><ele>207.0</ele><time>2026-04-26T14:45:15Z</time></trkpt><trkpt lat="40.90328993169324" lon="0.559104273678996"><ele>207.0</ele><time>2026-04-26T14:45:17Z</time></trkpt><trkpt lat="40.90332474725948" lon="0.5590146153733433"><ele>207.0</ele><time>2026-04-26T14:45:19Z</time></trkpt><trkpt lat="40.903353005067004" lon="0.5589246331743025"><ele>207.0</ele><time>2026-04-26T14:45:21Z</time></trkpt><trkpt lat="40.90341455954497" lon="0.5588782856064192"><ele>208.33333333333334</ele><time>2026-04-26T14:45:23Z</time></trkpt><trkpt lat="40.903478301115676" lon="0.5588152800712789"><ele>209.66666666666669</ele><time>2026-04-26T14:45:25Z</time></trkpt><trkpt lat="40.90352252807532" lon="0.5587272578568068"><ele>211.0</ele><time>2026-04-26T14:45:27Z</time></trkpt><trkpt lat="40.9035277126912" lon="0.5586296602560274"><ele>212.33333333333334</ele><time>2026-04-26T14:45:29Z</time></trkpt><trkpt lat="40.90352415088427" lon="0.5585304617687357"><ele>213.66666666666669</ele><time>2026-04-26T14:45:31Z</time></trkpt><trkpt lat="40.90352625717708" lon="0.5583738917954038"><ele>215.0</ele><time>2026-04-26T14:45:34Z</time></trkpt><trkpt lat="40.9035234430338" lon="0.558243445758423"><ele>216.33333333333334</ele><time>2026-04-26T14:45:36Z</time></trkpt><trkpt lat="40.90353138137524" lon="0.5581568400364074"><ele>217.66666666666669</ele><time>2026-04-26T14:45:37Z</time></trkpt><trkpt lat="40.90358692268764" lon="0.5580221285798089"><ele>219.0</ele><time>2026-04-26T14:45:39Z</time></trkpt><trkpt lat="40.903617268356584" lon="0.5579207010626667"><ele>220.33333333333331</ele><time>2026-04-26T14:45:41Z</time></trkpt><trkpt lat="40.903634801130686" lon="0.5578220597175493"><ele>221.66666666666666</ele><time>2026-04-26T14:45:43Z</time></trkpt><trkpt lat="40.9035563333559" lon="0.5578045215069258"><ele>223.0</ele><time>2026-04-26T14:45:50Z</time></trkpt><trkpt lat="40.90347309866544" lon="0.5578970764412823"><ele>221.42857142857142</ele><time>2026-04-26T14:45:52Z</time></trkpt><trkpt lat="40.903409821979736" lon="0.5579257201786378"><ele>219.85714285714283</ele><time>2026-04-26T14:45:53Z</time></trkpt><trkpt lat="40.90334875557202" lon="0.5579550097459237"><ele>218.28571428571428</ele><time>2026-04-26T14:45:54Z</time></trkpt><trkpt lat="40.903282865512615" lon="0.5579649234064568"><ele>216.71428571428572</ele><time>2026-04-26T14:45:55Z</time></trkpt><trkpt lat="40.90320715411323" lon="0.5579726909788233"><ele>215.14285714285714</ele><time>2026-04-26T14:45:56Z</time></trkpt><trkpt lat="40.903143762200095" lon="0.5579629069336144"><ele>213.57142857142858</ele><time>2026-04-26T14:45:57Z</time></trkpt><trkpt lat="40.90307371176264" lon="0.5579533596192503"><ele>212.0</ele><time>2026-04-26T14:45:58Z</time></trkpt><trkpt lat="40.90296417341823" lon="0.5579639911438112"><ele>212.00000000000003</ele><time>2026-04-26T14:46:00Z</time></trkpt><trkpt lat="40.902854006115334" lon="0.5579989321284641"><ele>212.0</ele><time>2026-04-26T14:46:02Z</time></trkpt><trkpt lat="40.90278816023629" lon="0.5580147426170954"><ele>212.0</ele><time>2026-04-26T14:46:03Z</time></trkpt><trkpt lat="40.90272176112464" lon="0.5580082421589577"><ele>212.0</ele><time>2026-04-26T14:46:04Z</time></trkpt><trkpt lat="40.90265310838123" lon="0.5579981712010543"><ele>212.00000000000003</ele><time>2026-04-26T14:46:05Z</time></trkpt><trkpt lat="40.902545061730635" lon="0.55794504909211"><ele>212.0</ele><time>2026-04-26T14:46:07Z</time></trkpt><trkpt lat="40.902448681439296" lon="0.5578580865562474"><ele>209.39999999999998</ele><time>2026-04-26T14:46:09Z</time></trkpt><trkpt lat="40.90235018147339" lon="0.5578423577135335"><ele>206.79999999999998</ele><time>2026-04-26T14:46:11Z</time></trkpt><trkpt lat="40.90228286769387" lon="0.5578293516019496"><ele>204.2</ele><time>2026-04-26T14:46:12Z</time></trkpt><trkpt lat="40.902195290773605" lon="0.5577513080360299"><ele>201.6</ele><time>2026-04-26T14:46:14Z</time></trkpt><trkpt lat="40.90211050222818" lon="0.557618451641366"><ele>199.0</ele><time>2026-04-26T14:46:16Z</time></trkpt><trkpt lat="40.90202971687284" lon="0.5575712880986555"><ele>198.99999999999997</ele><time>2026-04-26T14:46:18Z</time></trkpt><trkpt lat="40.901937104190395" lon="0.5575428628375713"><ele>199.0</ele><time>2026-04-26T14:46:21Z</time></trkpt><trkpt lat="40.901863066860514" lon="0.5575377406394837"><ele>199.0</ele><time>2026-04-26T14:46:23Z</time></trkpt><trkpt lat="40.901784135995065" lon="0.557532608277835"><ele>199.0</ele><time>2026-04-26T14:46:25Z</time></trkpt><trkpt lat="40.90169957081794" lon="0.5575201963254497"><ele>198.99999999999997</ele><time>2026-04-26T14:46:27.999Z</time></trkpt><trkpt lat="40.9016271817387" lon="0.5575036073290663"><ele>199.0</ele><time>2026-04-26T14:46:29.999Z</time></trkpt><trkpt lat="40.90156148838484" lon="0.5574946474039346"><ele>198.42857142857142</ele><time>2026-04-26T14:46:31.999Z</time></trkpt><trkpt lat="40.90154068032366" lon="0.5574003023457231"><ele>197.85714285714286</ele><time>2026-04-26T14:46:34.999Z</time></trkpt><trkpt lat="40.90158852866711" lon="0.5573234604958298"><ele>197.28571428571428</ele><time>2026-04-26T14:46:36.999Z</time></trkpt><trkpt lat="40.90158212280532" lon="0.5572348913362288"><ele>196.71428571428572</ele><time>2026-04-26T14:49:39Z</time></trkpt><trkpt lat="40.901562212233046" lon="0.557151167378077"><ele>196.14285714285714</ele><time>2026-04-26T14:49:46Z</time></trkpt><trkpt lat="40.901598468415465" lon="0.5570784807534388"><ele>195.57142857142856</ele><time>2026-04-26T14:49:51Z</time></trkpt><trkpt lat="40.90157259677361" lon="0.5569894623732904"><ele>195.0</ele><time>2026-04-26T14:49:57Z</time></trkpt><trkpt lat="40.90159006141281" lon="0.556899391877554"><ele>195.0</ele><time>2026-04-26T14:50:03Z</time></trkpt><trkpt lat="40.90156479140129" lon="0.556814301292896"><ele>195.0</ele><time>2026-04-26T14:50:10Z</time></trkpt><trkpt lat="40.9015636618936" lon="0.5567305269620221"><ele>195.0</ele><time>2026-04-26T14:50:17Z</time></trkpt><trkpt lat="40.90156269477165" lon="0.556821645829682"><ele>195.0</ele><time>2026-04-26T14:51:51.999Z</time></trkpt><trkpt lat="40.90157374082079" lon="0.55691372564721"><ele>195.0</ele><time>2026-04-26T14:51:59.999Z</time></trkpt><trkpt lat="40.901561771319265" lon="0.5569986213491954"><ele>195.0</ele><time>2026-04-26T14:52:08.999Z</time></trkpt><trkpt lat="40.901605300930626" lon="0.5570660515241274"><ele>195.0</ele><time>2026-04-26T14:52:15.999Z</time></trkpt><trkpt lat="40.90158691187381" lon="0.5571527474380075"><ele>195.0</ele><time>2026-04-26T14:52:29.999Z</time></trkpt><trkpt lat="40.901570520957875" lon="0.5572348149108166"><ele>195.0</ele><time>2026-04-26T14:52:36.999Z</time></trkpt><trkpt lat="40.90161424902621" lon="0.5572961313955244"><ele>195.0</ele><time>2026-04-26T14:52:43.999Z</time></trkpt><trkpt lat="40.90169197841905" lon="0.5575444825866487"><ele>195.0</ele><time>2026-04-26T14:58:10.999Z</time></trkpt><trkpt lat="40.90176480314899" lon="0.5575521528425847"><ele>195.0</ele><time>2026-04-26T14:58:11.999Z</time></trkpt><trkpt lat="40.901843355159066" lon="0.557561998995625"><ele>195.8</ele><time>2026-04-26T14:58:12.999Z</time></trkpt><trkpt lat="40.90192171904746" lon="0.5575776518033929"><ele>196.6</ele><time>2026-04-26T14:58:13.999Z</time></trkpt><trkpt lat="40.90198879446098" lon="0.5575918107124164"><ele>197.39999999999998</ele><time>2026-04-26T14:58:14.999Z</time></trkpt><trkpt lat="40.9020931648107" lon="0.5576454598770368"><ele>198.2</ele><time>2026-04-26T14:58:16.999Z</time></trkpt><trkpt lat="40.90216609856552" lon="0.5577362301608977"><ele>199.0</ele><time>2026-04-26T14:58:18.999Z</time></trkpt><trkpt lat="40.902231936165926" lon="0.5578358810685556"><ele>200.6</ele><time>2026-04-26T14:58:20.999Z</time></trkpt><trkpt lat="40.90235361919027" lon="0.5578891270484423"><ele>202.2</ele><time>2026-04-26T14:58:22.999Z</time></trkpt><trkpt lat="40.90245904412519" lon="0.557910755977289"><ele>203.79999999999998</ele><time>2026-04-26T14:58:24.999Z</time></trkpt><trkpt lat="40.90256166953855" lon="0.5579943505276903"><ele>205.39999999999998</ele><time>2026-04-26T14:58:26.999Z</time></trkpt><trkpt lat="40.90263697916463" lon="0.5580308406346312"><ele>207.0</ele><time>2026-04-26T14:58:28Z</time></trkpt><trkpt lat="40.90272151512102" lon="0.5580420391711561"><ele>207.83333333333334</ele><time>2026-04-26T14:58:29Z</time></trkpt><trkpt lat="40.902796878724416" lon="0.5580384934836033"><ele>208.66666666666669</ele><time>2026-04-26T14:58:30Z</time></trkpt><trkpt lat="40.902884577245395" lon="0.5580261856575571"><ele>209.5</ele><time>2026-04-26T14:58:31Z</time></trkpt><trkpt lat="40.90296821607701" lon="0.5580050499561519"><ele>210.33333333333334</ele><time>2026-04-26T14:58:32Z</time></trkpt><trkpt lat="40.903031584309396" lon="0.5580002878792433"><ele>211.16666666666669</ele><time>2026-04-26T14:58:33Z</time></trkpt><trkpt lat="40.903144699258036" lon="0.5580095872014452"><ele>212.0</ele><time>2026-04-26T14:58:35Z</time></trkpt><trkpt lat="40.90327359300353" lon="0.5580102155234331"><ele>212.0</ele><time>2026-04-26T14:58:37Z</time></trkpt><trkpt lat="40.90333459469352" lon="0.5579859266632365"><ele>212.0</ele><time>2026-04-26T14:58:38Z</time></trkpt><trkpt lat="40.903451445010234" lon="0.5579301663828857"><ele>212.0</ele><time>2026-04-26T14:58:40Z</time></trkpt><trkpt lat="40.9035344059124" lon="0.5578671905137513"><ele>212.0</ele><time>2026-04-26T14:58:42Z</time></trkpt><trkpt lat="40.90362885500876" lon="0.5577645425011442"><ele>212.0</ele><time>2026-04-26T14:58:44Z</time></trkpt><trkpt lat="40.90368023283713" lon="0.5577032347501161"><ele>214.2</ele><time>2026-04-26T14:58:45Z</time></trkpt><trkpt lat="40.90374724495077" lon="0.5576067280331009"><ele>216.39999999999998</ele><time>2026-04-26T14:58:46Z</time></trkpt><trkpt lat="40.90382761745561" lon="0.557485876816686"><ele>218.60000000000002</ele><time>2026-04-26T14:58:47Z</time></trkpt><trkpt lat="40.90388208823205" lon="0.5573971010003735"><ele>220.8</ele><time>2026-04-26T14:58:48Z</time></trkpt><trkpt lat="40.903932970765936" lon="0.557277641727304"><ele>223.0</ele><time>2026-04-26T14:58:50Z</time></trkpt><trkpt lat="40.90393901696491" lon="0.5571851996423051"><ele>222.99999999999997</ele><time>2026-04-26T14:58:52Z</time></trkpt><trkpt lat="40.903906464425916" lon="0.5570756425900094"><ele>223.0</ele><time>2026-04-26T14:58:54Z</time></trkpt><trkpt lat="40.90388958166823" lon="0.5569817472468948"><ele>223.0</ele><time>2026-04-26T14:58:55Z</time></trkpt><trkpt lat="40.90387449849317" lon="0.5569005289936863"><ele>223.0</ele><time>2026-04-26T14:58:56Z</time></trkpt><trkpt lat="40.90385436101762" lon="0.5568127628226467"><ele>222.99999999999997</ele><time>2026-04-26T14:58:57Z</time></trkpt><trkpt lat="40.90384005595791" lon="0.5566370553508331"><ele>223.0</ele><time>2026-04-26T14:58:59Z</time></trkpt><trkpt lat="40.9038462482377" lon="0.5565045384208382"><ele>221.2</ele><time>2026-04-26T14:59:00Z</time></trkpt><trkpt lat="40.9038534100354" lon="0.5563134859013826"><ele>219.4</ele><time>2026-04-26T14:59:01Z</time></trkpt><trkpt lat="40.90384272056083" lon="0.5561541058646188"><ele>217.59999999999997</ele><time>2026-04-26T14:59:02Z</time></trkpt><trkpt lat="40.903822242180084" lon="0.5560435654151422"><ele>215.79999999999998</ele><time>2026-04-26T14:59:03Z</time></trkpt><trkpt lat="40.903768849214764" lon="0.5559846561914418"><ele>214.0</ele><time>2026-04-26T14:59:05Z</time></trkpt><trkpt lat="40.90369809359867" lon="0.5559569346227669"><ele>213.33333333333331</ele><time>2026-04-26T14:59:07Z</time></trkpt><trkpt lat="40.90362845469505" lon="0.5559243733706072"><ele>212.66666666666666</ele><time>2026-04-26T14:59:08Z</time></trkpt><trkpt lat="40.90355791184252" lon="0.5558938754408919"><ele>212.0</ele><time>2026-04-26T14:59:09Z</time></trkpt><trkpt lat="40.90347365801102" lon="0.5558519978224824"><ele>211.33333333333331</ele><time>2026-04-26T14:59:10Z</time></trkpt><trkpt lat="40.90341122898169" lon="0.5558136722184587"><ele>210.66666666666666</ele><time>2026-04-26T14:59:11Z</time></trkpt><trkpt lat="40.90333470008914" lon="0.555716813557528"><ele>210.0</ele><time>2026-04-26T14:59:13Z</time></trkpt><trkpt lat="40.903295605291895" lon="0.5556343090424498"><ele>210.0</ele><time>2026-04-26T14:59:14Z</time></trkpt><trkpt lat="40.9032496754898" lon="0.5555309533344985"><ele>210.0</ele><time>2026-04-26T14:59:15Z</time></trkpt><trkpt lat="40.90321348504937" lon="0.5554186798183467"><ele>210.0</ele><time>2026-04-26T14:59:16Z</time></trkpt><trkpt lat="40.9031976375546" lon="0.5553369868082417"><ele>210.0</ele><time>2026-04-26T14:59:17Z</time></trkpt><trkpt lat="40.903184599295834" lon="0.5552520813064666"><ele>210.0</ele><time>2026-04-26T14:59:18Z</time></trkpt><trkpt lat="40.90319235022679" lon="0.5550832111678998"><ele>210.0</ele><time>2026-04-26T14:59:20Z</time></trkpt><trkpt lat="40.90319637405604" lon="0.5549664841641276"><ele>209.6</ele><time>2026-04-26T14:59:21Z</time></trkpt><trkpt lat="40.903205508359456" lon="0.5548416503397869"><ele>209.2</ele><time>2026-04-26T14:59:22Z</time></trkpt><trkpt lat="40.90322166385709" lon="0.5547033324206684"><ele>208.8</ele><time>2026-04-26T14:59:23Z</time></trkpt><trkpt lat="40.90324166630948" lon="0.5545811760513588"><ele>208.4</ele><time>2026-04-26T14:59:24.001Z</time></trkpt><trkpt lat="40.90326345133602" lon="0.5544476816644285"><ele>208.0</ele><time>2026-04-26T14:59:25.001Z</time></trkpt><trkpt lat="40.9032970023768" lon="0.5542790080233482"><ele>208.0</ele><time>2026-04-26T14:59:26.001Z</time></trkpt><trkpt lat="40.90333244999914" lon="0.5541174462329339"><ele>208.0</ele><time>2026-04-26T14:59:27.001Z</time></trkpt><trkpt lat="40.90336451473497" lon="0.5540015208220679"><ele>208.0</ele><time>2026-04-26T14:59:28.001Z</time></trkpt><trkpt lat="40.903397322585455" lon="0.5539036255608281"><ele>208.0</ele><time>2026-04-26T14:59:29.001Z</time></trkpt><trkpt lat="40.903434880748684" lon="0.5538095082475407"><ele>208.0</ele><time>2026-04-26T14:59:30.001Z</time></trkpt><trkpt lat="40.90345689633038" lon="0.5537212471515949"><ele>207.8</ele><time>2026-04-26T14:59:31.001Z</time></trkpt><trkpt lat="40.90347068961471" lon="0.5535596880051513"><ele>207.60000000000002</ele><time>2026-04-26T14:59:33.001Z</time></trkpt><trkpt lat="40.90346856735709" lon="0.5534641194471477"><ele>207.39999999999998</ele><time>2026-04-26T14:59:34.001Z</time></trkpt><trkpt lat="40.90341113355055" lon="0.5533238824702125"><ele>207.2</ele><time>2026-04-26T14:59:36.001Z</time></trkpt><trkpt lat="40.90333516694207" lon="0.55322698007679"><ele>207.0</ele><time>2026-04-26T14:59:38.001Z</time></trkpt><trkpt lat="40.90328571127374" lon="0.5531622683124817"><ele>207.0</ele><time>2026-04-26T14:59:39.001Z</time></trkpt><trkpt lat="40.903226206647666" lon="0.5531010991492693"><ele>207.0</ele><time>2026-04-26T14:59:40.001Z</time></trkpt><trkpt lat="40.90315822315684" lon="0.5530427043966409"><ele>207.0</ele><time>2026-04-26T14:59:41.001Z</time></trkpt><trkpt lat="40.90311109726232" lon="0.5529817897084294"><ele>207.0</ele><time>2026-04-26T14:59:42.001Z</time></trkpt><trkpt lat="40.903075926982005" lon="0.5529126161991529"><ele>207.0</ele><time>2026-04-26T14:59:43.001Z</time></trkpt><trkpt lat="40.90303660053815" lon="0.552764509624583"><ele>207.0</ele><time>2026-04-26T14:59:45.001Z</time></trkpt><trkpt lat="40.90303680684008" lon="0.5525850610076288"><ele>208.0</ele><time>2026-04-26T14:59:47.001Z</time></trkpt><trkpt lat="40.90302943302435" lon="0.5523935180903253"><ele>209.0</ele><time>2026-04-26T14:59:49.001Z</time></trkpt><trkpt lat="40.902998232353646" lon="0.5522773973926207"><ele>210.0</ele><time>2026-04-26T14:59:50.001Z</time></trkpt><trkpt lat="40.90295975179654" lon="0.5521787615643099"><ele>211.0</ele><time>2026-04-26T14:59:51.001Z</time></trkpt><trkpt lat="40.902921147623324" lon="0.552083613477777"><ele>212.0</ele><time>2026-04-26T14:59:52.001Z</time></trkpt><trkpt lat="40.902884126642576" lon="0.5519839149542383"><ele>212.14285714285714</ele><time>2026-04-26T14:59:53.001Z</time></trkpt><trkpt lat="40.90284320346216" lon="0.551879163704447"><ele>212.28571428571428</ele><time>2026-04-26T14:59:54.001Z</time></trkpt><trkpt lat="40.90281562861205" lon="0.5518030165558802"><ele>212.42857142857142</ele><time>2026-04-26T14:59:55.001Z</time></trkpt><trkpt lat="40.90279036384898" lon="0.5517191455784031"><ele>212.57142857142856</ele><time>2026-04-26T14:59:56.001Z</time></trkpt><trkpt lat="40.90275001683877" lon="0.5516440067527811"><ele>212.71428571428572</ele><time>2026-04-26T14:59:57Z</time></trkpt><trkpt lat="40.90269496106897" lon="0.551590705224804"><ele>212.85714285714283</ele><time>2026-04-26T14:59:58Z</time></trkpt><trkpt lat="40.90264112693804" lon="0.5515324220209848"><ele>213.0</ele><time>2026-04-26T14:59:59Z</time></trkpt><trkpt lat="40.902579449505296" lon="0.551491273125198"><ele>210.8</ele><time>2026-04-26T15:00:00Z</time></trkpt><trkpt lat="40.90250879745025" lon="0.5514593898814809"><ele>208.60000000000002</ele><time>2026-04-26T15:00:01Z</time></trkpt><trkpt lat="40.902392649354546" lon="0.5514276935471153"><ele>206.39999999999998</ele><time>2026-04-26T15:00:03Z</time></trkpt><trkpt lat="40.902285018940354" lon="0.5513698067625168"><ele>204.2</ele><time>2026-04-26T15:00:05Z</time></trkpt><trkpt lat="40.90218046023647" lon="0.5512553620095132"><ele>202.0</ele><time>2026-04-26T15:00:07Z</time></trkpt><trkpt lat="40.90209747663322" lon="0.5511383173940442"><ele>201.99999999999997</ele><time>2026-04-26T15:00:09Z</time></trkpt><trkpt lat="40.90204257596901" lon="0.5510325609774301"><ele>202.0</ele><time>2026-04-26T15:00:11Z</time></trkpt><trkpt lat="40.90204070337703" lon="0.5509103358803881"><ele>202.0</ele><time>2026-04-26T15:00:13Z</time></trkpt><trkpt lat="40.90204530030176" lon="0.5508143635994057"><ele>202.0</ele><time>2026-04-26T15:00:14Z</time></trkpt><trkpt lat="40.9020423159077" lon="0.55070858151667"><ele>201.99999999999997</ele><time>2026-04-26T15:00:15Z</time></trkpt><trkpt lat="40.90202439772527" lon="0.5506055481118627"><ele>202.0</ele><time>2026-04-26T15:00:16Z</time></trkpt><trkpt lat="40.90199929625564" lon="0.5505146116749268"><ele>201.99999999999997</ele><time>2026-04-26T15:00:17Z</time></trkpt><trkpt lat="40.90196688574912" lon="0.5504326519500911"><ele>202.0</ele><time>2026-04-26T15:00:18Z</time></trkpt><trkpt lat="40.901925488768974" lon="0.5503516898885611"><ele>202.0</ele><time>2026-04-26T15:00:19Z</time></trkpt><trkpt lat="40.901875353737836" lon="0.5502753775897063"><ele>202.0</ele><time>2026-04-26T15:00:20Z</time></trkpt><trkpt lat="40.90182851839932" lon="0.5501987729648496"><ele>201.99999999999997</ele><time>2026-04-26T15:00:21Z</time></trkpt><trkpt lat="40.9017869292663" lon="0.5501263348821498"><ele>202.0</ele><time>2026-04-26T15:00:22Z</time></trkpt><trkpt lat="40.90171189044822" lon="0.5499987160310326"><ele>198.0</ele><time>2026-04-26T15:00:24Z</time></trkpt><trkpt lat="40.90166451535832" lon="0.5498787929621536"><ele>194.0</ele><time>2026-04-26T15:00:26Z</time></trkpt><trkpt lat="40.90163918426998" lon="0.5497268667780089"><ele>190.0</ele><time>2026-04-26T15:00:28Z</time></trkpt><trkpt lat="40.90164872875845" lon="0.5495662195700108"><ele>186.0</ele><time>2026-04-26T15:00:30Z</time></trkpt><trkpt lat="40.90166759836031" lon="0.549445469993328"><ele>182.0</ele><time>2026-04-26T15:00:32.001Z</time></trkpt><trkpt lat="40.90171915185471" lon="0.549360551436931"><ele>181.83333333333331</ele><time>2026-04-26T15:00:34.001Z</time></trkpt><trkpt lat="40.90175465520946" lon="0.5492481691324328"><ele>181.66666666666666</ele><time>2026-04-26T15:00:36.001Z</time></trkpt><trkpt lat="40.901741775727174" lon="0.5490890641499631"><ele>181.5</ele><time>2026-04-26T15:00:38.001Z</time></trkpt><trkpt lat="40.90172638825949" lon="0.548994433310573"><ele>181.33333333333334</ele><time>2026-04-26T15:00:39.001Z</time></trkpt><trkpt lat="40.90170722957599" lon="0.548893649893788"><ele>181.16666666666669</ele><time>2026-04-26T15:00:40.001Z</time></trkpt><trkpt lat="40.90169933387468" lon="0.5488078827569374"><ele>181.0</ele><time>2026-04-26T15:00:41.001Z</time></trkpt><trkpt lat="40.90168857955301" lon="0.5487215283246506"><ele>180.0</ele><time>2026-04-26T15:00:42.001Z</time></trkpt><trkpt lat="40.90170050506971" lon="0.5485947833624006"><ele>179.0</ele><time>2026-04-26T15:00:44.001Z</time></trkpt><trkpt lat="40.901730918352804" lon="0.5484624345245439"><ele>178.0</ele><time>2026-04-26T15:00:46.001Z</time></trkpt><trkpt lat="40.901686504147854" lon="0.548345928697539"><ele>177.0</ele><time>2026-04-26T15:00:48.001Z</time></trkpt><trkpt lat="40.90164671395488" lon="0.5482701488021507"><ele>176.0</ele><time>2026-04-26T15:00:49.001Z</time></trkpt><trkpt lat="40.90159975814035" lon="0.5481918954025796"><ele>175.0</ele><time>2026-04-26T15:00:50.001Z</time></trkpt><trkpt lat="40.90150007206005" lon="0.5480980380540869"><ele>175.0</ele><time>2026-04-26T15:00:52.001Z</time></trkpt><trkpt lat="40.90144701772335" lon="0.5480458593461506"><ele>175.0</ele><time>2026-04-26T15:00:53.001Z</time></trkpt><trkpt lat="40.90139183418721" lon="0.5479691902612734"><ele>175.0</ele><time>2026-04-26T15:00:54.001Z</time></trkpt><trkpt lat="40.90134596660367" lon="0.5479093731897805"><ele>175.0</ele><time>2026-04-26T15:00:55.001Z</time></trkpt><trkpt lat="40.90130437404525" lon="0.5478020643128526"><ele>175.0</ele><time>2026-04-26T15:00:56.001Z</time></trkpt><trkpt lat="40.901252071620554" lon="0.5476672809907386"><ele>175.0</ele><time>2026-04-26T15:00:57.001Z</time></trkpt><trkpt lat="40.901201433993776" lon="0.5475060210685045"><ele>173.75</ele><time>2026-04-26T15:00:58.001Z</time></trkpt><trkpt lat="40.90113007367597" lon="0.5473139022937661"><ele>172.5</ele><time>2026-04-26T15:00:59.001Z</time></trkpt><trkpt lat="40.90107431480619" lon="0.547149122001597"><ele>171.25</ele><time>2026-04-26T15:01:00.001Z</time></trkpt><trkpt lat="40.90102557226222" lon="0.5470093848606863"><ele>170.0</ele><time>2026-04-26T15:01:01.001Z</time></trkpt><trkpt lat="40.90098666098214" lon="0.5468707302918672"><ele>166.5</ele><time>2026-04-26T15:01:02.001Z</time></trkpt><trkpt lat="40.90096241319913" lon="0.546726234112559"><ele>163.0</ele><time>2026-04-26T15:01:03.001Z</time></trkpt><trkpt lat="40.90094470115447" lon="0.5465714796383777"><ele>159.5</ele><time>2026-04-26T15:01:04.001Z</time></trkpt><trkpt lat="40.900930813736" lon="0.5464295342661342"><ele>156.0</ele><time>2026-04-26T15:01:05.001Z</time></trkpt><trkpt lat="40.90090672423028" lon="0.5462844590657656"><ele>153.5</ele><time>2026-04-26T15:01:06.001Z</time></trkpt><trkpt lat="40.900874195176726" lon="0.5461188785259049"><ele>151.0</ele><time>2026-04-26T15:01:07.001Z</time></trkpt><trkpt lat="40.900854998973934" lon="0.5459690008839012"><ele>148.5</ele><time>2026-04-26T15:01:08.001Z</time></trkpt><trkpt lat="40.900848155800865" lon="0.5458121169866562"><ele>146.0</ele><time>2026-04-26T15:01:09.001Z</time></trkpt><trkpt lat="40.900834455616454" lon="0.5456582089688188"><ele>146.0</ele><time>2026-04-26T15:01:10.001Z</time></trkpt><trkpt lat="40.900828497578544" lon="0.5455400421820277"><ele>146.0</ele><time>2026-04-26T15:01:11.001Z</time></trkpt><trkpt lat="40.90081352607464" lon="0.5453517977143221"><ele>146.0</ele><time>2026-04-26T15:01:13.001Z</time></trkpt><trkpt lat="40.900793839451254" lon="0.5452512045784651"><ele>146.0</ele><time>2026-04-26T15:01:14.001Z</time></trkpt><trkpt lat="40.90072792400859" lon="0.5451084892260737"><ele>146.0</ele><time>2026-04-26T15:01:16.001Z</time></trkpt><trkpt lat="40.900619185167244" lon="0.5450286403803528"><ele>145.83333333333331</ele><time>2026-04-26T15:01:18.001Z</time></trkpt><trkpt lat="40.90054159274622" lon="0.5450070992930693"><ele>145.66666666666666</ele><time>2026-04-26T15:01:19.001Z</time></trkpt><trkpt lat="40.900473771669795" lon="0.544969645691498"><ele>145.5</ele><time>2026-04-26T15:01:20.001Z</time></trkpt><trkpt lat="40.900409926370344" lon="0.5449113311853635"><ele>145.33333333333334</ele><time>2026-04-26T15:01:21.001Z</time></trkpt><trkpt lat="40.90037801341199" lon="0.5448363185678027"><ele>145.16666666666669</ele><time>2026-04-26T15:01:22.001Z</time></trkpt><trkpt lat="40.90034081000868" lon="0.5447392223898434"><ele>145.0</ele><time>2026-04-26T15:01:23.001Z</time></trkpt><trkpt lat="40.90031012931254" lon="0.544634513444716"><ele>145.5</ele><time>2026-04-26T15:01:24.001Z</time></trkpt><trkpt lat="40.900303889017245" lon="0.5445275896779947"><ele>146.0</ele><time>2026-04-26T15:01:25.001Z</time></trkpt><trkpt lat="40.9003159311382" lon="0.5444225990576921"><ele>146.5</ele><time>2026-04-26T15:01:26.001Z</time></trkpt><trkpt lat="40.900333657792004" lon="0.544329033943349"><ele>147.0</ele><time>2026-04-26T15:01:27.001Z</time></trkpt><trkpt lat="40.90029470297814" lon="0.5442246507383112"><ele>147.5</ele><time>2026-04-26T15:01:29.001Z</time></trkpt><trkpt lat="40.90020915292272" lon="0.5441497930284394"><ele>148.0</ele><time>2026-04-26T15:01:31.001Z</time></trkpt><trkpt lat="40.90015327714076" lon="0.5441057788446162"><ele>148.0</ele><time>2026-04-26T15:01:32.001Z</time></trkpt><trkpt lat="40.90009770235445" lon="0.5440285817712014"><ele>148.0</ele><time>2026-04-26T15:01:33.001Z</time></trkpt><trkpt lat="40.900047702772675" lon="0.543948184134494"><ele>148.0</ele><time>2026-04-26T15:01:34.001Z</time></trkpt><trkpt lat="40.89998778777734" lon="0.5438663907672678"><ele>148.0</ele><time>2026-04-26T15:01:35.001Z</time></trkpt><trkpt lat="40.89992207767371" lon="0.5438177802281493"><ele>148.0</ele><time>2026-04-26T15:01:36.001Z</time></trkpt><trkpt lat="40.89985224316912" lon="0.5437784339895383"><ele>148.0</ele><time>2026-04-26T15:01:37.001Z</time></trkpt><trkpt lat="40.89979158270086" lon="0.5437373915407926"><ele>149.5</ele><time>2026-04-26T15:01:38.001Z</time></trkpt><trkpt lat="40.89973433829075" lon="0.5436889355430322"><ele>151.0</ele><time>2026-04-26T15:01:39.001Z</time></trkpt><trkpt lat="40.89968465876644" lon="0.5436215810035259"><ele>152.5</ele><time>2026-04-26T15:01:40.001Z</time></trkpt><trkpt lat="40.899658506752665" lon="0.5435389314360309"><ele>154.0</ele><time>2026-04-26T15:01:41.001Z</time></trkpt><trkpt lat="40.899627877764495" lon="0.543439458166105"><ele>155.5</ele><time>2026-04-26T15:01:42.001Z</time></trkpt><trkpt lat="40.89959671046805" lon="0.5433196864447086"><ele>157.0</ele><time>2026-04-26T15:01:43.002Z</time></trkpt><trkpt lat="40.89956570040185" lon="0.5431698334183395"><ele>157.0</ele><time>2026-04-26T15:01:44.002Z</time></trkpt><trkpt lat="40.89954705065823" lon="0.5429782334005859"><ele>157.0</ele><time>2026-04-26T15:01:45.002Z</time></trkpt><trkpt lat="40.899518907238395" lon="0.5427754325125781"><ele>157.0</ele><time>2026-04-26T15:01:46.002Z</time></trkpt><trkpt lat="40.899492828238806" lon="0.5425696115211741"><ele>155.75</ele><time>2026-04-26T15:01:47.002Z</time></trkpt><trkpt lat="40.8994628180761" lon="0.5423788585515625"><ele>154.5</ele><time>2026-04-26T15:01:48.002Z</time></trkpt><trkpt lat="40.899436017395644" lon="0.5422095420045145"><ele>153.25</ele><time>2026-04-26T15:01:49.002Z</time></trkpt><trkpt lat="40.8994153130104" lon="0.5420463814607269"><ele>152.0</ele><time>2026-04-26T15:01:50.002Z</time></trkpt><trkpt lat="40.89938952394709" lon="0.5418853388074962"><ele>151.33333333333331</ele><time>2026-04-26T15:01:51.002Z</time></trkpt><trkpt lat="40.89937515125807" lon="0.5417592970733411"><ele>150.66666666666666</ele><time>2026-04-26T15:01:52.002Z</time></trkpt><trkpt lat="40.899360396098814" lon="0.5416561629055163"><ele>150.0</ele><time>2026-04-26T15:01:53.002Z</time></trkpt><trkpt lat="40.89934184480541" lon="0.5415589003482423"><ele>149.33333333333334</ele><time>2026-04-26T15:01:54.002Z</time></trkpt><trkpt lat="40.89934164063308" lon="0.541475048396212"><ele>148.66666666666669</ele><time>2026-04-26T15:01:55.002Z</time></trkpt><trkpt lat="40.89935371494408" lon="0.5413889497713827"><ele>148.0</ele><time>2026-04-26T15:01:56.002Z</time></trkpt><trkpt lat="40.899386252826375" lon="0.5412991124725004"><ele>147.4</ele><time>2026-04-26T15:01:57.002Z</time></trkpt><trkpt lat="40.89942542020749" lon="0.5411651659378559"><ele>146.8</ele><time>2026-04-26T15:01:58.002Z</time></trkpt><trkpt lat="40.89946083893059" lon="0.5410134865302533"><ele>146.2</ele><time>2026-04-26T15:01:59.002Z</time></trkpt><trkpt lat="40.89949186347307" lon="0.5408726430052679"><ele>145.6</ele><time>2026-04-26T15:02:00.002Z</time></trkpt><trkpt lat="40.899530706693085" lon="0.5407435694788565"><ele>145.0</ele><time>2026-04-26T15:02:01.002Z</time></trkpt><trkpt lat="40.899569671296916" lon="0.5406068887629901"><ele>145.0</ele><time>2026-04-26T15:02:02.002Z</time></trkpt><trkpt lat="40.89959527726931" lon="0.5404832981679438"><ele>145.0</ele><time>2026-04-26T15:02:03.001Z</time></trkpt><trkpt lat="40.89962284879294" lon="0.5403809530092115"><ele>145.0</ele><time>2026-04-26T15:02:04.001Z</time></trkpt><trkpt lat="40.89965456918729" lon="0.5402541599774623"><ele>145.0</ele><time>2026-04-26T15:02:05.001Z</time></trkpt><trkpt lat="40.89970199762035" lon="0.5401600916976551"><ele>145.0</ele><time>2026-04-26T15:02:06.001Z</time></trkpt><trkpt lat="40.899761353132256" lon="0.540079179606015"><ele>144.66666666666669</ele><time>2026-04-26T15:02:07.001Z</time></trkpt><trkpt lat="40.89982518879954" lon="0.5400210088502674"><ele>144.33333333333334</ele><time>2026-04-26T15:02:08.001Z</time></trkpt><trkpt lat="40.899875899879746" lon="0.5399436863047519"><ele>144.0</ele><time>2026-04-26T15:02:09.001Z</time></trkpt><trkpt lat="40.89992561698597" lon="0.5398483004620575"><ele>143.66666666666666</ele><time>2026-04-26T15:02:10.001Z</time></trkpt><trkpt lat="40.899981445744594" lon="0.5397457621747342"><ele>143.33333333333331</ele><time>2026-04-26T15:02:11.001Z</time></trkpt><trkpt lat="40.90003174622535" lon="0.5396591436019866"><ele>143.0</ele><time>2026-04-26T15:02:12.001Z</time></trkpt><trkpt lat="40.900098691308834" lon="0.5395624245728657"><ele>142.4</ele><time>2026-04-26T15:02:13.001Z</time></trkpt><trkpt lat="40.900174996130815" lon="0.5394726409995589"><ele>141.8</ele><time>2026-04-26T15:02:14.001Z</time></trkpt><trkpt lat="40.900254831285906" lon="0.5393820636206024"><ele>141.2</ele><time>2026-04-26T15:02:15.001Z</time></trkpt><trkpt lat="40.90033813167313" lon="0.5392835935127285"><ele>140.6</ele><time>2026-04-26T15:02:16.001Z</time></trkpt><trkpt lat="40.900410627171844" lon="0.5391832596967124"><ele>140.0</ele><time>2026-04-26T15:02:17.001Z</time></trkpt><trkpt lat="40.900491996120074" lon="0.5390823648502902"><ele>140.0</ele><time>2026-04-26T15:02:18.001Z</time></trkpt><trkpt lat="40.90056227824289" lon="0.5389998572227753"><ele>140.0</ele><time>2026-04-26T15:02:19.001Z</time></trkpt><trkpt lat="40.900629289273105" lon="0.5389004056809314"><ele>140.0</ele><time>2026-04-26T15:02:20.001Z</time></trkpt><trkpt lat="40.90068272351738" lon="0.5388031870755005"><ele>140.0</ele><time>2026-04-26T15:02:21.001Z</time></trkpt><trkpt lat="40.900737433400636" lon="0.5386854452969109"><ele>140.0</ele><time>2026-04-26T15:02:22.001Z</time></trkpt><trkpt lat="40.90080585237825" lon="0.5385640173602202"><ele>139.4</ele><time>2026-04-26T15:02:23.001Z</time></trkpt><trkpt lat="40.90087209470366" lon="0.5384271027569065"><ele>138.8</ele><time>2026-04-26T15:02:24.001Z</time></trkpt><trkpt lat="40.90093813902033" lon="0.5383181997788616"><ele>138.2</ele><time>2026-04-26T15:02:25.001Z</time></trkpt><trkpt lat="40.90100562319691" lon="0.5382227948968387"><ele>137.6</ele><time>2026-04-26T15:02:26.001Z</time></trkpt><trkpt lat="40.90108117365352" lon="0.5381328218823467"><ele>137.0</ele><time>2026-04-26T15:02:27.001Z</time></trkpt><trkpt lat="40.901140069147075" lon="0.5380501526222797"><ele>136.85714285714286</ele><time>2026-04-26T15:02:28.001Z</time></trkpt><trkpt lat="40.901185324896716" lon="0.537971418010311"><ele>136.71428571428572</ele><time>2026-04-26T15:02:29.001Z</time></trkpt><trkpt lat="40.901232758521004" lon="0.5379017175057581"><ele>136.57142857142856</ele><time>2026-04-26T15:02:30.001Z</time></trkpt><trkpt lat="40.90129277065114" lon="0.5378413766675498"><ele>136.42857142857144</ele><time>2026-04-26T15:02:31.001Z</time></trkpt><trkpt lat="40.90135404805356" lon="0.5377799289046133"><ele>136.28571428571428</ele><time>2026-04-26T15:02:32.001Z</time></trkpt><trkpt lat="40.901408613234196" lon="0.5377278647856146"><ele>136.14285714285714</ele><time>2026-04-26T15:02:33.001Z</time></trkpt><trkpt lat="40.90145774565081" lon="0.5376499543936482"><ele>136.0</ele><time>2026-04-26T15:02:34.001Z</time></trkpt><trkpt lat="40.90150995782771" lon="0.5375538179270317"><ele>135.75</ele><time>2026-04-26T15:02:35.001Z</time></trkpt><trkpt lat="40.90156061852664" lon="0.5374521784348215"><ele>135.5</ele><time>2026-04-26T15:02:36.001Z</time></trkpt><trkpt lat="40.901621612583256" lon="0.5373191140469551"><ele>135.25</ele><time>2026-04-26T15:02:37.001Z</time></trkpt><trkpt lat="40.90168324629837" lon="0.5371952615876024"><ele>135.0</ele><time>2026-04-26T15:02:38.001Z</time></trkpt><trkpt lat="40.901739676349024" lon="0.5370203609926973"><ele>133.33333333333334</ele><time>2026-04-26T15:02:39.001Z</time></trkpt><trkpt lat="40.90179038792718" lon="0.5368363082508212"><ele>131.66666666666669</ele><time>2026-04-26T15:02:40.001Z</time></trkpt><trkpt lat="40.90184695464723" lon="0.5366447729883516"><ele>130.0</ele><time>2026-04-26T15:02:41.001Z</time></trkpt><trkpt lat="40.9019023623547" lon="0.5364584785461874"><ele>130.0</ele><time>2026-04-26T15:02:42.001Z</time></trkpt><trkpt lat="40.9019449012787" lon="0.5362980400213897"><ele>130.0</ele><time>2026-04-26T15:02:43.001Z</time></trkpt><trkpt lat="40.90199395552295" lon="0.536170162803834"><ele>130.0</ele><time>2026-04-26T15:02:44.001Z</time></trkpt><trkpt lat="40.902052521605555" lon="0.5360539475946077"><ele>130.0</ele><time>2026-04-26T15:02:45.001Z</time></trkpt><trkpt lat="40.902099058481234" lon="0.5359757327690943"><ele>130.0</ele><time>2026-04-26T15:02:46.001Z</time></trkpt><trkpt lat="40.90212920029251" lon="0.5358985776554762"><ele>130.0</ele><time>2026-04-26T15:02:51.001Z</time></trkpt><trkpt lat="40.90217482013054" lon="0.5358250699567805"><ele>130.0</ele><time>2026-04-26T15:02:54.001Z</time></trkpt><trkpt lat="40.90223502759711" lon="0.5357399980016788"><ele>130.0</ele><time>2026-04-26T15:02:56.001Z</time></trkpt><trkpt lat="40.90228437214135" lon="0.5356592826396777"><ele>130.0</ele><time>2026-04-26T15:02:57.001Z</time></trkpt><trkpt lat="40.902337678972486" lon="0.5355562638856247"><ele>130.0</ele><time>2026-04-26T15:02:58.001Z</time></trkpt><trkpt lat="40.902405883315026" lon="0.5354067474542638"><ele>129.0</ele><time>2026-04-26T15:02:59.001Z</time></trkpt><trkpt lat="40.90247940287658" lon="0.5352697616735562"><ele>128.0</ele><time>2026-04-26T15:03:00.001Z</time></trkpt><trkpt lat="40.90254562954026" lon="0.5351558965492589"><ele>127.0</ele><time>2026-04-26T15:03:01.001Z</time></trkpt><trkpt lat="40.90261377117261" lon="0.5350525061216197"><ele>126.0</ele><time>2026-04-26T15:03:02.001Z</time></trkpt><trkpt lat="40.902679786819235" lon="0.5349546481525419"><ele>125.0</ele><time>2026-04-26T15:03:03.001Z</time></trkpt><trkpt lat="40.90274697441001" lon="0.5348696222114389"><ele>123.99999999999999</ele><time>2026-04-26T15:03:04.001Z</time></trkpt><trkpt lat="40.902815139721156" lon="0.53480102150612"><ele>123.0</ele><time>2026-04-26T15:03:05.001Z</time></trkpt><trkpt lat="40.90288096461307" lon="0.5347358871389506"><ele>122.0</ele><time>2026-04-26T15:03:06.001Z</time></trkpt><trkpt lat="40.902953313484595" lon="0.534670757775492"><ele>121.0</ele><time>2026-04-26T15:03:07.001Z</time></trkpt><trkpt lat="40.90302122797876" lon="0.5346161076736129"><ele>119.99999999999999</ele><time>2026-04-26T15:03:08.001Z</time></trkpt><trkpt lat="40.9030899632894" lon="0.5345679454733672"><ele>119.0</ele><time>2026-04-26T15:03:09.001Z</time></trkpt><trkpt lat="40.903149870304716" lon="0.534523791480849"><ele>119.0</ele><time>2026-04-26T15:03:10.001Z</time></trkpt><trkpt lat="40.90320460818083" lon="0.5344711544333753"><ele>119.0</ele><time>2026-04-26T15:03:11.001Z</time></trkpt><trkpt lat="40.90328083594787" lon="0.5343916637407033"><ele>119.0</ele><time>2026-04-26T15:03:12.001Z</time></trkpt><trkpt lat="40.90336693234893" lon="0.5343070436557928"><ele>119.0</ele><time>2026-04-26T15:03:13.001Z</time></trkpt><trkpt lat="40.9034597470206" lon="0.5342070867088855"><ele>119.0</ele><time>2026-04-26T15:03:14.001Z</time></trkpt><trkpt lat="40.903530395762" lon="0.534110020319797"><ele>119.33333333333333</ele><time>2026-04-26T15:03:15.001Z</time></trkpt><trkpt lat="40.90360211710956" lon="0.5340257594598068"><ele>119.66666666666666</ele><time>2026-04-26T15:03:16.001Z</time></trkpt><trkpt lat="40.90366844485269" lon="0.5339381711572598"><ele>120.0</ele><time>2026-04-26T15:03:17.001Z</time></trkpt><trkpt lat="40.90373312208997" lon="0.5338697140253107"><ele>120.33333333333334</ele><time>2026-04-26T15:03:18.001Z</time></trkpt><trkpt lat="40.90378103696666" lon="0.5338086195397883"><ele>120.66666666666667</ele><time>2026-04-26T15:03:19.001Z</time></trkpt><trkpt lat="40.903827397550145" lon="0.5337421670388167"><ele>121.0</ele><time>2026-04-26T15:03:20.001Z</time></trkpt><trkpt lat="40.90392125722312" lon="0.533652436677662"><ele>121.00000000000001</ele><time>2026-04-26T15:03:22.001Z</time></trkpt><trkpt lat="40.903996865021014" lon="0.533591618650019"><ele>121.0</ele><time>2026-04-26T15:03:24.001Z</time></trkpt><trkpt lat="40.90406295207326" lon="0.5335270593431681"><ele>121.0</ele><time>2026-04-26T15:03:26.001Z</time></trkpt><trkpt lat="40.904133814317454" lon="0.5334681356680135"><ele>121.0</ele><time>2026-04-26T15:03:28.001Z</time></trkpt><trkpt lat="40.90419521874038" lon="0.5334018262218918"><ele>121.00000000000001</ele><time>2026-04-26T15:03:30.001Z</time></trkpt><trkpt lat="40.9042943850556" lon="0.5333764010423506"><ele>121.0</ele><time>2026-04-26T15:03:33.001Z</time></trkpt><trkpt lat="40.904362717506544" lon="0.5333615183333579"><ele>118.16666666666667</ele><time>2026-04-26T15:03:36.001Z</time></trkpt><trkpt lat="40.90436564660064" lon="0.5332550393628299"><ele>115.33333333333334</ele><time>2026-04-26T15:03:39.001Z</time></trkpt><trkpt lat="40.90434641195292" lon="0.5331587411578297"><ele>112.5</ele><time>2026-04-26T15:03:41.002Z</time></trkpt><trkpt lat="40.90437177611328" lon="0.5330546123624429"><ele>109.66666666666666</ele><time>2026-04-26T15:03:44.002Z</time></trkpt><trkpt lat="40.90442904560699" lon="0.5329473141506518"><ele>106.83333333333333</ele><time>2026-04-26T15:03:47.002Z</time></trkpt><trkpt lat="40.90448095443872" lon="0.5328394741963546"><ele>104.0</ele><time>2026-04-26T15:03:49.002Z</time></trkpt><trkpt lat="40.90454756413948" lon="0.532737315152911"><ele>103.99999999999999</ele><time>2026-04-26T15:03:51.002Z</time></trkpt><trkpt lat="40.904588611550025" lon="0.5326593417863601"><ele>104.0</ele><time>2026-04-26T15:03:53.002Z</time></trkpt><trkpt lat="40.904632600680046" lon="0.5325760019303858"><ele>104.0</ele><time>2026-04-26T15:03:55.002Z</time></trkpt><trkpt lat="40.90466206603593" lon="0.5324683231099868"><ele>104.0</ele><time>2026-04-26T15:03:57.002Z</time></trkpt><trkpt lat="40.90468480504346" lon="0.5323876525353795"><ele>103.99999999999999</ele><time>2026-04-26T15:03:59.002Z</time></trkpt><trkpt lat="40.904738595119134" lon="0.5323020258247803"><ele>104.0</ele><time>2026-04-26T15:04:02.002Z</time></trkpt><trkpt lat="40.904795892606955" lon="0.5322502119161675"><ele>103.99999999999999</ele><time>2026-04-26T15:04:04.002Z</time></trkpt><trkpt lat="40.904840410970756" lon="0.5321911379800263"><ele>104.0</ele><time>2026-04-26T15:04:06.002Z</time></trkpt><trkpt lat="40.9049195515399" lon="0.5321271128441918"><ele>104.0</ele><time>2026-04-26T15:04:09.001Z</time></trkpt><trkpt lat="40.90499276051736" lon="0.5321210732700243"><ele>104.0</ele><time>2026-04-26T15:04:12.001Z</time></trkpt><trkpt lat="40.90505246444905" lon="0.532158517789147"><ele>103.99999999999999</ele><time>2026-04-26T15:04:15.001Z</time></trkpt><trkpt lat="40.90501812374348" lon="0.5322757374391114"><ele>104.0</ele><time>2026-04-26T15:04:18.001Z</time></trkpt><trkpt lat="40.90501919795833" lon="0.5324004157281982"><ele>103.99999999999999</ele><time>2026-04-26T15:04:20.001Z</time></trkpt><trkpt lat="40.905061094226916" lon="0.5324906119313007"><ele>104.0</ele><time>2026-04-26T15:04:23.001Z</time></trkpt><trkpt lat="40.90515153282798" lon="0.5325258298154608"><ele>104.0</ele><time>2026-04-26T15:04:26.001Z</time></trkpt><trkpt lat="40.90522261284843" lon="0.5324797553799613"><ele>104.0</ele><time>2026-04-26T15:04:28.001Z</time></trkpt><trkpt lat="40.90528265629084" lon="0.5324341939132213"><ele>103.99999999999999</ele><time>2026-04-26T15:04:30.001Z</time></trkpt><trkpt lat="40.90534942223224" lon="0.5323490488507068"><ele>104.0</ele><time>2026-04-26T15:04:32.001Z</time></trkpt><trkpt lat="40.90543223316719" lon="0.5322584659377859"><ele>101.49999999999999</ele><time>2026-04-26T15:04:34.001Z</time></trkpt><trkpt lat="40.90549676503855" lon="0.5321725032503567"><ele>99.0</ele><time>2026-04-26T15:04:36.001Z</time></trkpt><trkpt lat="40.90555338579881" lon="0.5321031713612715"><ele>96.5</ele><time>2026-04-26T15:04:40.001Z</time></trkpt><trkpt lat="40.90560778625349" lon="0.5321509287184943"><ele>94.0</ele><time>2026-04-26T15:04:43.001Z</time></trkpt><trkpt lat="40.905640936276306" lon="0.5322532457549682"><ele>91.5</ele><time>2026-04-26T15:04:46.001Z</time></trkpt><trkpt lat="40.905710245365626" lon="0.5323110616274079"><ele>89.0</ele><time>2026-04-26T15:04:48.001Z</time></trkpt><trkpt lat="40.90579016020797" lon="0.5323358589489295"><ele>89.0</ele><time>2026-04-26T15:04:51.001Z</time></trkpt><trkpt lat="40.90585264025949" lon="0.5322794993904086"><ele>89.0</ele><time>2026-04-26T15:04:54.001Z</time></trkpt><trkpt lat="40.905863084344624" lon="0.5321495230308863"><ele>89.0</ele><time>2026-04-26T15:04:56.001Z</time></trkpt><trkpt lat="40.90587376408133" lon="0.5320584898073049"><ele>89.0</ele><time>2026-04-26T15:04:58.001Z</time></trkpt><trkpt lat="40.90590467183537" lon="0.5319858318872787"><ele>89.0</ele><time>2026-04-26T15:05:01.001Z</time></trkpt><trkpt lat="40.90598789503841" lon="0.5319743321495387"><ele>89.0</ele><time>2026-04-26T15:05:04.001Z</time></trkpt><trkpt lat="40.906080540195724" lon="0.5319984253106037"><ele>83.8</ele><time>2026-04-26T15:05:08.001Z</time></trkpt><trkpt lat="40.9061534215448" lon="0.5320040036172736"><ele>78.60000000000001</ele><time>2026-04-26T15:05:11.001Z</time></trkpt><trkpt lat="40.90622748627644" lon="0.5321756995572282"><ele>73.4</ele><time>2026-04-26T15:05:17.001Z</time></trkpt><trkpt lat="40.90625220464307" lon="0.5322918394364643"><ele>68.2</ele><time>2026-04-26T15:05:19.001Z</time></trkpt><trkpt lat="40.90629810674439" lon="0.5323747897116019"><ele>63.0</ele><time>2026-04-26T15:05:21.001Z</time></trkpt><trkpt lat="40.90632503633413" lon="0.5324560279402687"><ele>63.0</ele><time>2026-04-26T15:05:23.001Z</time></trkpt><trkpt lat="40.9063418284634" lon="0.5325544082766195"><ele>63.0</ele><time>2026-04-26T15:05:26.001Z</time></trkpt><trkpt lat="40.90635747311676" lon="0.5326463333887197"><ele>63.0</ele><time>2026-04-26T15:05:28.001Z</time></trkpt><trkpt lat="40.906390992623564" lon="0.5327790848683654"><ele>63.0</ele><time>2026-04-26T15:05:30.001Z</time></trkpt><trkpt lat="40.90642453494688" lon="0.5328847457175817"><ele>63.0</ele><time>2026-04-26T15:05:32.001Z</time></trkpt><trkpt lat="40.906438547748735" lon="0.5330019462566492"><ele>63.0</ele><time>2026-04-26T15:05:34.001Z</time></trkpt><trkpt lat="40.90645093310953" lon="0.5330974366863557"><ele>62.714285714285715</ele><time>2026-04-26T15:05:37.001Z</time></trkpt><trkpt lat="40.90643904785369" lon="0.5331860969096366"><ele>62.42857142857143</ele><time>2026-04-26T15:05:40.001Z</time></trkpt><trkpt lat="40.90646390872784" lon="0.5332672052429132"><ele>62.14285714285714</ele><time>2026-04-26T15:05:42.001Z</time></trkpt><trkpt lat="40.90649819430077" lon="0.5333479948988615"><ele>61.857142857142854</ele><time>2026-04-26T15:05:44.001Z</time></trkpt><trkpt lat="40.90649086367893" lon="0.5334318400636678"><ele>61.57142857142857</ele><time>2026-04-26T15:05:48.001Z</time></trkpt><trkpt lat="40.906518199571146" lon="0.5335087181895503"><ele>61.28571428571428</ele><time>2026-04-26T15:05:53.001Z</time></trkpt><trkpt lat="40.9065826525562" lon="0.533513168369876"><ele>60.99999999999999</ele><time>2026-04-26T15:05:56.001Z</time></trkpt><trkpt lat="40.906669304711876" lon="0.5335557785183106"><ele>60.99999999999999</ele><time>2026-04-26T15:06:28.001Z</time></trkpt><trkpt lat="40.906616988795804" lon="0.5336204695679699"><ele>61.0</ele><time>2026-04-26T15:06:31.001Z</time></trkpt><trkpt lat="40.906548915170994" lon="0.5337093556733018"><ele>61.0</ele><time>2026-04-26T15:06:34.001Z</time></trkpt><trkpt lat="40.906510062706054" lon="0.5337804676385853"><ele>61.0</ele><time>2026-04-26T15:06:36.001Z</time></trkpt><trkpt lat="40.9064373500158" lon="0.5338361224864985"><ele>60.99999999999999</ele><time>2026-04-26T15:06:39.001Z</time></trkpt><trkpt lat="40.90643781621815" lon="0.5339514784023891"><ele>61.0</ele><time>2026-04-26T15:06:42.001Z</time></trkpt><trkpt lat="40.90651241829033" lon="0.5340322711773108"><ele>61.14285714285714</ele><time>2026-04-26T15:06:44.001Z</time></trkpt><trkpt lat="40.906590433264675" lon="0.5340262866149458"><ele>61.285714285714285</ele><time>2026-04-26T15:06:47.001Z</time></trkpt><trkpt lat="40.906595377264566" lon="0.5339429953104157"><ele>61.42857142857143</ele><time>2026-04-26T15:06:49.001Z</time></trkpt><trkpt lat="40.90664003760051" lon="0.5338634803653456"><ele>61.57142857142857</ele><time>2026-04-26T15:06:52.001Z</time></trkpt><trkpt lat="40.9067028535586" lon="0.5338026032439872"><ele>61.71428571428572</ele><time>2026-04-26T15:06:54.001Z</time></trkpt><trkpt lat="40.906757897505884" lon="0.5337339619053363"><ele>61.85714285714286</ele><time>2026-04-26T15:06:56.001Z</time></trkpt><trkpt lat="40.90679044234377" lon="0.533651252574966"><ele>62.0</ele><time>2026-04-26T15:07:00.001Z</time></trkpt><trkpt lat="40.90681837472618" lon="0.5335104838209813"><ele>63.8</ele><time>2026-04-26T15:07:02.001Z</time></trkpt><trkpt lat="40.90681547244941" lon="0.533397453156972"><ele>65.6</ele><time>2026-04-26T15:07:03.001Z</time></trkpt><trkpt lat="40.90683580576498" lon="0.5332785520790567"><ele>67.39999999999999</ele><time>2026-04-26T15:07:06.001Z</time></trkpt><trkpt lat="40.906879685151" lon="0.5332127700891709"><ele>69.2</ele><time>2026-04-26T15:07:09.001Z</time></trkpt><trkpt lat="40.90688672201111" lon="0.5331101552210331"><ele>71.0</ele><time>2026-04-26T15:07:12.001Z</time></trkpt><trkpt lat="40.90683122579809" lon="0.5333179463626251"><ele>71.0</ele><time>2026-04-26T15:07:18.001Z</time></trkpt><trkpt lat="40.906814500125016" lon="0.5334222580073288"><ele>71.0</ele><time>2026-04-26T15:07:20.001Z</time></trkpt><trkpt lat="40.906789102044584" lon="0.533519633005107"><ele>71.0</ele><time>2026-04-26T15:07:22.001Z</time></trkpt><trkpt lat="40.90674488346969" lon="0.5336304658523278"><ele>71.0</ele><time>2026-04-26T15:07:24.001Z</time></trkpt><trkpt lat="40.90667508314135" lon="0.5337283004262505"><ele>71.0</ele><time>2026-04-26T15:07:26.001Z</time></trkpt><trkpt lat="40.9066126534711" lon="0.5337814425712183"><ele>71.0</ele><time>2026-04-26T15:07:28.001Z</time></trkpt><trkpt lat="40.906565032263245" lon="0.5338719350501331"><ele>69.5</ele><time>2026-04-26T15:07:30.001Z</time></trkpt><trkpt lat="40.90653350119495" lon="0.5339471784300941"><ele>68.0</ele><time>2026-04-26T15:07:31.001Z</time></trkpt><trkpt lat="40.90649830260482" lon="0.5340337242746936"><ele>66.5</ele><time>2026-04-26T15:07:32.001Z</time></trkpt><trkpt lat="40.906461680629896" lon="0.5341548532731281"><ele>65.0</ele><time>2026-04-26T15:07:33.001Z</time></trkpt><trkpt lat="40.90642312330199" lon="0.5342448064799521"><ele>63.50000000000001</ele><time>2026-04-26T15:07:34.001Z</time></trkpt><trkpt lat="40.90633727200104" lon="0.5343129197731074"><ele>62.0</ele><time>2026-04-26T15:07:36.001Z</time></trkpt><trkpt lat="40.90629223829365" lon="0.5343756135387665"><ele>62.00000000000001</ele><time>2026-04-26T15:07:39.001Z</time></trkpt><trkpt lat="40.90621136929474" lon="0.53444012542336"><ele>62.0</ele><time>2026-04-26T15:07:41.001Z</time></trkpt><trkpt lat="40.906150940222936" lon="0.5344926679814535"><ele>62.0</ele><time>2026-04-26T15:07:42.001Z</time></trkpt><trkpt lat="40.90608437544728" lon="0.5345081833166015"><ele>62.0</ele><time>2026-04-26T15:07:43.001Z</time></trkpt><trkpt lat="40.9059800381915" lon="0.5345086360448054"><ele>62.00000000000001</ele><time>2026-04-26T15:07:45.001Z</time></trkpt><trkpt lat="40.90590520947274" lon="0.5345747187447423"><ele>62.0</ele><time>2026-04-26T15:07:47.001Z</time></trkpt><trkpt lat="40.90587064294467" lon="0.534645739320995"><ele>62.16666666666667</ele><time>2026-04-26T15:07:48.001Z</time></trkpt><trkpt lat="40.9058227445032" lon="0.5347261904638093"><ele>62.333333333333336</ele><time>2026-04-26T15:07:49.001Z</time></trkpt><trkpt lat="40.90575583667336" lon="0.5348212768285215"><ele>62.5</ele><time>2026-04-26T15:07:50.001Z</time></trkpt><trkpt lat="40.90569693333793" lon="0.5349043047140786"><ele>62.66666666666667</ele><time>2026-04-26T15:07:51.001Z</time></trkpt><trkpt lat="40.905647507481156" lon="0.5350127206848896"><ele>62.833333333333336</ele><time>2026-04-26T15:07:53.001Z</time></trkpt><trkpt lat="40.90561644481857" lon="0.535089756429876"><ele>63.0</ele><time>2026-04-26T15:07:54.001Z</time></trkpt><trkpt lat="40.90563520304057" lon="0.5352580362894406"><ele>63.0</ele><time>2026-04-26T15:07:56.001Z</time></trkpt><trkpt lat="40.9056785498757" lon="0.5353840339966538"><ele>63.0</ele><time>2026-04-26T15:07:57.001Z</time></trkpt><trkpt lat="40.90570393370847" lon="0.5355152861346663"><ele>63.0</ele><time>2026-04-26T15:07:58.001Z</time></trkpt><trkpt lat="40.90572895772941" lon="0.5356454860187541"><ele>63.0</ele><time>2026-04-26T15:07:59.001Z</time></trkpt><trkpt lat="40.90574777572894" lon="0.5357438832748069"><ele>63.0</ele><time>2026-04-26T15:08:00.001Z</time></trkpt><trkpt lat="40.90578512948235" lon="0.5359098264629613"><ele>65.0</ele><time>2026-04-26T15:08:02.001Z</time></trkpt><trkpt lat="40.9057706799272" lon="0.5360219562949954"><ele>67.0</ele><time>2026-04-26T15:08:03.001Z</time></trkpt><trkpt lat="40.90574892387342" lon="0.5361427496542477"><ele>69.0</ele><time>2026-04-26T15:08:04.001Z</time></trkpt><trkpt lat="40.905756359491015" lon="0.536273094807919"><ele>71.0</ele><time>2026-04-26T15:08:05.001Z</time></trkpt><trkpt lat="40.905773182601386" lon="0.5364221275395901"><ele>73.0</ele><time>2026-04-26T15:08:06.001Z</time></trkpt><trkpt lat="40.905777032865025" lon="0.5365250036974617"><ele>74.4</ele><time>2026-04-26T15:08:07.001Z</time></trkpt><trkpt lat="40.90574345457705" lon="0.5366497365730273"><ele>75.8</ele><time>2026-04-26T15:08:09.001Z</time></trkpt><trkpt lat="40.90565520527987" lon="0.536806456300582"><ele>77.2</ele><time>2026-04-26T15:08:11.001Z</time></trkpt><trkpt lat="40.905609459454666" lon="0.53691472624145"><ele>78.6</ele><time>2026-04-26T15:08:12.001Z</time></trkpt><trkpt lat="40.90556439267725" lon="0.5369792057847136"><ele>80.0</ele><time>2026-04-26T15:08:13.001Z</time></trkpt><trkpt lat="40.90551029131993" lon="0.5370545626387637"><ele>83.4</ele><time>2026-04-26T15:08:14.001Z</time></trkpt><trkpt lat="40.90544268556655" lon="0.5370926723057459"><ele>86.8</ele><time>2026-04-26T15:08:15.001Z</time></trkpt><trkpt lat="40.90536124487988" lon="0.537130736010833"><ele>90.19999999999999</ele><time>2026-04-26T15:08:16.001Z</time></trkpt><trkpt lat="40.90528324659843" lon="0.5372114910080568"><ele>93.6</ele><time>2026-04-26T15:08:17.001Z</time></trkpt><trkpt lat="40.905204716335106" lon="0.5373170124862915"><ele>97.0</ele><time>2026-04-26T15:08:18.001Z</time></trkpt><trkpt lat="40.905147404316125" lon="0.5373912137727578"><ele>97.0</ele><time>2026-04-26T15:08:19.001Z</time></trkpt><trkpt lat="40.90509327463391" lon="0.537504591632029"><ele>97.0</ele><time>2026-04-26T15:08:21.001Z</time></trkpt><trkpt lat="40.905089265213576" lon="0.537599406148544"><ele>97.0</ele><time>2026-04-26T15:08:23.001Z</time></trkpt><trkpt lat="40.90512786099816" lon="0.5376721923418358"><ele>97.0</ele><time>2026-04-26T15:08:24.001Z</time></trkpt><trkpt lat="40.905166551048886" lon="0.5377480949166795"><ele>97.0</ele><time>2026-04-26T15:08:25.001Z</time></trkpt><trkpt lat="40.90520283589744" lon="0.5378171614383126"><ele>97.0</ele><time>2026-04-26T15:08:26.001Z</time></trkpt><trkpt lat="40.905234408408504" lon="0.5378898198103321"><ele>97.0</ele><time>2026-04-26T15:08:27.001Z</time></trkpt><trkpt lat="40.905298568063365" lon="0.5380262659500933"><ele>96.19999999999999</ele><time>2026-04-26T15:08:29.001Z</time></trkpt><trkpt lat="40.90535517275628" lon="0.5381271203339001"><ele>95.4</ele><time>2026-04-26T15:08:31.001Z</time></trkpt><trkpt lat="40.905434810843694" lon="0.5382118453425191"><ele>94.6</ele><time>2026-04-26T15:08:33.001Z</time></trkpt><trkpt lat="40.90551244656107" lon="0.5383415381568923"><ele>93.80000000000001</ele><time>2026-04-26T15:08:35.001Z</time></trkpt><trkpt lat="40.905532406621326" lon="0.5384606169763559"><ele>93.0</ele><time>2026-04-26T15:08:37.001Z</time></trkpt><trkpt lat="40.90549698052855" lon="0.5385608024328172"><ele>93.0</ele><time>2026-04-26T15:08:39.001Z</time></trkpt><trkpt lat="40.90557226926327" lon="0.5387052447628334"><ele>93.0</ele><time>2026-04-26T15:08:41.001Z</time></trkpt><trkpt lat="40.905659045798146" lon="0.5387749995968292"><ele>93.0</ele><time>2026-04-26T15:08:42.001Z</time></trkpt><trkpt lat="40.90576691923046" lon="0.5388290304461042"><ele>93.0</ele><time>2026-04-26T15:08:43.001Z</time></trkpt><trkpt lat="40.90589831870892" lon="0.5388828989933815"><ele>93.16666666666667</ele><time>2026-04-26T15:08:44.001Z</time></trkpt><trkpt lat="40.90598947395128" lon="0.5389271755011293"><ele>93.33333333333333</ele><time>2026-04-26T15:08:45.001Z</time></trkpt><trkpt lat="40.9060736339817" lon="0.5390185669071256"><ele>93.5</ele><time>2026-04-26T15:08:47.001Z</time></trkpt><trkpt lat="40.90611464186645" lon="0.5390915784359224"><ele>93.66666666666666</ele><time>2026-04-26T15:08:48Z</time></trkpt><trkpt lat="40.906148799448175" lon="0.5391775073172569"><ele>93.83333333333333</ele><time>2026-04-26T15:08:49Z</time></trkpt><trkpt lat="40.906179711520835" lon="0.5392729710195246"><ele>94.0</ele><time>2026-04-26T15:08:50Z</time></trkpt><trkpt lat="40.90621645408266" lon="0.539343315316884"><ele>94.0</ele><time>2026-04-26T15:08:51Z</time></trkpt><trkpt lat="40.906272800718256" lon="0.5394505454228502"><ele>94.0</ele><time>2026-04-26T15:08:53Z</time></trkpt><trkpt lat="40.906199832747326" lon="0.5394340837088"><ele>94.0</ele><time>2026-04-26T15:08:58Z</time></trkpt><trkpt lat="40.90611853370318" lon="0.5393428933376153"><ele>94.0</ele><time>2026-04-26T15:08:59Z</time></trkpt><trkpt lat="40.906071670202174" lon="0.5392774668125618"><ele>94.0</ele><time>2026-04-26T15:09:00Z</time></trkpt><trkpt lat="40.90598731199784" lon="0.539206178083213"><ele>94.0</ele><time>2026-04-26T15:09:02Z</time></trkpt><trkpt lat="40.90591907213667" lon="0.5392072907531983"><ele>94.0</ele><time>2026-04-26T15:09:03Z</time></trkpt><trkpt lat="40.9058182666267" lon="0.5392433316994231"><ele>94.0</ele><time>2026-04-26T15:09:04Z</time></trkpt><trkpt lat="40.905722790343496" lon="0.5392791324993483"><ele>94.0</ele><time>2026-04-26T15:09:05Z</time></trkpt><trkpt lat="40.905626569748556" lon="0.5393000698319739"><ele>94.0</ele><time>2026-04-26T15:09:06Z</time></trkpt><trkpt lat="40.905537322452076" lon="0.5393093928918057"><ele>94.0</ele><time>2026-04-26T15:09:07Z</time></trkpt><trkpt lat="40.90545128265989" lon="0.539307028575156"><ele>94.0</ele><time>2026-04-26T15:09:08Z</time></trkpt><trkpt lat="40.90532462428121" lon="0.5393179590099277"><ele>94.0</ele><time>2026-04-26T15:09:10Z</time></trkpt><trkpt lat="40.90525939251375" lon="0.5393345008884862"><ele>94.0</ele><time>2026-04-26T15:09:11Z</time></trkpt><trkpt lat="40.905164522480185" lon="0.5394518297601746"><ele>94.0</ele><time>2026-04-26T15:09:13Z</time></trkpt><trkpt lat="40.90512989067703" lon="0.5396143784845195"><ele>97.0</ele><time>2026-04-26T15:09:15Z</time></trkpt><trkpt lat="40.905109699706394" lon="0.5397139870453551"><ele>100.0</ele><time>2026-04-26T15:09:16Z</time></trkpt><trkpt lat="40.90507728054052" lon="0.5398248367005816"><ele>103.0</ele><time>2026-04-26T15:09:17Z</time></trkpt><trkpt lat="40.90505268993123" lon="0.5399206711136187"><ele>106.0</ele><time>2026-04-26T15:09:18Z</time></trkpt><trkpt lat="40.905023747968954" lon="0.540078618043024"><ele>109.0</ele><time>2026-04-26T15:09:20Z</time></trkpt><trkpt lat="40.90497803591022" lon="0.5401913348071926"><ele>109.0</ele><time>2026-04-26T15:09:23Z</time></trkpt><trkpt lat="40.9049282440371" lon="0.5402996510261328"><ele>109.0</ele><time>2026-04-26T15:09:25Z</time></trkpt><trkpt lat="40.905041389092375" lon="0.5400422096677183"><ele>109.0</ele><time>2026-04-26T15:10:04.001Z</time></trkpt><trkpt lat="40.90507279570751" lon="0.5399214720241428"><ele>109.0</ele><time>2026-04-26T15:10:05.001Z</time></trkpt><trkpt lat="40.905104633931074" lon="0.5398086855430542"><ele>110.4</ele><time>2026-04-26T15:10:06.001Z</time></trkpt><trkpt lat="40.9051307813951" lon="0.5397067290973896"><ele>111.80000000000001</ele><time>2026-04-26T15:10:07.001Z</time></trkpt><trkpt lat="40.905145809332446" lon="0.5396185640413149"><ele>113.19999999999999</ele><time>2026-04-26T15:10:08.001Z</time></trkpt><trkpt lat="40.905178454194655" lon="0.5394867564032427"><ele>114.6</ele><time>2026-04-26T15:10:10.001Z</time></trkpt><trkpt lat="40.90524569076188" lon="0.5393977206117575"><ele>116.0</ele><time>2026-04-26T15:10:12.001Z</time></trkpt><trkpt lat="40.90535409961375" lon="0.5393435964583326"><ele>112.33333333333333</ele><time>2026-04-26T15:10:14.001Z</time></trkpt><trkpt lat="40.905438073258935" lon="0.5393474739777367"><ele>108.66666666666666</ele><time>2026-04-26T15:10:15.001Z</time></trkpt><trkpt lat="40.905535455124266" lon="0.5393601521534257"><ele>105.0</ele><time>2026-04-26T15:10:16.001Z</time></trkpt><trkpt lat="40.90562045542517" lon="0.5393630280388038"><ele>101.33333333333333</ele><time>2026-04-26T15:10:17.001Z</time></trkpt><trkpt lat="40.90570246969848" lon="0.5393418065022939"><ele>97.66666666666666</ele><time>2026-04-26T15:10:18.001Z</time></trkpt><trkpt lat="40.90577865435726" lon="0.5393176639708899"><ele>94.0</ele><time>2026-04-26T15:10:19.001Z</time></trkpt><trkpt lat="40.90584666144026" lon="0.5392943659807585"><ele>94.0</ele><time>2026-04-26T15:10:20.001Z</time></trkpt><trkpt lat="40.90595256591525" lon="0.5392644299071379"><ele>94.0</ele><time>2026-04-26T15:10:22.001Z</time></trkpt><trkpt lat="40.90603786791247" lon="0.5392978141575506"><ele>94.0</ele><time>2026-04-26T15:10:24.001Z</time></trkpt><trkpt lat="40.906121971746565" lon="0.5393718702856706"><ele>94.0</ele><time>2026-04-26T15:10:26.001Z</time></trkpt><trkpt lat="40.906186959959456" lon="0.5394946559512503"><ele>94.0</ele><time>2026-04-26T15:10:28Z</time></trkpt><trkpt lat="40.90623106104605" lon="0.5395583888476138"><ele>94.0</ele><time>2026-04-26T15:10:30Z</time></trkpt><trkpt lat="40.90629173795961" lon="0.5395172175705664"><ele>94.0</ele><time>2026-04-26T15:10:34Z</time></trkpt><trkpt lat="40.906242921910376" lon="0.5394018029071901"><ele>94.0</ele><time>2026-04-26T15:10:36Z</time></trkpt><trkpt lat="40.90619875403466" lon="0.5393363912534166"><ele>94.0</ele><time>2026-04-26T15:10:37Z</time></trkpt><trkpt lat="40.906146091736694" lon="0.5391971234698935"><ele>94.0</ele><time>2026-04-26T15:10:39Z</time></trkpt><trkpt lat="40.906081460933486" lon="0.5390486471716955"><ele>94.0</ele><time>2026-04-26T15:10:41Z</time></trkpt><trkpt lat="40.905973129468265" lon="0.5389480767274833"><ele>94.0</ele><time>2026-04-26T15:10:43Z</time></trkpt><trkpt lat="40.90584556672524" lon="0.5388825184523724"><ele>94.0</ele><time>2026-04-26T15:10:45Z</time></trkpt><trkpt lat="40.90577606519553" lon="0.5388500902978381"><ele>94.0</ele><time>2026-04-26T15:10:46Z</time></trkpt><trkpt lat="40.90567146674688" lon="0.5387830490441652"><ele>93.83333333333333</ele><time>2026-04-26T15:10:48Z</time></trkpt><trkpt lat="40.90559238310768" lon="0.5386936307530129"><ele>93.66666666666666</ele><time>2026-04-26T15:10:50Z</time></trkpt><trkpt lat="40.9055813747101" lon="0.538586070654151"><ele>93.5</ele><time>2026-04-26T15:10:52Z</time></trkpt><trkpt lat="40.90557608665712" lon="0.5384723441682452"><ele>93.33333333333333</ele><time>2026-04-26T15:10:53Z</time></trkpt><trkpt lat="40.90555138800882" lon="0.53835864254138"><ele>93.16666666666667</ele><time>2026-04-26T15:10:54Z</time></trkpt><trkpt lat="40.905507615534795" lon="0.5382709827279512"><ele>93.0</ele><time>2026-04-26T15:10:55Z</time></trkpt><trkpt lat="40.90544795244777" lon="0.5381967245865865"><ele>93.0</ele><time>2026-04-26T15:10:56Z</time></trkpt><trkpt lat="40.90539074330897" lon="0.5381156534452447"><ele>93.0</ele><time>2026-04-26T15:10:57Z</time></trkpt><trkpt lat="40.90527811158303" lon="0.5380046021674502"><ele>93.0</ele><time>2026-04-26T15:10:59Z</time></trkpt><trkpt lat="40.905226790798636" lon="0.5379172488431603"><ele>93.0</ele><time>2026-04-26T15:11:00Z</time></trkpt><trkpt lat="40.90515886020381" lon="0.537765460716093"><ele>93.0</ele><time>2026-04-26T15:11:02Z</time></trkpt><trkpt lat="40.90510646665652" lon="0.5376494337111113"><ele>93.80000000000001</ele><time>2026-04-26T15:11:04Z</time></trkpt><trkpt lat="40.90511722657369" lon="0.5375626042145821"><ele>94.6</ele><time>2026-04-26T15:11:06Z</time></trkpt><trkpt lat="40.90521006984334" lon="0.5374243956694855"><ele>95.4</ele><time>2026-04-26T15:11:08Z</time></trkpt><trkpt lat="40.90527394614045" lon="0.5373440677940633"><ele>96.19999999999999</ele><time>2026-04-26T15:11:09Z</time></trkpt><trkpt lat="40.90535578204849" lon="0.5372742737337862"><ele>97.0</ele><time>2026-04-26T15:11:10Z</time></trkpt><trkpt lat="40.90543272636077" lon="0.5372206730011616"><ele>97.00000000000001</ele><time>2026-04-26T15:11:11Z</time></trkpt><trkpt lat="40.905510427292654" lon="0.5371685815946646"><ele>97.0</ele><time>2026-04-26T15:11:12Z</time></trkpt><trkpt lat="40.90557584496258" lon="0.5371248086838631"><ele>97.0</ele><time>2026-04-26T15:11:13Z</time></trkpt><trkpt lat="40.90563183337416" lon="0.5370604118900011"><ele>97.0</ele><time>2026-04-26T15:11:14Z</time></trkpt><trkpt lat="40.905698406161584" lon="0.5369064197244154"><ele>97.00000000000001</ele><time>2026-04-26T15:11:16Z</time></trkpt><trkpt lat="40.905736802786286" lon="0.5368274742716074"><ele>97.0</ele><time>2026-04-26T15:11:17Z</time></trkpt><trkpt lat="40.905797465357544" lon="0.5366693268080871"><ele>94.16666666666667</ele><time>2026-04-26T15:11:19Z</time></trkpt><trkpt lat="40.90582991996377" lon="0.5365292618188064"><ele>91.33333333333334</ele><time>2026-04-26T15:11:21Z</time></trkpt><trkpt lat="40.90581904188985" lon="0.5364124348157655"><ele>88.5</ele><time>2026-04-26T15:11:22Z</time></trkpt><trkpt lat="40.90580399361231" lon="0.5363086519902999"><ele>85.66666666666667</ele><time>2026-04-26T15:11:23Z</time></trkpt><trkpt lat="40.90579618211378" lon="0.5362070473043156"><ele>82.83333333333334</ele><time>2026-04-26T15:11:24Z</time></trkpt><trkpt lat="40.90579527438391" lon="0.536123440208736"><ele>80.0</ele><time>2026-04-26T15:11:25Z</time></trkpt><trkpt lat="40.90581572914299" lon="0.5360010488818463"><ele>78.83333333333334</ele><time>2026-04-26T15:11:27Z</time></trkpt><trkpt lat="40.90580588924269" lon="0.535883088684469"><ele>77.66666666666667</ele><time>2026-04-26T15:11:29Z</time></trkpt><trkpt lat="40.90575611823938" lon="0.5357271870737363"><ele>76.5</ele><time>2026-04-26T15:11:31Z</time></trkpt><trkpt lat="40.905727782222485" lon="0.5356499120790162"><ele>75.33333333333333</ele><time>2026-04-26T15:11:32Z</time></trkpt><trkpt lat="40.905705855682186" lon="0.5355512933632463"><ele>74.16666666666666</ele><time>2026-04-26T15:11:33Z</time></trkpt><trkpt lat="40.90568751253359" lon="0.5354698873993319"><ele>73.0</ele><time>2026-04-26T15:11:34Z</time></trkpt><trkpt lat="40.905664212092404" lon="0.5353879204722582"><ele>71.0</ele><time>2026-04-26T15:11:35Z</time></trkpt><trkpt lat="40.90562647150372" lon="0.5352625527054594"><ele>69.0</ele><time>2026-04-26T15:11:37Z</time></trkpt><trkpt lat="40.905610213381074" lon="0.5351474204913463"><ele>67.0</ele><time>2026-04-26T15:11:39Z</time></trkpt><trkpt lat="40.90563871382577" lon="0.5350542844871985"><ele>65.0</ele><time>2026-04-26T15:11:41Z</time></trkpt><trkpt lat="40.905717025957266" lon="0.5349278838904643"><ele>63.0</ele><time>2026-04-26T15:11:43Z</time></trkpt><trkpt lat="40.90577388051409" lon="0.5348577382045901"><ele>63.0</ele><time>2026-04-26T15:11:44Z</time></trkpt><trkpt lat="40.90581960558927" lon="0.5347946542043764"><ele>63.0</ele><time>2026-04-26T15:11:45Z</time></trkpt><trkpt lat="40.90589003418371" lon="0.5346841862652885"><ele>63.0</ele><time>2026-04-26T15:11:47Z</time></trkpt><trkpt lat="40.905983764392076" lon="0.5346332519241666"><ele>63.0</ele><time>2026-04-26T15:11:49Z</time></trkpt><trkpt lat="40.906054793993995" lon="0.5346337750988587"><ele>63.0</ele><time>2026-04-26T15:11:50Z</time></trkpt><trkpt lat="40.90614834446148" lon="0.5346283581469572"><ele>63.0</ele><time>2026-04-26T15:11:51Z</time></trkpt><trkpt lat="40.90622528831435" lon="0.5345821247682723"><ele>62.833333333333336</ele><time>2026-04-26T15:11:52Z</time></trkpt><trkpt lat="40.90628970041059" lon="0.5345368384989897"><ele>62.66666666666667</ele><time>2026-04-26T15:11:53Z</time></trkpt><trkpt lat="40.90634877499997" lon="0.5344899051798292"><ele>62.5</ele><time>2026-04-26T15:11:54Z</time></trkpt><trkpt lat="40.90644402441608" lon="0.5344309638587706"><ele>62.333333333333336</ele><time>2026-04-26T15:11:56Z</time></trkpt><trkpt lat="40.906507154349825" lon="0.5343664031906701"><ele>62.16666666666667</ele><time>2026-04-26T15:11:59Z</time></trkpt><trkpt lat="40.906537602848715" lon="0.5342909756282208"><ele>62.0</ele><time>2026-04-26T15:12:01Z</time></trkpt><trkpt lat="40.90657783947124" lon="0.5341650267944431"><ele>62.00000000000001</ele><time>2026-04-26T15:12:04Z</time></trkpt><trkpt lat="40.90660341387578" lon="0.5340694169708015"><ele>62.0</ele><time>2026-04-26T15:12:07Z</time></trkpt><trkpt lat="40.90654513944413" lon="0.5339975775085996"><ele>62.0</ele><time>2026-04-26T15:12:11Z</time></trkpt><trkpt lat="40.90647724025404" lon="0.5340023474975194"><ele>62.0</ele><time>2026-04-26T15:12:13Z</time></trkpt><trkpt lat="40.90640641616476" lon="0.5339747007762348"><ele>62.00000000000001</ele><time>2026-04-26T15:12:19Z</time></trkpt><trkpt lat="40.9065198718964" lon="0.5338543906140867"><ele>62.0</ele><time>2026-04-26T15:12:21Z</time></trkpt><trkpt lat="40.90658374708623" lon="0.533778462439522"><ele>61.833333333333336</ele><time>2026-04-26T15:12:22Z</time></trkpt><trkpt lat="40.906638843967414" lon="0.5337141983173557"><ele>61.66666666666667</ele><time>2026-04-26T15:12:24Z</time></trkpt><trkpt lat="40.906665372584236" lon="0.5336299250814253"><ele>61.5</ele><time>2026-04-26T15:12:27Z</time></trkpt><trkpt lat="40.906664374523054" lon="0.5335292538199758"><ele>61.33333333333333</ele><time>2026-04-26T15:12:29Z</time></trkpt><trkpt lat="40.90664074822111" lon="0.5334017001415186"><ele>61.166666666666664</ele><time>2026-04-26T15:12:30Z</time></trkpt><trkpt lat="40.9066330356045" lon="0.533265520291131"><ele>61.0</ele><time>2026-04-26T15:12:31Z</time></trkpt><trkpt lat="40.906639724035145" lon="0.5331569420521064"><ele>60.99999999999999</ele><time>2026-04-26T15:12:32Z</time></trkpt><trkpt lat="40.90666506213678" lon="0.533042138483402"><ele>61.0</ele><time>2026-04-26T15:12:33Z</time></trkpt><trkpt lat="40.906681614734524" lon="0.5329362152488222"><ele>61.0</ele><time>2026-04-26T15:12:34Z</time></trkpt><trkpt lat="40.9066990827542" lon="0.5328524259684608"><ele>61.0</ele><time>2026-04-26T15:12:35Z</time></trkpt><trkpt lat="40.90672851426651" lon="0.5327445300682192"><ele>60.99999999999999</ele><time>2026-04-26T15:12:36Z</time></trkpt><trkpt lat="40.906762394910885" lon="0.532659328892952"><ele>61.0</ele><time>2026-04-26T15:12:37Z</time></trkpt><trkpt lat="40.90682498116892" lon="0.5324998395152232"><ele>61.599999999999994</ele><time>2026-04-26T15:12:39Z</time></trkpt><trkpt lat="40.90684338112257" lon="0.5324061544742155"><ele>62.199999999999996</ele><time>2026-04-26T15:12:40Z</time></trkpt><trkpt lat="40.90684431560856" lon="0.5323197420168031"><ele>62.800000000000004</ele><time>2026-04-26T15:12:41Z</time></trkpt><trkpt lat="40.90683180601921" lon="0.5322109110979192"><ele>63.400000000000006</ele><time>2026-04-26T15:12:42Z</time></trkpt><trkpt lat="40.906818686089146" lon="0.5320783311891129"><ele>64.0</ele><time>2026-04-26T15:12:43Z</time></trkpt><trkpt lat="40.90679352625957" lon="0.5319134604926815"><ele>64.0</ele><time>2026-04-26T15:12:44Z</time></trkpt><trkpt lat="40.90677359044016" lon="0.5317615018539092"><ele>64.0</ele><time>2026-04-26T15:12:45Z</time></trkpt><trkpt lat="40.906763023717936" lon="0.5315860841991099"><ele>64.0</ele><time>2026-04-26T15:12:46Z</time></trkpt><trkpt lat="40.90676167949278" lon="0.5314531529210105"><ele>64.0</ele><time>2026-04-26T15:12:47Z</time></trkpt><trkpt lat="40.906762747221414" lon="0.5313463607482835"><ele>64.0</ele><time>2026-04-26T15:12:48Z</time></trkpt><trkpt lat="40.906774611164394" lon="0.531225921137123"><ele>63.400000000000006</ele><time>2026-04-26T15:12:50Z</time></trkpt><trkpt lat="40.9067600835205" lon="0.5310637449748415"><ele>62.800000000000004</ele><time>2026-04-26T15:12:52Z</time></trkpt><trkpt lat="40.90672087809276" lon="0.5309497938196687"><ele>62.199999999999996</ele><time>2026-04-26T15:12:53Z</time></trkpt><trkpt lat="40.90668802079714" lon="0.5308556010710495"><ele>61.599999999999994</ele><time>2026-04-26T15:12:54Z</time></trkpt><trkpt lat="40.90666188992553" lon="0.5307556817545435"><ele>61.0</ele><time>2026-04-26T15:12:55Z</time></trkpt><trkpt lat="40.906633303282476" lon="0.5306496181862196"><ele>59.199999999999996</ele><time>2026-04-26T15:12:56Z</time></trkpt><trkpt lat="40.906562830373666" lon="0.5305706558954972"><ele>57.39999999999999</ele><time>2026-04-26T15:12:57Z</time></trkpt><trkpt lat="40.906474647735465" lon="0.5304592911747112"><ele>55.6</ele><time>2026-04-26T15:12:58Z</time></trkpt><trkpt lat="40.90639137313304" lon="0.5303277224977572"><ele>53.8</ele><time>2026-04-26T15:12:59Z</time></trkpt><trkpt lat="40.906327159293426" lon="0.5302273193993415"><ele>52.0</ele><time>2026-04-26T15:13:00Z</time></trkpt><trkpt lat="40.90624083229931" lon="0.5301756216962532"><ele>51.75</ele><time>2026-04-26T15:13:01Z</time></trkpt><trkpt lat="40.90614184050487" lon="0.530052769965584"><ele>51.5</ele><time>2026-04-26T15:13:03Z</time></trkpt><trkpt lat="40.906069032352946" lon="0.5299711061629604"><ele>51.25</ele><time>2026-04-26T15:13:06Z</time></trkpt><trkpt lat="40.906003691670854" lon="0.5298835160043156"><ele>51.0</ele><time>2026-04-26T15:13:08Z</time></trkpt><trkpt lat="40.90588221853127" lon="0.5298321346919589"><ele>51.0</ele><time>2026-04-26T15:13:10Z</time></trkpt><trkpt lat="40.905765574052225" lon="0.5297616696957883"><ele>51.0</ele><time>2026-04-26T15:13:12Z</time></trkpt><trkpt lat="40.905666474372396" lon="0.5296459976957844"><ele>51.0</ele><time>2026-04-26T15:13:14Z</time></trkpt><trkpt lat="40.905604776646264" lon="0.5295635169512696"><ele>51.0</ele><time>2026-04-26T15:13:15Z</time></trkpt><trkpt lat="40.90556869978699" lon="0.5294841645685017"><ele>51.0</ele><time>2026-04-26T15:13:16Z</time></trkpt><trkpt lat="40.905498655469295" lon="0.529356688711975"><ele>50.0</ele><time>2026-04-26T15:13:18Z</time></trkpt><trkpt lat="40.905398440559246" lon="0.5292515896417952"><ele>49.0</ele><time>2026-04-26T15:13:20Z</time></trkpt><trkpt lat="40.90527018908996" lon="0.529214585666911"><ele>48.0</ele><time>2026-04-26T15:13:22Z</time></trkpt><trkpt lat="40.9052033028256" lon="0.529212648136036"><ele>47.0</ele><time>2026-04-26T15:13:23Z</time></trkpt><trkpt lat="40.905079539359825" lon="0.5291706940553162"><ele>45.5</ele><time>2026-04-26T15:13:25Z</time></trkpt><trkpt lat="40.905012920672114" lon="0.529139268128399"><ele>44.0</ele><time>2026-04-26T15:13:26Z</time></trkpt><trkpt lat="40.9049355790341" lon="0.5290994678933161"><ele>42.5</ele><time>2026-04-26T15:13:27Z</time></trkpt><trkpt lat="40.90483291157458" lon="0.52906018081509"><ele>41.0</ele><time>2026-04-26T15:13:28Z</time></trkpt><trkpt lat="40.904752967708106" lon="0.5290488472962886"><ele>39.5</ele><time>2026-04-26T15:13:29Z</time></trkpt><trkpt lat="40.904683050182136" lon="0.5290377216584424"><ele>38.0</ele><time>2026-04-26T15:13:30Z</time></trkpt><trkpt lat="40.904609358448305" lon="0.5290321319468482"><ele>38.0</ele><time>2026-04-26T15:13:31Z</time></trkpt><trkpt lat="40.90453934570913" lon="0.5290268338861193"><ele>38.0</ele><time>2026-04-26T15:13:32Z</time></trkpt><trkpt lat="40.90447739338657" lon="0.5290115790946893"><ele>38.0</ele><time>2026-04-26T15:13:33Z</time></trkpt><trkpt lat="40.90436862886983" lon="0.5289584008955227"><ele>38.0</ele><time>2026-04-26T15:13:35Z</time></trkpt><trkpt lat="40.904349341789754" lon="0.5288733991480034"><ele>38.0</ele><time>2026-04-26T15:13:37Z</time></trkpt><trkpt lat="40.904362825142115" lon="0.5287870060580085"><ele>38.0</ele><time>2026-04-26T15:13:41Z</time></trkpt><trkpt lat="40.90432717023535" lon="0.528646462515857"><ele>38.25</ele><time>2026-04-26T15:13:50Z</time></trkpt><trkpt lat="40.904299681589016" lon="0.5285039240561779"><ele>38.5</ele><time>2026-04-26T15:13:51Z</time></trkpt><trkpt lat="40.90427416479018" lon="0.5283845026592491"><ele>38.75</ele><time>2026-04-26T15:13:52Z</time></trkpt><trkpt lat="40.9042433698202" lon="0.5282317739505796"><ele>39.0</ele><time>2026-04-26T15:13:53Z</time></trkpt><trkpt lat="40.90422059008734" lon="0.5280681201823386"><ele>39.0</ele><time>2026-04-26T15:13:55Z</time></trkpt><trkpt lat="40.90424421319415" lon="0.5279680455807819"><ele>39.0</ele><time>2026-04-26T15:13:56Z</time></trkpt><trkpt lat="40.90426803405909" lon="0.5278674182915314"><ele>39.0</ele><time>2026-04-26T15:13:57Z</time></trkpt><trkpt lat="40.90428705113218" lon="0.527746566865976"><ele>39.0</ele><time>2026-04-26T15:13:59Z</time></trkpt><trkpt lat="40.90428295167774" lon="0.5276051652527592"><ele>39.0</ele><time>2026-04-26T15:14:00Z</time></trkpt><trkpt lat="40.90428075879435" lon="0.5274764831121397"><ele>39.6</ele><time>2026-04-26T15:14:01Z</time></trkpt><trkpt lat="40.90427276170199" lon="0.5273689656081904"><ele>40.2</ele><time>2026-04-26T15:14:02Z</time></trkpt><trkpt lat="40.90424917185019" lon="0.527204857227883"><ele>40.800000000000004</ele><time>2026-04-26T15:14:03Z</time></trkpt><trkpt lat="40.90422624134458" lon="0.5270530739376819"><ele>41.4</ele><time>2026-04-26T15:14:04Z</time></trkpt><trkpt lat="40.90421362497377" lon="0.5268999427255566"><ele>42.0</ele><time>2026-04-26T15:14:05Z</time></trkpt><trkpt lat="40.90420800316946" lon="0.5268128387799591"><ele>40.0</ele><time>2026-04-26T15:14:06Z</time></trkpt><trkpt lat="40.90418687468075" lon="0.5267204217790118"><ele>38.0</ele><time>2026-04-26T15:14:07Z</time></trkpt><trkpt lat="40.90419371925771" lon="0.526636013475964"><ele>36.0</ele><time>2026-04-26T15:14:08Z</time></trkpt><trkpt lat="40.90419789192254" lon="0.5265503175684346"><ele>34.0</ele><time>2026-04-26T15:14:09Z</time></trkpt><trkpt lat="40.90416317183787" lon="0.5263883505132244"><ele>32.0</ele><time>2026-04-26T15:14:11Z</time></trkpt><trkpt lat="40.90408599990694" lon="0.5262698204363447"><ele>30.0</ele><time>2026-04-26T15:14:13Z</time></trkpt><trkpt lat="40.90397843400602" lon="0.526165475030177"><ele>30.0</ele><time>2026-04-26T15:14:15Z</time></trkpt><trkpt lat="40.9039172165472" lon="0.5261091895695954"><ele>30.0</ele><time>2026-04-26T15:14:16Z</time></trkpt><trkpt lat="40.90382685802163" lon="0.526024328125619"><ele>30.0</ele><time>2026-04-26T15:14:18Z</time></trkpt><trkpt lat="40.903769750512254" lon="0.5259329241204413"><ele>30.0</ele><time>2026-04-26T15:14:21Z</time></trkpt><trkpt lat="40.90386427882179" lon="0.5258794939286406"><ele>30.0</ele><time>2026-04-26T15:14:24Z</time></trkpt><trkpt lat="40.903968066346245" lon="0.5258911240107946"><ele>30.0</ele><time>2026-04-26T15:14:25Z</time></trkpt><trkpt lat="40.904058628513546" lon="0.5259121603232818"><ele>30.0</ele><time>2026-04-26T15:14:26Z</time></trkpt><trkpt lat="40.90412505179736" lon="0.5259248523862998"><ele>30.0</ele><time>2026-04-26T15:14:27Z</time></trkpt><trkpt lat="40.904223208389176" lon="0.52590958025611"><ele>30.0</ele><time>2026-04-26T15:14:29Z</time></trkpt><trkpt lat="40.9042761418636" lon="0.5258399604121375"><ele>30.0</ele><time>2026-04-26T15:14:30Z</time></trkpt><trkpt lat="40.90433632496259" lon="0.5257515943296325"><ele>30.0</ele><time>2026-04-26T15:14:31Z</time></trkpt><trkpt lat="40.90438432524048" lon="0.5256628970822022"><ele>32.6</ele><time>2026-04-26T15:14:32Z</time></trkpt><trkpt lat="40.904439051116036" lon="0.5256076727268354"><ele>35.2</ele><time>2026-04-26T15:14:33Z</time></trkpt><trkpt lat="40.90454873482732" lon="0.5255355609101264"><ele>37.8</ele><time>2026-04-26T15:14:35Z</time></trkpt><trkpt lat="40.904615733740926" lon="0.5255281713595782"><ele>40.4</ele><time>2026-04-26T15:14:36Z</time></trkpt><trkpt lat="40.90472963491271" lon="0.5255841075209527"><ele>43.0</ele><time>2026-04-26T15:14:38Z</time></trkpt><trkpt lat="40.90480307590764" lon="0.5256202441214318"><ele>43.0</ele><time>2026-04-26T15:14:39Z</time></trkpt><trkpt lat="40.90490217244745" lon="0.5256371849470014"><ele>43.0</ele><time>2026-04-26T15:14:40Z</time></trkpt><trkpt lat="40.90499550687585" lon="0.5256322257249275"><ele>43.0</ele><time>2026-04-26T15:14:41Z</time></trkpt><trkpt lat="40.905090881230024" lon="0.5256375690080186"><ele>43.0</ele><time>2026-04-26T15:14:42Z</time></trkpt><trkpt lat="40.905185464429515" lon="0.5256415524185749"><ele>43.0</ele><time>2026-04-26T15:14:43Z</time></trkpt><trkpt lat="40.905285683266165" lon="0.5256148143962502"><ele>44.8</ele><time>2026-04-26T15:14:44Z</time></trkpt><trkpt lat="40.90537329883541" lon="0.5255809479412547"><ele>46.599999999999994</ele><time>2026-04-26T15:14:45Z</time></trkpt><trkpt lat="40.90545506664914" lon="0.5255522279271944"><ele>48.400000000000006</ele><time>2026-04-26T15:14:46Z</time></trkpt><trkpt lat="40.90552143677902" lon="0.5255076335674911"><ele>50.2</ele><time>2026-04-26T15:14:47Z</time></trkpt><trkpt lat="40.905645311718295" lon="0.5253832547673345"><ele>52.0</ele><time>2026-04-26T15:14:49Z</time></trkpt><trkpt lat="40.90572256099359" lon="0.5253025338639792"><ele>52.49999999999999</ele><time>2026-04-26T15:14:50Z</time></trkpt><trkpt lat="40.90580074957883" lon="0.5252169077112621"><ele>53.0</ele><time>2026-04-26T15:14:51Z</time></trkpt><trkpt lat="40.905871056716876" lon="0.5251364882622168"><ele>53.5</ele><time>2026-04-26T15:14:52Z</time></trkpt><trkpt lat="40.905937179688" lon="0.5250658356239308"><ele>54.0</ele><time>2026-04-26T15:14:53Z</time></trkpt><trkpt lat="40.906000442876355" lon="0.5249918175765821"><ele>54.49999999999999</ele><time>2026-04-26T15:14:54Z</time></trkpt><trkpt lat="40.90605416041265" lon="0.5249080677789937"><ele>55.0</ele><time>2026-04-26T15:14:55Z</time></trkpt><trkpt lat="40.90610942095372" lon="0.5248373278154076"><ele>58.666666666666664</ele><time>2026-04-26T15:14:56Z</time></trkpt><trkpt lat="40.906188765126124" lon="0.5247409753656069"><ele>62.33333333333333</ele><time>2026-04-26T15:14:57Z</time></trkpt><trkpt lat="40.90624085227134" lon="0.5246588770805807"><ele>66.0</ele><time>2026-04-26T15:14:58Z</time></trkpt><trkpt lat="40.90628134259225" lon="0.5245744235837988"><ele>69.66666666666667</ele><time>2026-04-26T15:14:59Z</time></trkpt><trkpt lat="40.90632885375994" lon="0.524509765857355"><ele>73.33333333333334</ele><time>2026-04-26T15:15:00Z</time></trkpt><trkpt lat="40.906363248317874" lon="0.5244316907908486"><ele>77.0</ele><time>2026-04-26T15:15:01Z</time></trkpt><trkpt lat="40.906408305677" lon="0.5243254240406228"><ele>77.0</ele><time>2026-04-26T15:15:02Z</time></trkpt><trkpt lat="40.9064336658038" lon="0.5242347552819122"><ele>77.0</ele><time>2026-04-26T15:15:03Z</time></trkpt><trkpt lat="40.90645191662929" lon="0.5241273055816341"><ele>77.0</ele><time>2026-04-26T15:15:04Z</time></trkpt><trkpt lat="40.906471641947654" lon="0.5239987143576947"><ele>77.0</ele><time>2026-04-26T15:15:05Z</time></trkpt><trkpt lat="40.906491976775065" lon="0.5238850946337174"><ele>77.0</ele><time>2026-04-26T15:15:06Z</time></trkpt><trkpt lat="40.90650415599509" lon="0.5237723152809396"><ele>77.0</ele><time>2026-04-26T15:15:07Z</time></trkpt><trkpt lat="40.90652390456228" lon="0.5236320545176419"><ele>78.0</ele><time>2026-04-26T15:15:08Z</time></trkpt><trkpt lat="40.90656839294553" lon="0.5235313306288799"><ele>79.0</ele><time>2026-04-26T15:15:09Z</time></trkpt><trkpt lat="40.90661531607857" lon="0.5234392867208078"><ele>80.0</ele><time>2026-04-26T15:15:10Z</time></trkpt><trkpt lat="40.906668865658176" lon="0.52336103472646"><ele>81.0</ele><time>2026-04-26T15:15:11Z</time></trkpt><trkpt lat="40.906729409097466" lon="0.5232937334290204"><ele>82.0</ele><time>2026-04-26T15:15:12Z</time></trkpt><trkpt lat="40.90678934589601" lon="0.5232592156262201"><ele>83.0</ele><time>2026-04-26T15:15:13Z</time></trkpt><trkpt lat="40.90683827900809" lon="0.5232035633466955"><ele>83.0</ele><time>2026-04-26T15:15:14Z</time></trkpt><trkpt lat="40.90686308551271" lon="0.5231001230146788"><ele>83.0</ele><time>2026-04-26T15:15:15Z</time></trkpt><trkpt lat="40.90687734175747" lon="0.5229795036535981"><ele>83.0</ele><time>2026-04-26T15:15:16Z</time></trkpt><trkpt lat="40.906894726733206" lon="0.522881675958905"><ele>83.0</ele><time>2026-04-26T15:15:17Z</time></trkpt><trkpt lat="40.9069210119378" lon="0.5227853082481553"><ele>83.0</ele><time>2026-04-26T15:15:18Z</time></trkpt><trkpt lat="40.90698385336767" lon="0.522679795859279"><ele>83.0</ele><time>2026-04-26T15:15:20Z</time></trkpt><trkpt lat="40.90703932324192" lon="0.5226323834585757"><ele>82.5</ele><time>2026-04-26T15:15:21Z</time></trkpt><trkpt lat="40.90710620434337" lon="0.5225799229815363"><ele>82.0</ele><time>2026-04-26T15:15:22Z</time></trkpt><trkpt lat="40.90717424277323" lon="0.5225299675935136"><ele>81.5</ele><time>2026-04-26T15:15:23Z</time></trkpt><trkpt lat="40.907241315118945" lon="0.5224780422120271"><ele>81.0</ele><time>2026-04-26T15:15:24Z</time></trkpt><trkpt lat="40.907311339179614" lon="0.5224212616045484"><ele>80.5</ele><time>2026-04-26T15:15:25Z</time></trkpt><trkpt lat="40.90736072632245" lon="0.5223668180285247"><ele>80.0</ele><time>2026-04-26T15:15:26Z</time></trkpt><trkpt lat="40.90741596515459" lon="0.5223084067418512"><ele>80.0</ele><time>2026-04-26T15:15:27Z</time></trkpt><trkpt lat="40.90748075271816" lon="0.5222523122138817"><ele>80.0</ele><time>2026-04-26T15:15:28Z</time></trkpt><trkpt lat="40.90753649687754" lon="0.5221993369014835"><ele>80.0</ele><time>2026-04-26T15:15:29Z</time></trkpt><trkpt lat="40.907590169682116" lon="0.5221396831258409"><ele>80.0</ele><time>2026-04-26T15:15:30Z</time></trkpt><trkpt lat="40.90765152952998" lon="0.5221037842812917"><ele>80.0</ele><time>2026-04-26T15:15:31Z</time></trkpt><trkpt lat="40.90772360459146" lon="0.5220741717429931"><ele>80.0</ele><time>2026-04-26T15:15:32Z</time></trkpt><trkpt lat="40.90779626772774" lon="0.5220360169393543"><ele>80.0</ele><time>2026-04-26T15:15:33Z</time></trkpt><trkpt lat="40.90786003256493" lon="0.5219868021474285"><ele>78.83333333333334</ele><time>2026-04-26T15:15:34Z</time></trkpt><trkpt lat="40.90792814923189" lon="0.521929792663983"><ele>77.66666666666667</ele><time>2026-04-26T15:15:35Z</time></trkpt><trkpt lat="40.90797161284124" lon="0.521857624067884"><ele>76.5</ele><time>2026-04-26T15:15:36Z</time></trkpt><trkpt lat="40.90804732050002" lon="0.5217449361888726"><ele>75.33333333333333</ele><time>2026-04-26T15:15:38Z</time></trkpt><trkpt lat="40.90814684881411" lon="0.5217512568203123"><ele>74.16666666666666</ele><time>2026-04-26T15:15:40Z</time></trkpt><trkpt lat="40.90820308023483" lon="0.5217953133634385"><ele>73.0</ele><time>2026-04-26T15:15:41Z</time></trkpt><trkpt lat="40.90833365206865" lon="0.5217894005786963"><ele>73.0</ele><time>2026-04-26T15:15:43Z</time></trkpt><trkpt lat="40.90838737009926" lon="0.521736717805794"><ele>73.0</ele><time>2026-04-26T15:15:44Z</time></trkpt><trkpt lat="40.90841958981262" lon="0.5216574864392481"><ele>73.0</ele><time>2026-04-26T15:15:45Z</time></trkpt><trkpt lat="40.90841955193973" lon="0.5215323231100246"><ele>73.0</ele><time>2026-04-26T15:15:47Z</time></trkpt><trkpt lat="40.908389113149404" lon="0.5214582099744935"><ele>73.0</ele><time>2026-04-26T15:15:48Z</time></trkpt><trkpt lat="40.908341210381714" lon="0.5213312173211739"><ele>73.0</ele><time>2026-04-26T15:15:50Z</time></trkpt><trkpt lat="40.908378406732545" lon="0.521203896467279"><ele>73.85714285714286</ele><time>2026-04-26T15:15:52Z</time></trkpt><trkpt lat="40.908412421932724" lon="0.5211186307732555"><ele>74.71428571428572</ele><time>2026-04-26T15:15:53Z</time></trkpt><trkpt lat="40.90846251157494" lon="0.5210675519528761"><ele>75.57142857142858</ele><time>2026-04-26T15:15:54Z</time></trkpt><trkpt lat="40.90852561402647" lon="0.5210330738487154"><ele>76.42857142857143</ele><time>2026-04-26T15:15:55Z</time></trkpt><trkpt lat="40.90858783430516" lon="0.5210003734402758"><ele>77.28571428571429</ele><time>2026-04-26T15:15:56Z</time></trkpt><trkpt lat="40.90865420405924" lon="0.5209525979791462"><ele>78.14285714285715</ele><time>2026-04-26T15:15:57Z</time></trkpt><trkpt lat="40.90870928335042" lon="0.5209032512644005"><ele>79.0</ele><time>2026-04-26T15:15:58Z</time></trkpt><trkpt lat="40.9087816927381" lon="0.5207682768234816"><ele>79.0</ele><time>2026-04-26T15:16:00Z</time></trkpt><trkpt lat="40.90879767711698" lon="0.5206172005580643"><ele>79.0</ele><time>2026-04-26T15:16:02Z</time></trkpt><trkpt lat="40.90872269251749" lon="0.5204564356747204"><ele>79.0</ele><time>2026-04-26T15:16:04Z</time></trkpt><trkpt lat="40.908629084643636" lon="0.5203459146868715"><ele>79.0</ele><time>2026-04-26T15:16:06Z</time></trkpt><trkpt lat="40.90858203981211" lon="0.5202343720119209"><ele>79.0</ele><time>2026-04-26T15:16:08Z</time></trkpt><trkpt lat="40.90857764644119" lon="0.520063967601155"><ele>79.0</ele><time>2026-04-26T15:16:10Z</time></trkpt><trkpt lat="40.90859051594649" lon="0.5199604219578996"><ele>79.0</ele><time>2026-04-26T15:16:11Z</time></trkpt><trkpt lat="40.90860671773063" lon="0.5198761764204848"><ele>79.0</ele><time>2026-04-26T15:16:12Z</time></trkpt><trkpt lat="40.90860825156301" lon="0.5197761645585502"><ele>79.0</ele><time>2026-04-26T15:16:13Z</time></trkpt><trkpt lat="40.908611094501666" lon="0.5196803265048932"><ele>79.0</ele><time>2026-04-26T15:16:14Z</time></trkpt><trkpt lat="40.908631142000935" lon="0.5195837503935128"><ele>79.00000000000001</ele><time>2026-04-26T15:16:15Z</time></trkpt><trkpt lat="40.90865783891022" lon="0.5195068850930064"><ele>79.0</ele><time>2026-04-26T15:16:16Z</time></trkpt><trkpt lat="40.90871297104278" lon="0.5194233755591668"><ele>79.0</ele><time>2026-04-26T15:16:18Z</time></trkpt><trkpt lat="40.90876723231603" lon="0.5193637671888598"><ele>79.0</ele><time>2026-04-26T15:16:20Z</time></trkpt><trkpt lat="40.90881413162717" lon="0.5192918421096774"><ele>79.0</ele><time>2026-04-26T15:16:22Z</time></trkpt><trkpt lat="40.90885273656334" lon="0.519192905014501"><ele>79.00000000000001</ele><time>2026-04-26T15:16:25Z</time></trkpt><trkpt lat="40.908912843612875" lon="0.5191450380017796"><ele>79.0</ele><time>2026-04-26T15:16:27Z</time></trkpt><trkpt lat="40.909145841452194" lon="0.5191183297218646"><ele>79.0</ele><time>2026-04-26T15:16:34Z</time></trkpt><trkpt lat="40.90922872078222" lon="0.5190686232938964"><ele>79.0</ele><time>2026-04-26T15:16:37Z</time></trkpt><trkpt lat="40.90938917720718" lon="0.5191569917803966"><ele>79.0</ele><time>2026-04-26T15:16:53Z</time></trkpt><trkpt lat="40.909437091332755" lon="0.5192852891197217"><ele>79.0</ele><time>2026-04-26T15:16:54Z</time></trkpt><trkpt lat="40.9094836641849" lon="0.5194596015367925"><ele>82.66666666666666</ele><time>2026-04-26T15:16:55Z</time></trkpt><trkpt lat="40.909538261729764" lon="0.519639872804354"><ele>86.33333333333333</ele><time>2026-04-26T15:16:56Z</time></trkpt><trkpt lat="40.909592892664136" lon="0.5198057512019756"><ele>90.0</ele><time>2026-04-26T15:16:57Z</time></trkpt><trkpt lat="40.909652764592465" lon="0.520041221476023"><ele>90.0</ele><time>2026-04-26T15:16:58Z</time></trkpt><trkpt lat="40.909719770430854" lon="0.5202775981517019"><ele>90.0</ele><time>2026-04-26T15:16:59Z</time></trkpt><trkpt lat="40.909784298083366" lon="0.5204743274859617"><ele>90.0</ele><time>2026-04-26T15:17:00Z</time></trkpt><trkpt lat="40.90983495262171" lon="0.5206210541550508"><ele>90.6</ele><time>2026-04-26T15:17:01Z</time></trkpt><trkpt lat="40.90986989584806" lon="0.5207486691475703"><ele>91.2</ele><time>2026-04-26T15:17:02Z</time></trkpt><trkpt lat="40.90988378074231" lon="0.5208697412344709"><ele>91.80000000000001</ele><time>2026-04-26T15:17:03Z</time></trkpt><trkpt lat="40.90988776964451" lon="0.5209988248369202"><ele>92.4</ele><time>2026-04-26T15:17:04Z</time></trkpt><trkpt lat="40.90989497952897" lon="0.5211226481924519"><ele>93.0</ele><time>2026-04-26T15:17:05Z</time></trkpt><trkpt lat="40.909903210929585" lon="0.5212340036330911"><ele>93.57142857142858</ele><time>2026-04-26T15:17:06Z</time></trkpt><trkpt lat="40.90991761452133" lon="0.5213255318713163"><ele>94.14285714285714</ele><time>2026-04-26T15:17:07Z</time></trkpt><trkpt lat="40.9099295234091" lon="0.5214101625409874"><ele>94.71428571428572</ele><time>2026-04-26T15:17:08Z</time></trkpt><trkpt lat="40.90997164826462" lon="0.5215069253407986"><ele>95.28571428571429</ele><time>2026-04-26T15:17:09Z</time></trkpt><trkpt lat="40.91001934962348" lon="0.5215870642307412"><ele>95.85714285714286</ele><time>2026-04-26T15:17:10Z</time></trkpt><trkpt lat="40.91006766016916" lon="0.521657345329918"><ele>96.42857142857143</ele><time>2026-04-26T15:17:11Z</time></trkpt><trkpt lat="40.9101025219927" lon="0.5217389884310436"><ele>97.0</ele><time>2026-04-26T15:17:12Z</time></trkpt><trkpt lat="40.91008710030511" lon="0.5219119837879738"><ele>97.16666666666667</ele><time>2026-04-26T15:17:14Z</time></trkpt><trkpt lat="40.91005183620113" lon="0.5220018707766135"><ele>97.33333333333334</ele><time>2026-04-26T15:17:15Z</time></trkpt><trkpt lat="40.91004043954403" lon="0.5221150577594342"><ele>97.5</ele><time>2026-04-26T15:17:16Z</time></trkpt><trkpt lat="40.91004292678386" lon="0.5221983312203408"><ele>97.66666666666666</ele><time>2026-04-26T15:17:17Z</time></trkpt><trkpt lat="40.91002053125805" lon="0.5223416343199672"><ele>97.83333333333333</ele><time>2026-04-26T15:17:19Z</time></trkpt><trkpt lat="40.909993987754646" lon="0.5224710166619436"><ele>98.0</ele><time>2026-04-26T15:17:21Z</time></trkpt><trkpt lat="40.9099941689793" lon="0.5225844334566576"><ele>98.60000000000001</ele><time>2026-04-26T15:17:23Z</time></trkpt><trkpt lat="40.91000573365775" lon="0.5227069460942375"><ele>99.2</ele><time>2026-04-26T15:17:25Z</time></trkpt><trkpt lat="40.91003377988356" lon="0.5228903969474734"><ele>99.8</ele><time>2026-04-26T15:17:27Z</time></trkpt><trkpt lat="40.91005086672762" lon="0.5230060493166236"><ele>100.4</ele><time>2026-04-26T15:17:28Z</time></trkpt><trkpt lat="40.910059159400035" lon="0.5231462271080596"><ele>101.0</ele><time>2026-04-26T15:17:29Z</time></trkpt><trkpt lat="40.910069224299015" lon="0.5232736525203563"><ele>101.99999999999999</ele><time>2026-04-26T15:17:30Z</time></trkpt><trkpt lat="40.91008015697585" lon="0.5233576518449289"><ele>103.0</ele><time>2026-04-26T15:17:31Z</time></trkpt><trkpt lat="40.910156996419246" lon="0.5234267208529889"><ele>104.0</ele><time>2026-04-26T15:17:35Z</time></trkpt><trkpt lat="40.91022619332734" lon="0.523437410636241"><ele>105.0</ele><time>2026-04-26T15:17:37Z</time></trkpt><trkpt lat="40.91032287325283" lon="0.5234309462086224"><ele>105.99999999999999</ele><time>2026-04-26T15:17:39Z</time></trkpt><trkpt lat="40.91043207008404" lon="0.5234385638560975"><ele>107.0</ele><time>2026-04-26T15:17:41Z</time></trkpt><trkpt lat="40.910528977818075" lon="0.523454973295844"><ele>106.99999999999999</ele><time>2026-04-26T15:17:43Z</time></trkpt><trkpt lat="40.910607485757026" lon="0.5234945240143494"><ele>107.0</ele><time>2026-04-26T15:17:45Z</time></trkpt><trkpt lat="40.910647454987355" lon="0.5235703091404406"><ele>107.0</ele><time>2026-04-26T15:17:47Z</time></trkpt><trkpt lat="40.91072455550846" lon="0.5236473650418786"><ele>107.0</ele><time>2026-04-26T15:17:49Z</time></trkpt><trkpt lat="40.91079259953198" lon="0.523703782244553"><ele>106.99999999999999</ele><time>2026-04-26T15:17:51Z</time></trkpt><trkpt lat="40.91085745049809" lon="0.5238079064606539"><ele>107.0</ele><time>2026-04-26T15:17:53Z</time></trkpt><trkpt lat="40.910916965542015" lon="0.5238988457436908"><ele>107.6</ele><time>2026-04-26T15:17:54Z</time></trkpt><trkpt lat="40.910951617197824" lon="0.5239933133690712"><ele>108.19999999999999</ele><time>2026-04-26T15:17:55Z</time></trkpt><trkpt lat="40.91103116383975" lon="0.5241061694050163"><ele>108.8</ele><time>2026-04-26T15:17:57Z</time></trkpt><trkpt lat="40.91107635752805" lon="0.5242130170400032"><ele>109.4</ele><time>2026-04-26T15:17:59Z</time></trkpt><trkpt lat="40.91112311954956" lon="0.5243040801069656"><ele>110.0</ele><time>2026-04-26T15:18:01Z</time></trkpt><trkpt lat="40.91121252743002" lon="0.524358187894184"><ele>109.99999999999999</ele><time>2026-04-26T15:18:03Z</time></trkpt><trkpt lat="40.91127725539698" lon="0.5243648290023689"><ele>110.0</ele><time>2026-04-26T15:18:04Z</time></trkpt><trkpt lat="40.911369525836314" lon="0.5243463848508557"><ele>110.0</ele><time>2026-04-26T15:18:05Z</time></trkpt><trkpt lat="40.91144364133297" lon="0.5243489261148797"><ele>110.0</ele><time>2026-04-26T15:18:06Z</time></trkpt><trkpt lat="40.91155806010807" lon="0.5244052200800107"><ele>109.99999999999999</ele><time>2026-04-26T15:18:08Z</time></trkpt><trkpt lat="40.91162841910101" lon="0.5244407880256262"><ele>110.0</ele><time>2026-04-26T15:18:09Z</time></trkpt><trkpt lat="40.9117075916271" lon="0.5244770537509464"><ele>109.66666666666666</ele><time>2026-04-26T15:18:10Z</time></trkpt><trkpt lat="40.911780093868266" lon="0.5245146028609224"><ele>109.33333333333333</ele><time>2026-04-26T15:18:11Z</time></trkpt><trkpt lat="40.91186604028123" lon="0.524543090361494"><ele>109.0</ele><time>2026-04-26T15:18:12Z</time></trkpt><trkpt lat="40.91195099131085" lon="0.5245723867320259"><ele>108.66666666666666</ele><time>2026-04-26T15:18:13Z</time></trkpt><trkpt lat="40.912027402048444" lon="0.5246000062736245"><ele>108.33333333333333</ele><time>2026-04-26T15:18:14Z</time></trkpt><trkpt lat="40.9121060755547" lon="0.5246154625312729"><ele>108.0</ele><time>2026-04-26T15:18:15Z</time></trkpt><trkpt lat="40.912169616945455" lon="0.5246512558120672"><ele>108.83333333333333</ele><time>2026-04-26T15:18:16Z</time></trkpt><trkpt lat="40.91226231422409" lon="0.524706216671046"><ele>109.66666666666666</ele><time>2026-04-26T15:18:18Z</time></trkpt><trkpt lat="40.91234362751194" lon="0.524777296616081"><ele>110.5</ele><time>2026-04-26T15:18:20Z</time></trkpt><trkpt lat="40.91239468744652" lon="0.5248430426276464"><ele>111.33333333333333</ele><time>2026-04-26T15:18:22Z</time></trkpt><trkpt lat="40.91245691339246" lon="0.5249312151261045"><ele>112.16666666666666</ele><time>2026-04-26T15:18:24Z</time></trkpt><trkpt lat="40.91250981254306" lon="0.5250122221380747"><ele>113.0</ele><time>2026-04-26T15:18:26Z</time></trkpt><trkpt lat="40.912560844778" lon="0.5250921093465939"><ele>112.60000000000001</ele><time>2026-04-26T15:18:28Z</time></trkpt><trkpt lat="40.912618506703716" lon="0.5251954394776736"><ele>112.20000000000002</ele><time>2026-04-26T15:18:30Z</time></trkpt><trkpt lat="40.912683732522176" lon="0.5252801146640852"><ele>111.8</ele><time>2026-04-26T15:18:32Z</time></trkpt><trkpt lat="40.912765775399215" lon="0.5253220364349328"><ele>111.4</ele><time>2026-04-26T15:18:34Z</time></trkpt><trkpt lat="40.91283498099366" lon="0.5253667081108851"><ele>111.0</ele><time>2026-04-26T15:18:36Z</time></trkpt><trkpt lat="40.91287097674744" lon="0.525500473620139"><ele>111.0</ele><time>2026-04-26T15:18:39Z</time></trkpt><trkpt lat="40.91290978829259" lon="0.5255977698806561"><ele>111.0</ele><time>2026-04-26T15:18:41Z</time></trkpt><trkpt lat="40.91295222327333" lon="0.5256805328948684"><ele>111.0</ele><time>2026-04-26T15:18:43Z</time></trkpt><trkpt lat="40.91298816359305" lon="0.5257551982850597"><ele>111.0</ele><time>2026-04-26T15:18:46Z</time></trkpt><trkpt lat="40.91306220352423" lon="0.5257963361849467"><ele>111.0</ele><time>2026-04-26T15:18:49Z</time></trkpt><trkpt lat="40.91311745236853" lon="0.5258516086371038"><ele>111.0</ele><time>2026-04-26T15:18:52Z</time></trkpt><trkpt lat="40.91316889899957" lon="0.5259259858994548"><ele>111.0</ele><time>2026-04-26T15:18:55Z</time></trkpt><trkpt lat="40.913232394647565" lon="0.5259814310811206"><ele>111.0</ele><time>2026-04-26T15:18:58Z</time></trkpt><trkpt lat="40.913340891106124" lon="0.5259830535559832"><ele>111.0</ele><time>2026-04-26T15:19:02Z</time></trkpt><trkpt lat="40.91338529833927" lon="0.5260563795989236"><ele>111.0</ele><time>2026-04-26T15:19:05Z</time></trkpt><trkpt lat="40.91339163859559" lon="0.5261584642581736"><ele>111.0</ele><time>2026-04-26T15:19:09Z</time></trkpt><trkpt lat="40.913375274886775" lon="0.5262397522438971"><ele>111.0</ele><time>2026-04-26T15:19:13Z</time></trkpt><trkpt lat="40.91335400282682" lon="0.5263266595832639"><ele>110.0</ele><time>2026-04-26T15:19:17Z</time></trkpt><trkpt lat="40.91335434213207" lon="0.5264108818917785"><ele>109.0</ele><time>2026-04-26T15:19:20Z</time></trkpt><trkpt lat="40.91331694012577" lon="0.5264913826696779"><ele>108.0</ele><time>2026-04-26T15:19:23Z</time></trkpt><trkpt lat="40.9132756883566" lon="0.5265607566500659"><ele>107.0</ele><time>2026-04-26T15:19:25Z</time></trkpt><trkpt lat="40.91327317486496" lon="0.5267132148083934"><ele>106.0</ele><time>2026-04-26T15:19:27Z</time></trkpt><trkpt lat="40.913279657776066" lon="0.52681448160894"><ele>105.0</ele><time>2026-04-26T15:19:28Z</time></trkpt><trkpt lat="40.913261106680295" lon="0.5269014288492921"><ele>105.0</ele><time>2026-04-26T15:19:29Z</time></trkpt><trkpt lat="40.91328012262572" lon="0.5270001903789866"><ele>105.0</ele><time>2026-04-26T15:19:30Z</time></trkpt><trkpt lat="40.91327814793286" lon="0.5271627595737409"><ele>105.0</ele><time>2026-04-26T15:19:32Z</time></trkpt><trkpt lat="40.9132532830116" lon="0.5272737680484497"><ele>105.0</ele><time>2026-04-26T15:19:34Z</time></trkpt><trkpt lat="40.91321061508144" lon="0.5274397511512388"><ele>105.0</ele><time>2026-04-26T15:19:36Z</time></trkpt><trkpt lat="40.91317375448092" lon="0.5275269912484297"><ele>105.16666666666667</ele><time>2026-04-26T15:19:38Z</time></trkpt><trkpt lat="40.91313899034884" lon="0.5276141857754273"><ele>105.33333333333334</ele><time>2026-04-26T15:19:40Z</time></trkpt><trkpt lat="40.91312329047944" lon="0.5277046922679614"><ele>105.5</ele><time>2026-04-26T15:19:42Z</time></trkpt><trkpt lat="40.91315671653721" lon="0.5278082851593474"><ele>105.66666666666667</ele><time>2026-04-26T15:19:44Z</time></trkpt><trkpt lat="40.91318577416884" lon="0.527908539887801"><ele>105.83333333333334</ele><time>2026-04-26T15:19:46Z</time></trkpt><trkpt lat="40.91325188971893" lon="0.528052106819991"><ele>106.0</ele><time>2026-04-26T15:19:48Z</time></trkpt><trkpt lat="40.91327960963563" lon="0.5281303491363764"><ele>110.0</ele><time>2026-04-26T15:19:49Z</time></trkpt><trkpt lat="40.91328902907548" lon="0.5282178683189174"><ele>110.0</ele><time>2026-04-26T15:19:51Z</time></trkpt><trkpt lat="40.91332310207464" lon="0.5283203813753817"><ele>110.0</ele><time>2026-04-26T15:19:54Z</time></trkpt><trkpt lat="40.913326973685955" lon="0.5284601496527802"><ele>110.0</ele><time>2026-04-26T15:19:57Z</time></trkpt></trkseg></trk></gpx>